<?xml version="1.0" encoding="UTF-8" standalone="no" ?>
<gpx xmlns="http://www.topografix.com/GPX/1/1" xmlns:xsi="http://www.w3.org/2001/XMLSchema-instance" xsi:schemaLocation="http://www.topografix.com/GPX/1/1 http://www.topografix.com/GPX/1/1/gpx.xsd" version="1.1" creator="VisuGPX - https://www.visugpx.com">
  <metadata>
    <name>TASSIN-POLLIONNAY</name>
    <desc><![CDATA[Pollionnay au départ de Tassin.]]></desc>
  </metadata>
  <trk>
    <name><![CDATA[TASSIN]]></name>
    <trkseg>
      <trkpt lat="45.74585" lon="4.76784">
        <ele>263.54</ele>
        <time>2020-05-18T11:00:06Z</time>
      </trkpt>
      <trkpt lat="45.74585" lon="4.76785">
        <ele>263.54</ele>
        <time>2020-05-18T11:00:07Z</time>
      </trkpt>
      <trkpt lat="45.74585" lon="4.76785">
        <ele>204.42</ele>
        <time>2020-05-18T11:00:10Z</time>
      </trkpt>
      <trkpt lat="45.74584" lon="4.76786">
        <ele>204.42</ele>
        <time>2020-05-18T11:00:11Z</time>
      </trkpt>
      <trkpt lat="45.74585" lon="4.76787">
        <ele>204.42</ele>
        <time>2020-05-18T11:00:28Z</time>
      </trkpt>
      <trkpt lat="45.74585" lon="4.76789">
        <ele>204.42</ele>
        <time>2020-05-18T11:00:31Z</time>
      </trkpt>
      <trkpt lat="45.74582" lon="4.76787">
        <ele>204.42</ele>
        <time>2020-05-18T11:00:33Z</time>
      </trkpt>
      <trkpt lat="45.74577" lon="4.76784">
        <ele>204.42</ele>
        <time>2020-05-18T11:00:35Z</time>
      </trkpt>
      <trkpt lat="45.74574" lon="4.76785">
        <ele>204.42</ele>
        <time>2020-05-18T11:00:36Z</time>
      </trkpt>
      <trkpt lat="45.74517" lon="4.76798">
        <ele>202.49</ele>
        <time>2020-05-18T11:00:50Z</time>
      </trkpt>
      <trkpt lat="45.74454" lon="4.7678">
        <ele>200.57</ele>
        <time>2020-05-18T11:01:01Z</time>
      </trkpt>
      <trkpt lat="45.74436" lon="4.76778">
        <ele>200.57</ele>
        <time>2020-05-18T11:01:04Z</time>
      </trkpt>
      <trkpt lat="45.74347" lon="4.76808">
        <ele>200.09</ele>
        <time>2020-05-18T11:01:20Z</time>
      </trkpt>
      <trkpt lat="45.74341" lon="4.7681">
        <ele>200.09</ele>
        <time>2020-05-18T11:01:21Z</time>
      </trkpt>
      <trkpt lat="45.74335" lon="4.76811">
        <ele>200.09</ele>
        <time>2020-05-18T11:01:22Z</time>
      </trkpt>
      <trkpt lat="45.74306" lon="4.76812">
        <ele>200.09</ele>
        <time>2020-05-18T11:01:27Z</time>
      </trkpt>
      <trkpt lat="45.743" lon="4.76811">
        <ele>200.09</ele>
        <time>2020-05-18T11:01:28Z</time>
      </trkpt>
      <trkpt lat="45.74294" lon="4.7681">
        <ele>200.09</ele>
        <time>2020-05-18T11:01:29Z</time>
      </trkpt>
      <trkpt lat="45.74198" lon="4.76807">
        <ele>199.61</ele>
        <time>2020-05-18T11:01:46Z</time>
      </trkpt>
      <trkpt lat="45.74165" lon="4.76815">
        <ele>199.61</ele>
        <time>2020-05-18T11:01:53Z</time>
      </trkpt>
      <trkpt lat="45.74162" lon="4.76812">
        <ele>199.61</ele>
        <time>2020-05-18T11:01:54Z</time>
      </trkpt>
      <trkpt lat="45.74161" lon="4.76806">
        <ele>199.61</ele>
        <time>2020-05-18T11:01:55Z</time>
      </trkpt>
      <trkpt lat="45.74163" lon="4.76801">
        <ele>199.61</ele>
        <time>2020-05-18T11:01:56Z</time>
      </trkpt>
      <trkpt lat="45.74165" lon="4.76798">
        <ele>199.61</ele>
        <time>2020-05-18T11:01:57Z</time>
      </trkpt>
      <trkpt lat="45.74167" lon="4.76793">
        <ele>199.61</ele>
        <time>2020-05-18T11:01:58Z</time>
      </trkpt>
      <trkpt lat="45.74168" lon="4.76789">
        <ele>199.61</ele>
        <time>2020-05-18T11:01:59Z</time>
      </trkpt>
      <trkpt lat="45.74181" lon="4.76754">
        <ele>201.05</ele>
        <time>2020-05-18T11:02:07Z</time>
      </trkpt>
      <trkpt lat="45.74194" lon="4.76714">
        <ele>201.05</ele>
        <time>2020-05-18T11:02:15Z</time>
      </trkpt>
      <trkpt lat="45.74204" lon="4.7668">
        <ele>199.61</ele>
        <time>2020-05-18T11:02:20Z</time>
      </trkpt>
      <trkpt lat="45.74206" lon="4.76673">
        <ele>199.61</ele>
        <time>2020-05-18T11:02:21Z</time>
      </trkpt>
      <trkpt lat="45.74208" lon="4.76646">
        <ele>199.13</ele>
        <time>2020-05-18T11:02:25Z</time>
      </trkpt>
      <trkpt lat="45.74209" lon="4.76613">
        <ele>199.13</ele>
        <time>2020-05-18T11:02:30Z</time>
      </trkpt>
      <trkpt lat="45.74209" lon="4.76507">
        <ele>199.13</ele>
        <time>2020-05-18T11:02:48Z</time>
      </trkpt>
      <trkpt lat="45.74208" lon="4.76454">
        <ele>198.65</ele>
        <time>2020-05-18T11:03:00Z</time>
      </trkpt>
      <trkpt lat="45.74208" lon="4.76453">
        <ele>200.09</ele>
        <time>2020-05-18T11:03:02Z</time>
      </trkpt>
      <trkpt lat="45.74207" lon="4.7644">
        <ele>200.09</ele>
        <time>2020-05-18T11:03:13Z</time>
      </trkpt>
      <trkpt lat="45.74207" lon="4.76434">
        <ele>199.61</ele>
        <time>2020-05-18T11:03:27Z</time>
      </trkpt>
      <trkpt lat="45.74207" lon="4.76432">
        <ele>199.61</ele>
        <time>2020-05-18T11:03:40Z</time>
      </trkpt>
      <trkpt lat="45.74208" lon="4.76431">
        <ele>199.61</ele>
        <time>2020-05-18T11:03:41Z</time>
      </trkpt>
      <trkpt lat="45.74209" lon="4.76429">
        <ele>199.61</ele>
        <time>2020-05-18T11:03:42Z</time>
      </trkpt>
      <trkpt lat="45.7421" lon="4.76427">
        <ele>199.61</ele>
        <time>2020-05-18T11:03:43Z</time>
      </trkpt>
      <trkpt lat="45.74212" lon="4.76426">
        <ele>199.61</ele>
        <time>2020-05-18T11:03:44Z</time>
      </trkpt>
      <trkpt lat="45.74213" lon="4.76424">
        <ele>199.61</ele>
        <time>2020-05-18T11:03:45Z</time>
      </trkpt>
      <trkpt lat="45.74222" lon="4.76416">
        <ele>198.65</ele>
        <time>2020-05-18T11:03:49Z</time>
      </trkpt>
      <trkpt lat="45.7423" lon="4.76406">
        <ele>198.17</ele>
        <time>2020-05-18T11:03:57Z</time>
      </trkpt>
      <trkpt lat="45.74238" lon="4.76382">
        <ele>200.09</ele>
        <time>2020-05-18T11:04:09Z</time>
      </trkpt>
      <trkpt lat="45.7424" lon="4.7638">
        <ele>200.57</ele>
        <time>2020-05-18T11:04:11Z</time>
      </trkpt>
      <trkpt lat="45.74242" lon="4.7638">
        <ele>200.57</ele>
        <time>2020-05-18T11:04:12Z</time>
      </trkpt>
      <trkpt lat="45.74243" lon="4.7638">
        <ele>200.57</ele>
        <time>2020-05-18T11:04:13Z</time>
      </trkpt>
      <trkpt lat="45.74244" lon="4.76379">
        <ele>200.57</ele>
        <time>2020-05-18T11:04:14Z</time>
      </trkpt>
      <trkpt lat="45.74246" lon="4.76379">
        <ele>200.57</ele>
        <time>2020-05-18T11:04:15Z</time>
      </trkpt>
      <trkpt lat="45.74248" lon="4.7638">
        <ele>200.57</ele>
        <time>2020-05-18T11:04:16Z</time>
      </trkpt>
      <trkpt lat="45.7425" lon="4.7638">
        <ele>201.05</ele>
        <time>2020-05-18T11:04:17Z</time>
      </trkpt>
      <trkpt lat="45.74252" lon="4.7638">
        <ele>201.05</ele>
        <time>2020-05-18T11:04:18Z</time>
      </trkpt>
      <trkpt lat="45.74255" lon="4.76378">
        <ele>201.05</ele>
        <time>2020-05-18T11:04:19Z</time>
      </trkpt>
      <trkpt lat="45.74257" lon="4.76375">
        <ele>201.05</ele>
        <time>2020-05-18T11:04:20Z</time>
      </trkpt>
      <trkpt lat="45.74258" lon="4.76371">
        <ele>201.05</ele>
        <time>2020-05-18T11:04:21Z</time>
      </trkpt>
      <trkpt lat="45.74269" lon="4.76357">
        <ele>199.61</ele>
        <time>2020-05-18T11:04:26Z</time>
      </trkpt>
      <trkpt lat="45.743" lon="4.76333">
        <ele>199.61</ele>
        <time>2020-05-18T11:04:40Z</time>
      </trkpt>
      <trkpt lat="45.74332" lon="4.76306">
        <ele>199.61</ele>
        <time>2020-05-18T11:04:53Z</time>
      </trkpt>
      <trkpt lat="45.74376" lon="4.76257">
        <ele>201.05</ele>
        <time>2020-05-18T11:05:09Z</time>
      </trkpt>
      <trkpt lat="45.74386" lon="4.76227">
        <ele>202.01</ele>
        <time>2020-05-18T11:05:20Z</time>
      </trkpt>
      <trkpt lat="45.74384" lon="4.76225">
        <ele>202.01</ele>
        <time>2020-05-18T11:05:36Z</time>
      </trkpt>
      <trkpt lat="45.74386" lon="4.76225">
        <ele>201.53</ele>
        <time>2020-05-18T11:06:11Z</time>
      </trkpt>
      <trkpt lat="45.74385" lon="4.76229">
        <ele>202.01</ele>
        <time>2020-05-18T11:06:45Z</time>
      </trkpt>
      <trkpt lat="45.74381" lon="4.76226">
        <ele>202.01</ele>
        <time>2020-05-18T11:07:14Z</time>
      </trkpt>
      <trkpt lat="45.74382" lon="4.76229">
        <ele>202.01</ele>
        <time>2020-05-18T11:07:44Z</time>
      </trkpt>
      <trkpt lat="45.74386" lon="4.76234">
        <ele>201.53</ele>
        <time>2020-05-18T11:08:06Z</time>
      </trkpt>
      <trkpt lat="45.74385" lon="4.76225">
        <ele>201.53</ele>
        <time>2020-05-18T11:08:37Z</time>
      </trkpt>
      <trkpt lat="45.74385" lon="4.76224">
        <ele>201.53</ele>
        <time>2020-05-18T11:09:01Z</time>
      </trkpt>
      <trkpt lat="45.74385" lon="4.76214">
        <ele>201.53</ele>
        <time>2020-05-18T11:09:24Z</time>
      </trkpt>
      <trkpt lat="45.74371" lon="4.76165">
        <ele>202.01</ele>
        <time>2020-05-18T11:09:38Z</time>
      </trkpt>
      <trkpt lat="45.74361" lon="4.76113">
        <ele>202.01</ele>
        <time>2020-05-18T11:09:52Z</time>
      </trkpt>
      <trkpt lat="45.74362" lon="4.7607">
        <ele>202.49</ele>
        <time>2020-05-18T11:10:03Z</time>
      </trkpt>
      <trkpt lat="45.7436" lon="4.76015">
        <ele>202.98</ele>
        <time>2020-05-18T11:10:15Z</time>
      </trkpt>
      <trkpt lat="45.74367" lon="4.75986">
        <ele>203.46</ele>
        <time>2020-05-18T11:10:22Z</time>
      </trkpt>
      <trkpt lat="45.74369" lon="4.75979">
        <ele>203.46</ele>
        <time>2020-05-18T11:10:24Z</time>
      </trkpt>
      <trkpt lat="45.74379" lon="4.75929">
        <ele>203.46</ele>
        <time>2020-05-18T11:10:36Z</time>
      </trkpt>
      <trkpt lat="45.74381" lon="4.75879">
        <ele>203.94</ele>
        <time>2020-05-18T11:10:47Z</time>
      </trkpt>
      <trkpt lat="45.74376" lon="4.75828">
        <ele>204.42</ele>
        <time>2020-05-18T11:10:59Z</time>
      </trkpt>
      <trkpt lat="45.74356" lon="4.75775">
        <ele>204.9</ele>
        <time>2020-05-18T11:11:11Z</time>
      </trkpt>
      <trkpt lat="45.74344" lon="4.75734">
        <ele>205.86</ele>
        <time>2020-05-18T11:11:22Z</time>
      </trkpt>
      <trkpt lat="45.74334" lon="4.75681">
        <ele>206.82</ele>
        <time>2020-05-18T11:11:35Z</time>
      </trkpt>
      <trkpt lat="45.74332" lon="4.75636">
        <ele>206.82</ele>
        <time>2020-05-18T11:11:45Z</time>
      </trkpt>
      <trkpt lat="45.74322" lon="4.75584">
        <ele>206.82</ele>
        <time>2020-05-18T11:11:56Z</time>
      </trkpt>
      <trkpt lat="45.74322" lon="4.75578">
        <ele>207.3</ele>
        <time>2020-05-18T11:11:59Z</time>
      </trkpt>
      <trkpt lat="45.74322" lon="4.75575">
        <ele>207.3</ele>
        <time>2020-05-18T11:12:00Z</time>
      </trkpt>
      <trkpt lat="45.74322" lon="4.75566">
        <ele>207.3</ele>
        <time>2020-05-18T11:12:03Z</time>
      </trkpt>
      <trkpt lat="45.7432" lon="4.75564">
        <ele>207.3</ele>
        <time>2020-05-18T11:12:04Z</time>
      </trkpt>
      <trkpt lat="45.74318" lon="4.75561">
        <ele>207.3</ele>
        <time>2020-05-18T11:12:05Z</time>
      </trkpt>
      <trkpt lat="45.74306" lon="4.75546">
        <ele>207.78</ele>
        <time>2020-05-18T11:12:10Z</time>
      </trkpt>
      <trkpt lat="45.74279" lon="4.75533">
        <ele>207.78</ele>
        <time>2020-05-18T11:12:21Z</time>
      </trkpt>
      <trkpt lat="45.74249" lon="4.75532">
        <ele>208.74</ele>
        <time>2020-05-18T11:12:32Z</time>
      </trkpt>
      <trkpt lat="45.74221" lon="4.75512">
        <ele>209.22</ele>
        <time>2020-05-18T11:12:43Z</time>
      </trkpt>
      <trkpt lat="45.74194" lon="4.7547">
        <ele>211.15</ele>
        <time>2020-05-18T11:12:55Z</time>
      </trkpt>
      <trkpt lat="45.74186" lon="4.75452">
        <ele>211.63</ele>
        <time>2020-05-18T11:13:07Z</time>
      </trkpt>
      <trkpt lat="45.74185" lon="4.75446">
        <ele>211.63</ele>
        <time>2020-05-18T11:13:20Z</time>
      </trkpt>
      <trkpt lat="45.74183" lon="4.75442">
        <ele>211.63</ele>
        <time>2020-05-18T11:13:28Z</time>
      </trkpt>
      <trkpt lat="45.74184" lon="4.7544">
        <ele>211.63</ele>
        <time>2020-05-18T11:13:29Z</time>
      </trkpt>
      <trkpt lat="45.74186" lon="4.75437">
        <ele>211.63</ele>
        <time>2020-05-18T11:13:30Z</time>
      </trkpt>
      <trkpt lat="45.74187" lon="4.75434">
        <ele>211.63</ele>
        <time>2020-05-18T11:13:31Z</time>
      </trkpt>
      <trkpt lat="45.74188" lon="4.7543">
        <ele>211.63</ele>
        <time>2020-05-18T11:13:32Z</time>
      </trkpt>
      <trkpt lat="45.7419" lon="4.75426">
        <ele>211.63</ele>
        <time>2020-05-18T11:13:33Z</time>
      </trkpt>
      <trkpt lat="45.74196" lon="4.75411">
        <ele>211.63</ele>
        <time>2020-05-18T11:13:36Z</time>
      </trkpt>
      <trkpt lat="45.74197" lon="4.75405">
        <ele>211.63</ele>
        <time>2020-05-18T11:13:37Z</time>
      </trkpt>
      <trkpt lat="45.74196" lon="4.754">
        <ele>211.63</ele>
        <time>2020-05-18T11:13:38Z</time>
      </trkpt>
      <trkpt lat="45.74184" lon="4.75392">
        <ele>209.7</ele>
        <time>2020-05-18T11:13:41Z</time>
      </trkpt>
      <trkpt lat="45.74181" lon="4.75385">
        <ele>209.22</ele>
        <time>2020-05-18T11:13:42Z</time>
      </trkpt>
      <trkpt lat="45.74166" lon="4.75334">
        <ele>209.22</ele>
        <time>2020-05-18T11:13:50Z</time>
      </trkpt>
      <trkpt lat="45.74159" lon="4.75312">
        <ele>210.67</ele>
        <time>2020-05-18T11:13:54Z</time>
      </trkpt>
      <trkpt lat="45.74156" lon="4.75269">
        <ele>211.63</ele>
        <time>2020-05-18T11:14:02Z</time>
      </trkpt>
      <trkpt lat="45.74145" lon="4.75246">
        <ele>212.11</ele>
        <time>2020-05-18T11:14:07Z</time>
      </trkpt>
      <trkpt lat="45.74141" lon="4.75233">
        <ele>212.11</ele>
        <time>2020-05-18T11:14:09Z</time>
      </trkpt>
      <trkpt lat="45.74137" lon="4.7522">
        <ele>210.67</ele>
        <time>2020-05-18T11:14:11Z</time>
      </trkpt>
      <trkpt lat="45.74134" lon="4.75207">
        <ele>210.67</ele>
        <time>2020-05-18T11:14:13Z</time>
      </trkpt>
      <trkpt lat="45.74121" lon="4.75172">
        <ele>210.67</ele>
        <time>2020-05-18T11:14:19Z</time>
      </trkpt>
      <trkpt lat="45.74125" lon="4.75132">
        <ele>212.11</ele>
        <time>2020-05-18T11:14:26Z</time>
      </trkpt>
      <trkpt lat="45.74137" lon="4.75075">
        <ele>212.59</ele>
        <time>2020-05-18T11:14:37Z</time>
      </trkpt>
      <trkpt lat="45.74146" lon="4.75011">
        <ele>213.55</ele>
        <time>2020-05-18T11:14:49Z</time>
      </trkpt>
      <trkpt lat="45.74146" lon="4.75007">
        <ele>213.55</ele>
        <time>2020-05-18T11:14:50Z</time>
      </trkpt>
      <trkpt lat="45.74142" lon="4.74996">
        <ele>212.11</ele>
        <time>2020-05-18T11:14:56Z</time>
      </trkpt>
      <trkpt lat="45.74146" lon="4.74989">
        <ele>211.63</ele>
        <time>2020-05-18T11:15:02Z</time>
      </trkpt>
      <trkpt lat="45.74149" lon="4.74988">
        <ele>212.59</ele>
        <time>2020-05-18T11:15:04Z</time>
      </trkpt>
      <trkpt lat="45.74152" lon="4.74993">
        <ele>213.55</ele>
        <time>2020-05-18T11:15:08Z</time>
      </trkpt>
      <trkpt lat="45.74156" lon="4.74996">
        <ele>214.03</ele>
        <time>2020-05-18T11:15:23Z</time>
      </trkpt>
      <trkpt lat="45.74161" lon="4.74996">
        <ele>214.03</ele>
        <time>2020-05-18T11:15:42Z</time>
      </trkpt>
      <trkpt lat="45.74157" lon="4.74996">
        <ele>214.03</ele>
        <time>2020-05-18T11:16:10Z</time>
      </trkpt>
      <trkpt lat="45.74158" lon="4.74995">
        <ele>214.51</ele>
        <time>2020-05-18T11:16:32Z</time>
      </trkpt>
      <trkpt lat="45.7416" lon="4.74986">
        <ele>213.07</ele>
        <time>2020-05-18T11:16:37Z</time>
      </trkpt>
      <trkpt lat="45.74172" lon="4.74974">
        <ele>214.03</ele>
        <time>2020-05-18T11:16:45Z</time>
      </trkpt>
      <trkpt lat="45.74177" lon="4.74964">
        <ele>214.03</ele>
        <time>2020-05-18T11:16:48Z</time>
      </trkpt>
      <trkpt lat="45.74192" lon="4.74948">
        <ele>212.59</ele>
        <time>2020-05-18T11:16:56Z</time>
      </trkpt>
      <trkpt lat="45.74204" lon="4.74942">
        <ele>214.03</ele>
        <time>2020-05-18T11:17:03Z</time>
      </trkpt>
      <trkpt lat="45.74207" lon="4.7494">
        <ele>214.03</ele>
        <time>2020-05-18T11:17:05Z</time>
      </trkpt>
      <trkpt lat="45.74227" lon="4.74933">
        <ele>215.47</ele>
        <time>2020-05-18T11:17:20Z</time>
      </trkpt>
      <trkpt lat="45.74237" lon="4.74926">
        <ele>215.47</ele>
        <time>2020-05-18T11:17:42Z</time>
      </trkpt>
      <trkpt lat="45.74237" lon="4.74925">
        <ele>215.95</ele>
        <time>2020-05-18T11:18:02Z</time>
      </trkpt>
      <trkpt lat="45.74256" lon="4.7491">
        <ele>216.43</ele>
        <time>2020-05-18T11:18:16Z</time>
      </trkpt>
      <trkpt lat="45.74258" lon="4.74909">
        <ele>216.43</ele>
        <time>2020-05-18T11:18:17Z</time>
      </trkpt>
      <trkpt lat="45.7426" lon="4.74908">
        <ele>216.43</ele>
        <time>2020-05-18T11:18:18Z</time>
      </trkpt>
      <trkpt lat="45.74261" lon="4.74909">
        <ele>216.43</ele>
        <time>2020-05-18T11:18:19Z</time>
      </trkpt>
      <trkpt lat="45.74263" lon="4.74909">
        <ele>216.91</ele>
        <time>2020-05-18T11:18:20Z</time>
      </trkpt>
      <trkpt lat="45.74263" lon="4.74913">
        <ele>217.88</ele>
        <time>2020-05-18T11:18:24Z</time>
      </trkpt>
      <trkpt lat="45.74256" lon="4.74926">
        <ele>220.28</ele>
        <time>2020-05-18T11:18:34Z</time>
      </trkpt>
      <trkpt lat="45.74249" lon="4.74941">
        <ele>221.24</ele>
        <time>2020-05-18T11:18:45Z</time>
      </trkpt>
      <trkpt lat="45.7425" lon="4.74943">
        <ele>222.2</ele>
        <time>2020-05-18T11:18:47Z</time>
      </trkpt>
      <trkpt lat="45.7425" lon="4.74943">
        <ele>222.68</ele>
        <time>2020-05-18T11:18:48Z</time>
      </trkpt>
      <trkpt lat="45.74249" lon="4.74943">
        <ele>223.16</ele>
        <time>2020-05-18T11:18:50Z</time>
      </trkpt>
      <trkpt lat="45.74261" lon="4.74932">
        <ele>223.64</ele>
        <time>2020-05-18T11:19:01Z</time>
      </trkpt>
      <trkpt lat="45.74262" lon="4.74931">
        <ele>223.64</ele>
        <time>2020-05-18T11:19:02Z</time>
      </trkpt>
      <trkpt lat="45.74263" lon="4.74931">
        <ele>223.64</ele>
        <time>2020-05-18T11:19:03Z</time>
      </trkpt>
      <trkpt lat="45.74284" lon="4.74913">
        <ele>223.16</ele>
        <time>2020-05-18T11:19:16Z</time>
      </trkpt>
      <trkpt lat="45.74287" lon="4.74911">
        <ele>223.16</ele>
        <time>2020-05-18T11:19:17Z</time>
      </trkpt>
      <trkpt lat="45.74303" lon="4.74905">
        <ele>223.64</ele>
        <time>2020-05-18T11:19:21Z</time>
      </trkpt>
      <trkpt lat="45.74307" lon="4.74905">
        <ele>223.64</ele>
        <time>2020-05-18T11:19:22Z</time>
      </trkpt>
      <trkpt lat="45.74309" lon="4.74906">
        <ele>223.64</ele>
        <time>2020-05-18T11:19:23Z</time>
      </trkpt>
      <trkpt lat="45.74319" lon="4.7492">
        <ele>227.01</ele>
        <time>2020-05-18T11:19:32Z</time>
      </trkpt>
      <trkpt lat="45.74324" lon="4.74935">
        <ele>229.89</ele>
        <time>2020-05-18T11:19:39Z</time>
      </trkpt>
      <trkpt lat="45.74337" lon="4.74946">
        <ele>231.81</ele>
        <time>2020-05-18T11:19:53Z</time>
      </trkpt>
      <trkpt lat="45.74342" lon="4.7495">
        <ele>231.81</ele>
        <time>2020-05-18T11:19:58Z</time>
      </trkpt>
      <trkpt lat="45.74347" lon="4.74951">
        <ele>231.81</ele>
        <time>2020-05-18T11:20:02Z</time>
      </trkpt>
      <trkpt lat="45.74364" lon="4.74957">
        <ele>233.26</ele>
        <time>2020-05-18T11:20:16Z</time>
      </trkpt>
      <trkpt lat="45.74369" lon="4.74957">
        <ele>233.26</ele>
        <time>2020-05-18T11:20:35Z</time>
      </trkpt>
      <trkpt lat="45.74365" lon="4.74955">
        <ele>233.26</ele>
        <time>2020-05-18T11:20:38Z</time>
      </trkpt>
      <trkpt lat="45.74356" lon="4.74954">
        <ele>231.81</ele>
        <time>2020-05-18T11:20:41Z</time>
      </trkpt>
      <trkpt lat="45.74353" lon="4.74953">
        <ele>231.81</ele>
        <time>2020-05-18T11:20:42Z</time>
      </trkpt>
      <trkpt lat="45.7435" lon="4.74951">
        <ele>231.81</ele>
        <time>2020-05-18T11:20:43Z</time>
      </trkpt>
      <trkpt lat="45.74339" lon="4.74948">
        <ele>231.33</ele>
        <time>2020-05-18T11:20:53Z</time>
      </trkpt>
      <trkpt lat="45.74332" lon="4.7494">
        <ele>230.37</ele>
        <time>2020-05-18T11:20:58Z</time>
      </trkpt>
      <trkpt lat="45.74326" lon="4.74922">
        <ele>226.05</ele>
        <time>2020-05-18T11:21:03Z</time>
      </trkpt>
      <trkpt lat="45.74326" lon="4.7492">
        <ele>226.05</ele>
        <time>2020-05-18T11:21:04Z</time>
      </trkpt>
      <trkpt lat="45.74327" lon="4.74919">
        <ele>225.57</ele>
        <time>2020-05-18T11:21:06Z</time>
      </trkpt>
      <trkpt lat="45.74336" lon="4.74909">
        <ele>224.12</ele>
        <time>2020-05-18T11:21:14Z</time>
      </trkpt>
      <trkpt lat="45.74344" lon="4.74907">
        <ele>224.12</ele>
        <time>2020-05-18T11:21:22Z</time>
      </trkpt>
      <trkpt lat="45.74354" lon="4.74913">
        <ele>225.57</ele>
        <time>2020-05-18T11:21:28Z</time>
      </trkpt>
      <trkpt lat="45.74361" lon="4.74912">
        <ele>225.57</ele>
        <time>2020-05-18T11:21:34Z</time>
      </trkpt>
      <trkpt lat="45.74368" lon="4.74918">
        <ele>225.57</ele>
        <time>2020-05-18T11:21:38Z</time>
      </trkpt>
      <trkpt lat="45.74375" lon="4.74934">
        <ele>228.93</ele>
        <time>2020-05-18T11:21:46Z</time>
      </trkpt>
      <trkpt lat="45.74376" lon="4.74936">
        <ele>228.93</ele>
        <time>2020-05-18T11:21:47Z</time>
      </trkpt>
      <trkpt lat="45.74381" lon="4.74945">
        <ele>231.33</ele>
        <time>2020-05-18T11:21:58Z</time>
      </trkpt>
      <trkpt lat="45.74383" lon="4.74952">
        <ele>232.78</ele>
        <time>2020-05-18T11:22:14Z</time>
      </trkpt>
      <trkpt lat="45.74385" lon="4.74955">
        <ele>233.74</ele>
        <time>2020-05-18T11:22:26Z</time>
      </trkpt>
      <trkpt lat="45.74387" lon="4.74955">
        <ele>233.74</ele>
        <time>2020-05-18T11:22:46Z</time>
      </trkpt>
      <trkpt lat="45.74389" lon="4.74957">
        <ele>234.22</ele>
        <time>2020-05-18T11:23:05Z</time>
      </trkpt>
      <trkpt lat="45.74393" lon="4.74959">
        <ele>234.22</ele>
        <time>2020-05-18T11:23:08Z</time>
      </trkpt>
      <trkpt lat="45.74399" lon="4.74961">
        <ele>235.18</ele>
        <time>2020-05-18T11:23:12Z</time>
      </trkpt>
      <trkpt lat="45.74407" lon="4.74965">
        <ele>236.14</ele>
        <time>2020-05-18T11:23:19Z</time>
      </trkpt>
      <trkpt lat="45.7441" lon="4.74966">
        <ele>236.62</ele>
        <time>2020-05-18T11:23:21Z</time>
      </trkpt>
      <trkpt lat="45.74427" lon="4.7497">
        <ele>239.51</ele>
        <time>2020-05-18T11:23:33Z</time>
      </trkpt>
      <trkpt lat="45.74445" lon="4.74975">
        <ele>242.39</ele>
        <time>2020-05-18T11:23:46Z</time>
      </trkpt>
      <trkpt lat="45.74462" lon="4.74982">
        <ele>245.75</ele>
        <time>2020-05-18T11:24:01Z</time>
      </trkpt>
      <trkpt lat="45.74468" lon="4.74987">
        <ele>247.2</ele>
        <time>2020-05-18T11:24:05Z</time>
      </trkpt>
      <trkpt lat="45.74489" lon="4.74999">
        <ele>250.08</ele>
        <time>2020-05-18T11:24:17Z</time>
      </trkpt>
      <trkpt lat="45.74505" lon="4.75013">
        <ele>253.44</ele>
        <time>2020-05-18T11:24:30Z</time>
      </trkpt>
      <trkpt lat="45.7451" lon="4.75021">
        <ele>255.37</ele>
        <time>2020-05-18T11:24:36Z</time>
      </trkpt>
      <trkpt lat="45.74514" lon="4.75025">
        <ele>256.33</ele>
        <time>2020-05-18T11:24:39Z</time>
      </trkpt>
      <trkpt lat="45.74518" lon="4.75033">
        <ele>257.29</ele>
        <time>2020-05-18T11:24:43Z</time>
      </trkpt>
      <trkpt lat="45.74527" lon="4.75046">
        <ele>258.25</ele>
        <time>2020-05-18T11:24:51Z</time>
      </trkpt>
      <trkpt lat="45.74526" lon="4.75047">
        <ele>258.25</ele>
        <time>2020-05-18T11:25:01Z</time>
      </trkpt>
      <trkpt lat="45.74527" lon="4.75049">
        <ele>258.73</ele>
        <time>2020-05-18T11:25:24Z</time>
      </trkpt>
      <trkpt lat="45.74527" lon="4.75051">
        <ele>258.73</ele>
        <time>2020-05-18T11:25:53Z</time>
      </trkpt>
      <trkpt lat="45.74527" lon="4.75052">
        <ele>258.73</ele>
        <time>2020-05-18T11:25:55Z</time>
      </trkpt>
      <trkpt lat="45.74529" lon="4.75051">
        <ele>258.73</ele>
        <time>2020-05-18T11:26:05Z</time>
      </trkpt>
      <trkpt lat="45.7453" lon="4.75049">
        <ele>258.73</ele>
        <time>2020-05-18T11:26:19Z</time>
      </trkpt>
      <trkpt lat="45.7453" lon="4.75052">
        <ele>258.73</ele>
        <time>2020-05-18T11:26:38Z</time>
      </trkpt>
      <trkpt lat="45.7453" lon="4.7505">
        <ele>258.73</ele>
        <time>2020-05-18T11:26:56Z</time>
      </trkpt>
      <trkpt lat="45.74538" lon="4.75028">
        <ele>258.73</ele>
        <time>2020-05-18T11:27:10Z</time>
      </trkpt>
      <trkpt lat="45.74559" lon="4.74951">
        <ele>257.29</ele>
        <time>2020-05-18T11:27:26Z</time>
      </trkpt>
      <trkpt lat="45.74581" lon="4.74846">
        <ele>255.37</ele>
        <time>2020-05-18T11:27:40Z</time>
      </trkpt>
      <trkpt lat="45.74582" lon="4.74818">
        <ele>255.37</ele>
        <time>2020-05-18T11:27:44Z</time>
      </trkpt>
      <trkpt lat="45.74581" lon="4.74812">
        <ele>255.37</ele>
        <time>2020-05-18T11:27:45Z</time>
      </trkpt>
      <trkpt lat="45.74578" lon="4.74808">
        <ele>255.37</ele>
        <time>2020-05-18T11:27:46Z</time>
      </trkpt>
      <trkpt lat="45.74576" lon="4.74804">
        <ele>255.37</ele>
        <time>2020-05-18T11:27:47Z</time>
      </trkpt>
      <trkpt lat="45.74572" lon="4.74799">
        <ele>254.41</ele>
        <time>2020-05-18T11:27:48Z</time>
      </trkpt>
      <trkpt lat="45.7456" lon="4.74777">
        <ele>251.52</ele>
        <time>2020-05-18T11:27:51Z</time>
      </trkpt>
      <trkpt lat="45.74556" lon="4.74769">
        <ele>251.04</ele>
        <time>2020-05-18T11:27:52Z</time>
      </trkpt>
      <trkpt lat="45.74552" lon="4.74763">
        <ele>251.04</ele>
        <time>2020-05-18T11:27:53Z</time>
      </trkpt>
      <trkpt lat="45.74544" lon="4.74751">
        <ele>250.56</ele>
        <time>2020-05-18T11:27:55Z</time>
      </trkpt>
      <trkpt lat="45.74538" lon="4.74739">
        <ele>250.08</ele>
        <time>2020-05-18T11:27:57Z</time>
      </trkpt>
      <trkpt lat="45.74536" lon="4.74732">
        <ele>250.08</ele>
        <time>2020-05-18T11:27:58Z</time>
      </trkpt>
      <trkpt lat="45.74534" lon="4.74725">
        <ele>250.08</ele>
        <time>2020-05-18T11:27:59Z</time>
      </trkpt>
      <trkpt lat="45.7453" lon="4.74696">
        <ele>250.08</ele>
        <time>2020-05-18T11:28:03Z</time>
      </trkpt>
      <trkpt lat="45.74529" lon="4.7469">
        <ele>250.08</ele>
        <time>2020-05-18T11:28:04Z</time>
      </trkpt>
      <trkpt lat="45.74524" lon="4.74665">
        <ele>250.08</ele>
        <time>2020-05-18T11:28:08Z</time>
      </trkpt>
      <trkpt lat="45.74522" lon="4.7466">
        <ele>250.08</ele>
        <time>2020-05-18T11:28:09Z</time>
      </trkpt>
      <trkpt lat="45.7452" lon="4.74655">
        <ele>250.08</ele>
        <time>2020-05-18T11:28:10Z</time>
      </trkpt>
      <trkpt lat="45.74518" lon="4.74651">
        <ele>251.04</ele>
        <time>2020-05-18T11:28:11Z</time>
      </trkpt>
      <trkpt lat="45.74515" lon="4.74647">
        <ele>251.04</ele>
        <time>2020-05-18T11:28:12Z</time>
      </trkpt>
      <trkpt lat="45.74513" lon="4.74643">
        <ele>251.04</ele>
        <time>2020-05-18T11:28:13Z</time>
      </trkpt>
      <trkpt lat="45.7451" lon="4.74639">
        <ele>251.04</ele>
        <time>2020-05-18T11:28:14Z</time>
      </trkpt>
      <trkpt lat="45.74492" lon="4.74607">
        <ele>251.04</ele>
        <time>2020-05-18T11:28:22Z</time>
      </trkpt>
      <trkpt lat="45.74489" lon="4.74601">
        <ele>250.56</ele>
        <time>2020-05-18T11:28:23Z</time>
      </trkpt>
      <trkpt lat="45.74487" lon="4.74593">
        <ele>250.56</ele>
        <time>2020-05-18T11:28:24Z</time>
      </trkpt>
      <trkpt lat="45.7448" lon="4.74568">
        <ele>248.64</ele>
        <time>2020-05-18T11:28:27Z</time>
      </trkpt>
      <trkpt lat="45.74478" lon="4.74559">
        <ele>248.64</ele>
        <time>2020-05-18T11:28:28Z</time>
      </trkpt>
      <trkpt lat="45.74475" lon="4.74549">
        <ele>248.16</ele>
        <time>2020-05-18T11:28:29Z</time>
      </trkpt>
      <trkpt lat="45.74473" lon="4.74538">
        <ele>248.16</ele>
        <time>2020-05-18T11:28:30Z</time>
      </trkpt>
      <trkpt lat="45.74471" lon="4.74527">
        <ele>246.72</ele>
        <time>2020-05-18T11:28:31Z</time>
      </trkpt>
      <trkpt lat="45.74469" lon="4.74516">
        <ele>245.75</ele>
        <time>2020-05-18T11:28:32Z</time>
      </trkpt>
      <trkpt lat="45.74464" lon="4.74485">
        <ele>244.31</ele>
        <time>2020-05-18T11:28:35Z</time>
      </trkpt>
      <trkpt lat="45.74463" lon="4.74477">
        <ele>243.35</ele>
        <time>2020-05-18T11:28:36Z</time>
      </trkpt>
      <trkpt lat="45.7446" lon="4.74455">
        <ele>240.47</ele>
        <time>2020-05-18T11:28:39Z</time>
      </trkpt>
      <trkpt lat="45.74455" lon="4.74427">
        <ele>236.62</ele>
        <time>2020-05-18T11:28:43Z</time>
      </trkpt>
      <trkpt lat="45.74454" lon="4.74422">
        <ele>236.62</ele>
        <time>2020-05-18T11:28:44Z</time>
      </trkpt>
      <trkpt lat="45.74447" lon="4.74406">
        <ele>234.22</ele>
        <time>2020-05-18T11:28:48Z</time>
      </trkpt>
      <trkpt lat="45.74444" lon="4.74404">
        <ele>234.22</ele>
        <time>2020-05-18T11:28:49Z</time>
      </trkpt>
      <trkpt lat="45.7444" lon="4.74401">
        <ele>233.26</ele>
        <time>2020-05-18T11:28:50Z</time>
      </trkpt>
      <trkpt lat="45.74436" lon="4.744">
        <ele>233.26</ele>
        <time>2020-05-18T11:28:51Z</time>
      </trkpt>
      <trkpt lat="45.74431" lon="4.74398">
        <ele>232.78</ele>
        <time>2020-05-18T11:28:52Z</time>
      </trkpt>
      <trkpt lat="45.74427" lon="4.74395">
        <ele>231.81</ele>
        <time>2020-05-18T11:28:53Z</time>
      </trkpt>
      <trkpt lat="45.74422" lon="4.74392">
        <ele>231.81</ele>
        <time>2020-05-18T11:28:54Z</time>
      </trkpt>
      <trkpt lat="45.74417" lon="4.74388">
        <ele>230.85</ele>
        <time>2020-05-18T11:28:55Z</time>
      </trkpt>
      <trkpt lat="45.74413" lon="4.74385">
        <ele>230.85</ele>
        <time>2020-05-18T11:28:56Z</time>
      </trkpt>
      <trkpt lat="45.74409" lon="4.74382">
        <ele>230.37</ele>
        <time>2020-05-18T11:28:57Z</time>
      </trkpt>
      <trkpt lat="45.74405" lon="4.74379">
        <ele>230.37</ele>
        <time>2020-05-18T11:28:58Z</time>
      </trkpt>
      <trkpt lat="45.74384" lon="4.7436">
        <ele>229.41</ele>
        <time>2020-05-18T11:29:07Z</time>
      </trkpt>
      <trkpt lat="45.74376" lon="4.7436">
        <ele>228.93</ele>
        <time>2020-05-18T11:29:26Z</time>
      </trkpt>
      <trkpt lat="45.74374" lon="4.74359">
        <ele>229.41</ele>
        <time>2020-05-18T11:29:56Z</time>
      </trkpt>
      <trkpt lat="45.74374" lon="4.74352">
        <ele>229.41</ele>
        <time>2020-05-18T11:30:23Z</time>
      </trkpt>
      <trkpt lat="45.74373" lon="4.74349">
        <ele>229.89</ele>
        <time>2020-05-18T11:30:25Z</time>
      </trkpt>
      <trkpt lat="45.74372" lon="4.74347">
        <ele>229.89</ele>
        <time>2020-05-18T11:30:26Z</time>
      </trkpt>
      <trkpt lat="45.74371" lon="4.74345">
        <ele>229.89</ele>
        <time>2020-05-18T11:30:27Z</time>
      </trkpt>
      <trkpt lat="45.74349" lon="4.74308">
        <ele>229.41</ele>
        <time>2020-05-18T11:30:38Z</time>
      </trkpt>
      <trkpt lat="45.74333" lon="4.74281">
        <ele>228.93</ele>
        <time>2020-05-18T11:30:47Z</time>
      </trkpt>
      <trkpt lat="45.74322" lon="4.74253">
        <ele>228.93</ele>
        <time>2020-05-18T11:30:58Z</time>
      </trkpt>
      <trkpt lat="45.74324" lon="4.74201">
        <ele>228.93</ele>
        <time>2020-05-18T11:31:08Z</time>
      </trkpt>
      <trkpt lat="45.74323" lon="4.74183">
        <ele>228.93</ele>
        <time>2020-05-18T11:31:11Z</time>
      </trkpt>
      <trkpt lat="45.74321" lon="4.74151">
        <ele>229.89</ele>
        <time>2020-05-18T11:31:16Z</time>
      </trkpt>
      <trkpt lat="45.74318" lon="4.74131">
        <ele>230.37</ele>
        <time>2020-05-18T11:31:19Z</time>
      </trkpt>
      <trkpt lat="45.74317" lon="4.74121">
        <ele>230.37</ele>
        <time>2020-05-18T11:31:20Z</time>
      </trkpt>
      <trkpt lat="45.74315" lon="4.74113">
        <ele>230.37</ele>
        <time>2020-05-18T11:31:21Z</time>
      </trkpt>
      <trkpt lat="45.74304" lon="4.74072">
        <ele>230.37</ele>
        <time>2020-05-18T11:31:27Z</time>
      </trkpt>
      <trkpt lat="45.74302" lon="4.74067">
        <ele>230.37</ele>
        <time>2020-05-18T11:31:28Z</time>
      </trkpt>
      <trkpt lat="45.74301" lon="4.74061">
        <ele>230.37</ele>
        <time>2020-05-18T11:31:29Z</time>
      </trkpt>
      <trkpt lat="45.74298" lon="4.74055">
        <ele>230.37</ele>
        <time>2020-05-18T11:31:30Z</time>
      </trkpt>
      <trkpt lat="45.74296" lon="4.7405">
        <ele>230.37</ele>
        <time>2020-05-18T11:31:31Z</time>
      </trkpt>
      <trkpt lat="45.7428" lon="4.74014">
        <ele>230.37</ele>
        <time>2020-05-18T11:31:38Z</time>
      </trkpt>
      <trkpt lat="45.74256" lon="4.73977">
        <ele>230.37</ele>
        <time>2020-05-18T11:31:48Z</time>
      </trkpt>
      <trkpt lat="45.74239" lon="4.73962">
        <ele>230.85</ele>
        <time>2020-05-18T11:31:58Z</time>
      </trkpt>
      <trkpt lat="45.74222" lon="4.73939">
        <ele>231.33</ele>
        <time>2020-05-18T11:32:10Z</time>
      </trkpt>
      <trkpt lat="45.74209" lon="4.73885">
        <ele>231.81</ele>
        <time>2020-05-18T11:32:23Z</time>
      </trkpt>
      <trkpt lat="45.74197" lon="4.73853">
        <ele>231.81</ele>
        <time>2020-05-18T11:32:30Z</time>
      </trkpt>
      <trkpt lat="45.74166" lon="4.73768">
        <ele>232.78</ele>
        <time>2020-05-18T11:32:47Z</time>
      </trkpt>
      <trkpt lat="45.74157" lon="4.73725">
        <ele>233.26</ele>
        <time>2020-05-18T11:32:56Z</time>
      </trkpt>
      <trkpt lat="45.74158" lon="4.73722">
        <ele>233.26</ele>
        <time>2020-05-18T11:32:57Z</time>
      </trkpt>
      <trkpt lat="45.74178" lon="4.73691">
        <ele>235.66</ele>
        <time>2020-05-18T11:33:10Z</time>
      </trkpt>
      <trkpt lat="45.74184" lon="4.73682">
        <ele>236.62</ele>
        <time>2020-05-18T11:33:14Z</time>
      </trkpt>
      <trkpt lat="45.74185" lon="4.73679">
        <ele>237.1</ele>
        <time>2020-05-18T11:33:15Z</time>
      </trkpt>
      <trkpt lat="45.74185" lon="4.73676">
        <ele>237.1</ele>
        <time>2020-05-18T11:33:16Z</time>
      </trkpt>
      <trkpt lat="45.74184" lon="4.73672">
        <ele>237.1</ele>
        <time>2020-05-18T11:33:17Z</time>
      </trkpt>
      <trkpt lat="45.74184" lon="4.73668">
        <ele>237.1</ele>
        <time>2020-05-18T11:33:18Z</time>
      </trkpt>
      <trkpt lat="45.74183" lon="4.73636">
        <ele>237.1</ele>
        <time>2020-05-18T11:33:25Z</time>
      </trkpt>
      <trkpt lat="45.74181" lon="4.73614">
        <ele>236.14</ele>
        <time>2020-05-18T11:33:28Z</time>
      </trkpt>
      <trkpt lat="45.74182" lon="4.7358">
        <ele>234.7</ele>
        <time>2020-05-18T11:33:32Z</time>
      </trkpt>
      <trkpt lat="45.74197" lon="4.7352">
        <ele>232.78</ele>
        <time>2020-05-18T11:33:39Z</time>
      </trkpt>
      <trkpt lat="45.74209" lon="4.73493">
        <ele>234.22</ele>
        <time>2020-05-18T11:33:43Z</time>
      </trkpt>
      <trkpt lat="45.74217" lon="4.73464">
        <ele>232.78</ele>
        <time>2020-05-18T11:33:47Z</time>
      </trkpt>
      <trkpt lat="45.74219" lon="4.73447">
        <ele>232.78</ele>
        <time>2020-05-18T11:33:49Z</time>
      </trkpt>
      <trkpt lat="45.74218" lon="4.73423">
        <ele>235.66</ele>
        <time>2020-05-18T11:33:54Z</time>
      </trkpt>
      <trkpt lat="45.74208" lon="4.73377">
        <ele>235.66</ele>
        <time>2020-05-18T11:34:05Z</time>
      </trkpt>
      <trkpt lat="45.74205" lon="4.73358">
        <ele>235.66</ele>
        <time>2020-05-18T11:34:11Z</time>
      </trkpt>
      <trkpt lat="45.74202" lon="4.73348">
        <ele>236.14</ele>
        <time>2020-05-18T11:34:16Z</time>
      </trkpt>
      <trkpt lat="45.74198" lon="4.73334">
        <ele>235.18</ele>
        <time>2020-05-18T11:34:22Z</time>
      </trkpt>
      <trkpt lat="45.74192" lon="4.73315">
        <ele>235.18</ele>
        <time>2020-05-18T11:34:29Z</time>
      </trkpt>
      <trkpt lat="45.74183" lon="4.73288">
        <ele>235.18</ele>
        <time>2020-05-18T11:34:40Z</time>
      </trkpt>
      <trkpt lat="45.74181" lon="4.73286">
        <ele>235.18</ele>
        <time>2020-05-18T11:34:41Z</time>
      </trkpt>
      <trkpt lat="45.74176" lon="4.73277">
        <ele>235.18</ele>
        <time>2020-05-18T11:34:45Z</time>
      </trkpt>
      <trkpt lat="45.7417" lon="4.73266">
        <ele>233.74</ele>
        <time>2020-05-18T11:34:50Z</time>
      </trkpt>
      <trkpt lat="45.7416" lon="4.7326">
        <ele>231.81</ele>
        <time>2020-05-18T11:35:01Z</time>
      </trkpt>
      <trkpt lat="45.74159" lon="4.73254">
        <ele>231.81</ele>
        <time>2020-05-18T11:35:21Z</time>
      </trkpt>
      <trkpt lat="45.74161" lon="4.73254">
        <ele>231.81</ele>
        <time>2020-05-18T11:35:35Z</time>
      </trkpt>
      <trkpt lat="45.74163" lon="4.73252">
        <ele>233.26</ele>
        <time>2020-05-18T11:35:42Z</time>
      </trkpt>
      <trkpt lat="45.74164" lon="4.73252">
        <ele>233.74</ele>
        <time>2020-05-18T11:36:04Z</time>
      </trkpt>
      <trkpt lat="45.74161" lon="4.73253">
        <ele>233.74</ele>
        <time>2020-05-18T11:36:19Z</time>
      </trkpt>
      <trkpt lat="45.74159" lon="4.73253">
        <ele>232.3</ele>
        <time>2020-05-18T11:36:22Z</time>
      </trkpt>
      <trkpt lat="45.74153" lon="4.7325">
        <ele>231.81</ele>
        <time>2020-05-18T11:36:34Z</time>
      </trkpt>
      <trkpt lat="45.74147" lon="4.73253">
        <ele>231.81</ele>
        <time>2020-05-18T11:36:47Z</time>
      </trkpt>
      <trkpt lat="45.74145" lon="4.7325">
        <ele>231.81</ele>
        <time>2020-05-18T11:37:17Z</time>
      </trkpt>
      <trkpt lat="45.74145" lon="4.7325">
        <ele>231.81</ele>
        <time>2020-05-18T11:37:47Z</time>
      </trkpt>
      <trkpt lat="45.74141" lon="4.7324">
        <ele>235.18</ele>
        <time>2020-05-18T11:38:02Z</time>
      </trkpt>
      <trkpt lat="45.74138" lon="4.73239">
        <ele>234.7</ele>
        <time>2020-05-18T11:38:13Z</time>
      </trkpt>
      <trkpt lat="45.74128" lon="4.73209">
        <ele>237.1</ele>
        <time>2020-05-18T11:38:28Z</time>
      </trkpt>
      <trkpt lat="45.74127" lon="4.73203">
        <ele>237.58</ele>
        <time>2020-05-18T11:38:31Z</time>
      </trkpt>
      <trkpt lat="45.74125" lon="4.732">
        <ele>238.06</ele>
        <time>2020-05-18T11:38:33Z</time>
      </trkpt>
      <trkpt lat="45.74113" lon="4.73177">
        <ele>239.99</ele>
        <time>2020-05-18T11:38:49Z</time>
      </trkpt>
      <trkpt lat="45.741" lon="4.73164">
        <ele>241.91</ele>
        <time>2020-05-18T11:39:06Z</time>
      </trkpt>
      <trkpt lat="45.74095" lon="4.73162">
        <ele>241.43</ele>
        <time>2020-05-18T11:39:27Z</time>
      </trkpt>
      <trkpt lat="45.74082" lon="4.73159">
        <ele>239.51</ele>
        <time>2020-05-18T11:39:30Z</time>
      </trkpt>
      <trkpt lat="45.7406" lon="4.73162">
        <ele>238.54</ele>
        <time>2020-05-18T11:39:35Z</time>
      </trkpt>
      <trkpt lat="45.74041" lon="4.73168">
        <ele>236.62</ele>
        <time>2020-05-18T11:39:39Z</time>
      </trkpt>
      <trkpt lat="45.7402" lon="4.73175">
        <ele>235.66</ele>
        <time>2020-05-18T11:39:45Z</time>
      </trkpt>
      <trkpt lat="45.73994" lon="4.73188">
        <ele>234.7</ele>
        <time>2020-05-18T11:39:50Z</time>
      </trkpt>
      <trkpt lat="45.73985" lon="4.73199">
        <ele>233.74</ele>
        <time>2020-05-18T11:39:52Z</time>
      </trkpt>
      <trkpt lat="45.73972" lon="4.73207">
        <ele>233.74</ele>
        <time>2020-05-18T11:39:55Z</time>
      </trkpt>
      <trkpt lat="45.73955" lon="4.73221">
        <ele>233.74</ele>
        <time>2020-05-18T11:39:59Z</time>
      </trkpt>
      <trkpt lat="45.73932" lon="4.73256">
        <ele>234.7</ele>
        <time>2020-05-18T11:40:08Z</time>
      </trkpt>
      <trkpt lat="45.73916" lon="4.73262">
        <ele>235.18</ele>
        <time>2020-05-18T11:40:12Z</time>
      </trkpt>
      <trkpt lat="45.73912" lon="4.73267">
        <ele>235.18</ele>
        <time>2020-05-18T11:40:13Z</time>
      </trkpt>
      <trkpt lat="45.73909" lon="4.73271">
        <ele>235.18</ele>
        <time>2020-05-18T11:40:14Z</time>
      </trkpt>
      <trkpt lat="45.73879" lon="4.73292">
        <ele>235.66</ele>
        <time>2020-05-18T11:40:23Z</time>
      </trkpt>
      <trkpt lat="45.73855" lon="4.73282">
        <ele>236.14</ele>
        <time>2020-05-18T11:40:33Z</time>
      </trkpt>
      <trkpt lat="45.73836" lon="4.7327">
        <ele>236.62</ele>
        <time>2020-05-18T11:40:45Z</time>
      </trkpt>
      <trkpt lat="45.73834" lon="4.73269">
        <ele>236.62</ele>
        <time>2020-05-18T11:40:46Z</time>
      </trkpt>
      <trkpt lat="45.73831" lon="4.73267">
        <ele>236.62</ele>
        <time>2020-05-18T11:40:47Z</time>
      </trkpt>
      <trkpt lat="45.73827" lon="4.73262">
        <ele>236.62</ele>
        <time>2020-05-18T11:40:50Z</time>
      </trkpt>
      <trkpt lat="45.73824" lon="4.73256">
        <ele>236.62</ele>
        <time>2020-05-18T11:40:55Z</time>
      </trkpt>
      <trkpt lat="45.73823" lon="4.73257">
        <ele>236.62</ele>
        <time>2020-05-18T11:40:56Z</time>
      </trkpt>
      <trkpt lat="45.73822" lon="4.73253">
        <ele>237.1</ele>
        <time>2020-05-18T11:41:02Z</time>
      </trkpt>
      <trkpt lat="45.73806" lon="4.73209">
        <ele>237.58</ele>
        <time>2020-05-18T11:41:12Z</time>
      </trkpt>
      <trkpt lat="45.738" lon="4.73189">
        <ele>237.58</ele>
        <time>2020-05-18T11:41:15Z</time>
      </trkpt>
      <trkpt lat="45.73798" lon="4.73182">
        <ele>237.58</ele>
        <time>2020-05-18T11:41:16Z</time>
      </trkpt>
      <trkpt lat="45.73797" lon="4.73175">
        <ele>237.58</ele>
        <time>2020-05-18T11:41:17Z</time>
      </trkpt>
      <trkpt lat="45.73797" lon="4.73168">
        <ele>237.58</ele>
        <time>2020-05-18T11:41:18Z</time>
      </trkpt>
      <trkpt lat="45.73798" lon="4.73161">
        <ele>237.58</ele>
        <time>2020-05-18T11:41:19Z</time>
      </trkpt>
      <trkpt lat="45.73798" lon="4.73104">
        <ele>238.54</ele>
        <time>2020-05-18T11:41:30Z</time>
      </trkpt>
      <trkpt lat="45.73797" lon="4.73036">
        <ele>240.47</ele>
        <time>2020-05-18T11:41:45Z</time>
      </trkpt>
      <trkpt lat="45.73801" lon="4.72991">
        <ele>241.43</ele>
        <time>2020-05-18T11:42:01Z</time>
      </trkpt>
      <trkpt lat="45.73801" lon="4.7299">
        <ele>241.43</ele>
        <time>2020-05-18T11:42:02Z</time>
      </trkpt>
      <trkpt lat="45.73801" lon="4.72987">
        <ele>241.43</ele>
        <time>2020-05-18T11:42:03Z</time>
      </trkpt>
      <trkpt lat="45.738" lon="4.72983">
        <ele>241.43</ele>
        <time>2020-05-18T11:42:04Z</time>
      </trkpt>
      <trkpt lat="45.738" lon="4.72979">
        <ele>241.43</ele>
        <time>2020-05-18T11:42:05Z</time>
      </trkpt>
      <trkpt lat="45.73801" lon="4.72975">
        <ele>241.43</ele>
        <time>2020-05-18T11:42:06Z</time>
      </trkpt>
      <trkpt lat="45.73805" lon="4.72914">
        <ele>241.91</ele>
        <time>2020-05-18T11:42:18Z</time>
      </trkpt>
      <trkpt lat="45.7381" lon="4.72885">
        <ele>241.91</ele>
        <time>2020-05-18T11:42:24Z</time>
      </trkpt>
      <trkpt lat="45.73808" lon="4.72879">
        <ele>241.91</ele>
        <time>2020-05-18T11:42:25Z</time>
      </trkpt>
      <trkpt lat="45.73807" lon="4.72874">
        <ele>241.91</ele>
        <time>2020-05-18T11:42:26Z</time>
      </trkpt>
      <trkpt lat="45.73806" lon="4.72868">
        <ele>241.91</ele>
        <time>2020-05-18T11:42:27Z</time>
      </trkpt>
      <trkpt lat="45.73807" lon="4.72863">
        <ele>241.91</ele>
        <time>2020-05-18T11:42:28Z</time>
      </trkpt>
      <trkpt lat="45.73807" lon="4.72858">
        <ele>241.91</ele>
        <time>2020-05-18T11:42:29Z</time>
      </trkpt>
      <trkpt lat="45.73809" lon="4.72853">
        <ele>241.91</ele>
        <time>2020-05-18T11:42:30Z</time>
      </trkpt>
      <trkpt lat="45.7381" lon="4.72823">
        <ele>241.91</ele>
        <time>2020-05-18T11:42:35Z</time>
      </trkpt>
      <trkpt lat="45.73809" lon="4.72816">
        <ele>240.47</ele>
        <time>2020-05-18T11:42:36Z</time>
      </trkpt>
      <trkpt lat="45.73804" lon="4.72781">
        <ele>239.51</ele>
        <time>2020-05-18T11:42:41Z</time>
      </trkpt>
      <trkpt lat="45.73801" lon="4.72756">
        <ele>239.51</ele>
        <time>2020-05-18T11:42:50Z</time>
      </trkpt>
      <trkpt lat="45.738" lon="4.72756">
        <ele>240.47</ele>
        <time>2020-05-18T11:42:52Z</time>
      </trkpt>
      <trkpt lat="45.73787" lon="4.7276">
        <ele>240.95</ele>
        <time>2020-05-18T11:43:06Z</time>
      </trkpt>
      <trkpt lat="45.73776" lon="4.72757">
        <ele>240.95</ele>
        <time>2020-05-18T11:43:20Z</time>
      </trkpt>
      <trkpt lat="45.73773" lon="4.72742">
        <ele>240.95</ele>
        <time>2020-05-18T11:43:32Z</time>
      </trkpt>
      <trkpt lat="45.73773" lon="4.7273">
        <ele>239.99</ele>
        <time>2020-05-18T11:43:44Z</time>
      </trkpt>
      <trkpt lat="45.73773" lon="4.72729">
        <ele>239.99</ele>
        <time>2020-05-18T11:43:45Z</time>
      </trkpt>
      <trkpt lat="45.7377" lon="4.72723">
        <ele>239.99</ele>
        <time>2020-05-18T11:43:54Z</time>
      </trkpt>
      <trkpt lat="45.73769" lon="4.72699">
        <ele>239.99</ele>
        <time>2020-05-18T11:44:03Z</time>
      </trkpt>
      <trkpt lat="45.73761" lon="4.72652">
        <ele>241.43</ele>
        <time>2020-05-18T11:44:16Z</time>
      </trkpt>
      <trkpt lat="45.73761" lon="4.72609">
        <ele>240.47</ele>
        <time>2020-05-18T11:44:26Z</time>
      </trkpt>
      <trkpt lat="45.73761" lon="4.72593">
        <ele>241.43</ele>
        <time>2020-05-18T11:44:30Z</time>
      </trkpt>
      <trkpt lat="45.73759" lon="4.72551">
        <ele>241.91</ele>
        <time>2020-05-18T11:44:42Z</time>
      </trkpt>
      <trkpt lat="45.73761" lon="4.72509">
        <ele>242.87</ele>
        <time>2020-05-18T11:44:53Z</time>
      </trkpt>
      <trkpt lat="45.73761" lon="4.72493">
        <ele>242.87</ele>
        <time>2020-05-18T11:44:57Z</time>
      </trkpt>
      <trkpt lat="45.73763" lon="4.72458">
        <ele>242.87</ele>
        <time>2020-05-18T11:45:09Z</time>
      </trkpt>
      <trkpt lat="45.73762" lon="4.7245">
        <ele>242.87</ele>
        <time>2020-05-18T11:45:20Z</time>
      </trkpt>
      <trkpt lat="45.73762" lon="4.72445">
        <ele>241.91</ele>
        <time>2020-05-18T11:45:40Z</time>
      </trkpt>
      <trkpt lat="45.7376" lon="4.72442">
        <ele>241.91</ele>
        <time>2020-05-18T11:45:54Z</time>
      </trkpt>
      <trkpt lat="45.73759" lon="4.72438">
        <ele>241.91</ele>
        <time>2020-05-18T11:46:10Z</time>
      </trkpt>
      <trkpt lat="45.73743" lon="4.72411">
        <ele>241.91</ele>
        <time>2020-05-18T11:46:22Z</time>
      </trkpt>
      <trkpt lat="45.73731" lon="4.72386">
        <ele>241.91</ele>
        <time>2020-05-18T11:46:31Z</time>
      </trkpt>
      <trkpt lat="45.73728" lon="4.72372">
        <ele>242.87</ele>
        <time>2020-05-18T11:46:35Z</time>
      </trkpt>
      <trkpt lat="45.73714" lon="4.72328">
        <ele>243.83</ele>
        <time>2020-05-18T11:46:49Z</time>
      </trkpt>
      <trkpt lat="45.73716" lon="4.72284">
        <ele>245.27</ele>
        <time>2020-05-18T11:47:02Z</time>
      </trkpt>
      <trkpt lat="45.73721" lon="4.72267">
        <ele>245.27</ele>
        <time>2020-05-18T11:47:08Z</time>
      </trkpt>
      <trkpt lat="45.73725" lon="4.72261">
        <ele>245.27</ele>
        <time>2020-05-18T11:47:11Z</time>
      </trkpt>
      <trkpt lat="45.73727" lon="4.72257">
        <ele>245.27</ele>
        <time>2020-05-18T11:47:12Z</time>
      </trkpt>
      <trkpt lat="45.73727" lon="4.72254">
        <ele>245.27</ele>
        <time>2020-05-18T11:47:13Z</time>
      </trkpt>
      <trkpt lat="45.73727" lon="4.72251">
        <ele>245.27</ele>
        <time>2020-05-18T11:47:14Z</time>
      </trkpt>
      <trkpt lat="45.73726" lon="4.72249">
        <ele>245.75</ele>
        <time>2020-05-18T11:47:15Z</time>
      </trkpt>
      <trkpt lat="45.73725" lon="4.72247">
        <ele>245.75</ele>
        <time>2020-05-18T11:47:16Z</time>
      </trkpt>
      <trkpt lat="45.73724" lon="4.72245">
        <ele>245.75</ele>
        <time>2020-05-18T11:47:17Z</time>
      </trkpt>
      <trkpt lat="45.7372" lon="4.72243">
        <ele>245.75</ele>
        <time>2020-05-18T11:47:20Z</time>
      </trkpt>
      <trkpt lat="45.73718" lon="4.72243">
        <ele>245.75</ele>
        <time>2020-05-18T11:47:21Z</time>
      </trkpt>
      <trkpt lat="45.73717" lon="4.72241">
        <ele>245.75</ele>
        <time>2020-05-18T11:47:22Z</time>
      </trkpt>
      <trkpt lat="45.73716" lon="4.7224">
        <ele>245.75</ele>
        <time>2020-05-18T11:47:23Z</time>
      </trkpt>
      <trkpt lat="45.73714" lon="4.72239">
        <ele>246.23</ele>
        <time>2020-05-18T11:47:24Z</time>
      </trkpt>
      <trkpt lat="45.73709" lon="4.7224">
        <ele>246.23</ele>
        <time>2020-05-18T11:47:28Z</time>
      </trkpt>
      <trkpt lat="45.73708" lon="4.72241">
        <ele>246.23</ele>
        <time>2020-05-18T11:47:29Z</time>
      </trkpt>
      <trkpt lat="45.73706" lon="4.72242">
        <ele>246.23</ele>
        <time>2020-05-18T11:47:30Z</time>
      </trkpt>
      <trkpt lat="45.73704" lon="4.72242">
        <ele>246.23</ele>
        <time>2020-05-18T11:47:31Z</time>
      </trkpt>
      <trkpt lat="45.73703" lon="4.72244">
        <ele>246.23</ele>
        <time>2020-05-18T11:47:32Z</time>
      </trkpt>
      <trkpt lat="45.73701" lon="4.72246">
        <ele>246.23</ele>
        <time>2020-05-18T11:47:33Z</time>
      </trkpt>
      <trkpt lat="45.737" lon="4.72246">
        <ele>246.23</ele>
        <time>2020-05-18T11:47:34Z</time>
      </trkpt>
      <trkpt lat="45.73699" lon="4.72246">
        <ele>246.23</ele>
        <time>2020-05-18T11:47:35Z</time>
      </trkpt>
      <trkpt lat="45.73694" lon="4.72246">
        <ele>246.23</ele>
        <time>2020-05-18T11:47:38Z</time>
      </trkpt>
      <trkpt lat="45.73671" lon="4.72251">
        <ele>246.72</ele>
        <time>2020-05-18T11:47:52Z</time>
      </trkpt>
      <trkpt lat="45.73646" lon="4.7225">
        <ele>246.72</ele>
        <time>2020-05-18T11:48:05Z</time>
      </trkpt>
      <trkpt lat="45.73625" lon="4.72245">
        <ele>246.72</ele>
        <time>2020-05-18T11:48:17Z</time>
      </trkpt>
      <trkpt lat="45.7361" lon="4.72236">
        <ele>247.2</ele>
        <time>2020-05-18T11:48:28Z</time>
      </trkpt>
      <trkpt lat="45.73608" lon="4.72234">
        <ele>247.2</ele>
        <time>2020-05-18T11:48:29Z</time>
      </trkpt>
      <trkpt lat="45.73607" lon="4.72232">
        <ele>247.2</ele>
        <time>2020-05-18T11:48:30Z</time>
      </trkpt>
      <trkpt lat="45.7359" lon="4.72212">
        <ele>248.16</ele>
        <time>2020-05-18T11:48:43Z</time>
      </trkpt>
      <trkpt lat="45.73576" lon="4.72195">
        <ele>249.6</ele>
        <time>2020-05-18T11:48:55Z</time>
      </trkpt>
      <trkpt lat="45.7357" lon="4.72192">
        <ele>250.56</ele>
        <time>2020-05-18T11:49:09Z</time>
      </trkpt>
      <trkpt lat="45.73565" lon="4.72186">
        <ele>250.56</ele>
        <time>2020-05-18T11:49:42Z</time>
      </trkpt>
      <trkpt lat="45.73569" lon="4.7219">
        <ele>251.52</ele>
        <time>2020-05-18T11:50:20Z</time>
      </trkpt>
      <trkpt lat="45.73566" lon="4.72187">
        <ele>251.52</ele>
        <time>2020-05-18T11:50:45Z</time>
      </trkpt>
      <trkpt lat="45.73566" lon="4.72182">
        <ele>251.04</ele>
        <time>2020-05-18T11:51:10Z</time>
      </trkpt>
      <trkpt lat="45.73566" lon="4.7218">
        <ele>251.52</ele>
        <time>2020-05-18T11:51:11Z</time>
      </trkpt>
      <trkpt lat="45.73566" lon="4.72178">
        <ele>251.52</ele>
        <time>2020-05-18T11:51:12Z</time>
      </trkpt>
      <trkpt lat="45.73565" lon="4.72176">
        <ele>251.52</ele>
        <time>2020-05-18T11:51:13Z</time>
      </trkpt>
      <trkpt lat="45.73565" lon="4.72174">
        <ele>251.52</ele>
        <time>2020-05-18T11:51:14Z</time>
      </trkpt>
      <trkpt lat="45.73564" lon="4.72171">
        <ele>251.52</ele>
        <time>2020-05-18T11:51:15Z</time>
      </trkpt>
      <trkpt lat="45.73563" lon="4.72142">
        <ele>251.52</ele>
        <time>2020-05-18T11:51:26Z</time>
      </trkpt>
      <trkpt lat="45.73563" lon="4.72137">
        <ele>251.52</ele>
        <time>2020-05-18T11:51:27Z</time>
      </trkpt>
      <trkpt lat="45.73563" lon="4.7213">
        <ele>250.08</ele>
        <time>2020-05-18T11:51:28Z</time>
      </trkpt>
      <trkpt lat="45.73562" lon="4.72124">
        <ele>250.08</ele>
        <time>2020-05-18T11:51:29Z</time>
      </trkpt>
      <trkpt lat="45.73561" lon="4.72117">
        <ele>249.6</ele>
        <time>2020-05-18T11:51:30Z</time>
      </trkpt>
      <trkpt lat="45.7356" lon="4.7211">
        <ele>249.6</ele>
        <time>2020-05-18T11:51:31Z</time>
      </trkpt>
      <trkpt lat="45.73559" lon="4.72105">
        <ele>249.6</ele>
        <time>2020-05-18T11:51:32Z</time>
      </trkpt>
      <trkpt lat="45.73558" lon="4.72099">
        <ele>249.6</ele>
        <time>2020-05-18T11:51:33Z</time>
      </trkpt>
      <trkpt lat="45.73551" lon="4.72059">
        <ele>249.6</ele>
        <time>2020-05-18T11:51:43Z</time>
      </trkpt>
      <trkpt lat="45.73547" lon="4.72048">
        <ele>251.04</ele>
        <time>2020-05-18T11:51:47Z</time>
      </trkpt>
      <trkpt lat="45.73546" lon="4.72046">
        <ele>251.52</ele>
        <time>2020-05-18T11:51:48Z</time>
      </trkpt>
      <trkpt lat="45.73547" lon="4.72044">
        <ele>251.52</ele>
        <time>2020-05-18T11:51:49Z</time>
      </trkpt>
      <trkpt lat="45.73548" lon="4.72042">
        <ele>251.52</ele>
        <time>2020-05-18T11:51:50Z</time>
      </trkpt>
      <trkpt lat="45.7355" lon="4.72041">
        <ele>251.52</ele>
        <time>2020-05-18T11:51:51Z</time>
      </trkpt>
      <trkpt lat="45.73551" lon="4.7204">
        <ele>251.52</ele>
        <time>2020-05-18T11:51:52Z</time>
      </trkpt>
      <trkpt lat="45.73567" lon="4.72033">
        <ele>251.52</ele>
        <time>2020-05-18T11:52:01Z</time>
      </trkpt>
      <trkpt lat="45.73568" lon="4.72031">
        <ele>251.52</ele>
        <time>2020-05-18T11:52:02Z</time>
      </trkpt>
      <trkpt lat="45.73569" lon="4.7203">
        <ele>251.52</ele>
        <time>2020-05-18T11:52:03Z</time>
      </trkpt>
      <trkpt lat="45.73572" lon="4.71999">
        <ele>252</ele>
        <time>2020-05-18T11:52:16Z</time>
      </trkpt>
      <trkpt lat="45.73569" lon="4.71962">
        <ele>253.44</ele>
        <time>2020-05-18T11:52:29Z</time>
      </trkpt>
      <trkpt lat="45.73577" lon="4.71922">
        <ele>253.93</ele>
        <time>2020-05-18T11:52:43Z</time>
      </trkpt>
      <trkpt lat="45.73593" lon="4.71889">
        <ele>254.41</ele>
        <time>2020-05-18T11:52:55Z</time>
      </trkpt>
      <trkpt lat="45.73622" lon="4.71855">
        <ele>255.37</ele>
        <time>2020-05-18T11:53:09Z</time>
      </trkpt>
      <trkpt lat="45.73627" lon="4.7185">
        <ele>255.85</ele>
        <time>2020-05-18T11:53:11Z</time>
      </trkpt>
      <trkpt lat="45.73628" lon="4.71848">
        <ele>255.85</ele>
        <time>2020-05-18T11:53:12Z</time>
      </trkpt>
      <trkpt lat="45.73628" lon="4.71845">
        <ele>255.85</ele>
        <time>2020-05-18T11:53:13Z</time>
      </trkpt>
      <trkpt lat="45.73625" lon="4.71819">
        <ele>255.85</ele>
        <time>2020-05-18T11:53:18Z</time>
      </trkpt>
      <trkpt lat="45.73626" lon="4.71799">
        <ele>256.33</ele>
        <time>2020-05-18T11:53:22Z</time>
      </trkpt>
      <trkpt lat="45.73627" lon="4.71766">
        <ele>254.89</ele>
        <time>2020-05-18T11:53:29Z</time>
      </trkpt>
      <trkpt lat="45.73621" lon="4.71759">
        <ele>253.93</ele>
        <time>2020-05-18T11:53:39Z</time>
      </trkpt>
      <trkpt lat="45.73621" lon="4.71759">
        <ele>254.41</ele>
        <time>2020-05-18T11:53:40Z</time>
      </trkpt>
      <trkpt lat="45.73619" lon="4.71756">
        <ele>254.41</ele>
        <time>2020-05-18T11:53:56Z</time>
      </trkpt>
      <trkpt lat="45.73618" lon="4.71751">
        <ele>254.41</ele>
        <time>2020-05-18T11:54:06Z</time>
      </trkpt>
      <trkpt lat="45.73621" lon="4.71741">
        <ele>254.41</ele>
        <time>2020-05-18T11:54:22Z</time>
      </trkpt>
      <trkpt lat="45.73621" lon="4.71741">
        <ele>254.41</ele>
        <time>2020-05-18T11:54:26Z</time>
      </trkpt>
      <trkpt lat="45.7362" lon="4.71734">
        <ele>254.89</ele>
        <time>2020-05-18T11:54:44Z</time>
      </trkpt>
      <trkpt lat="45.73617" lon="4.71736">
        <ele>254.89</ele>
        <time>2020-05-18T11:55:13Z</time>
      </trkpt>
      <trkpt lat="45.73619" lon="4.71725">
        <ele>255.85</ele>
        <time>2020-05-18T11:55:31Z</time>
      </trkpt>
      <trkpt lat="45.73619" lon="4.71702">
        <ele>255.85</ele>
        <time>2020-05-18T11:55:41Z</time>
      </trkpt>
      <trkpt lat="45.73617" lon="4.71697">
        <ele>255.85</ele>
        <time>2020-05-18T11:55:43Z</time>
      </trkpt>
      <trkpt lat="45.73624" lon="4.71682">
        <ele>255.85</ele>
        <time>2020-05-18T11:55:51Z</time>
      </trkpt>
      <trkpt lat="45.73633" lon="4.71643">
        <ele>256.33</ele>
        <time>2020-05-18T11:56:06Z</time>
      </trkpt>
      <trkpt lat="45.73655" lon="4.71613">
        <ele>256.81</ele>
        <time>2020-05-18T11:56:21Z</time>
      </trkpt>
      <trkpt lat="45.73676" lon="4.71586">
        <ele>257.29</ele>
        <time>2020-05-18T11:56:36Z</time>
      </trkpt>
      <trkpt lat="45.737" lon="4.71577">
        <ele>259.21</ele>
        <time>2020-05-18T11:56:53Z</time>
      </trkpt>
      <trkpt lat="45.73705" lon="4.71576">
        <ele>259.69</ele>
        <time>2020-05-18T11:56:57Z</time>
      </trkpt>
      <trkpt lat="45.73713" lon="4.71575">
        <ele>260.65</ele>
        <time>2020-05-18T11:57:03Z</time>
      </trkpt>
      <trkpt lat="45.73724" lon="4.71575">
        <ele>262.1</ele>
        <time>2020-05-18T11:57:12Z</time>
      </trkpt>
      <trkpt lat="45.73731" lon="4.71577">
        <ele>262.58</ele>
        <time>2020-05-18T11:57:18Z</time>
      </trkpt>
      <trkpt lat="45.73733" lon="4.71579">
        <ele>262.58</ele>
        <time>2020-05-18T11:57:20Z</time>
      </trkpt>
      <trkpt lat="45.73741" lon="4.71584">
        <ele>263.54</ele>
        <time>2020-05-18T11:57:25Z</time>
      </trkpt>
      <trkpt lat="45.73763" lon="4.716">
        <ele>265.94</ele>
        <time>2020-05-18T11:57:40Z</time>
      </trkpt>
      <trkpt lat="45.73764" lon="4.71601">
        <ele>265.94</ele>
        <time>2020-05-18T11:57:41Z</time>
      </trkpt>
      <trkpt lat="45.73768" lon="4.71602">
        <ele>266.9</ele>
        <time>2020-05-18T11:57:44Z</time>
      </trkpt>
      <trkpt lat="45.73773" lon="4.71608">
        <ele>267.86</ele>
        <time>2020-05-18T11:57:48Z</time>
      </trkpt>
      <trkpt lat="45.73784" lon="4.71631">
        <ele>267.86</ele>
        <time>2020-05-18T11:58:03Z</time>
      </trkpt>
      <trkpt lat="45.73788" lon="4.7163">
        <ele>268.83</ele>
        <time>2020-05-18T11:58:13Z</time>
      </trkpt>
      <trkpt lat="45.73788" lon="4.7163">
        <ele>268.83</ele>
        <time>2020-05-18T11:58:31Z</time>
      </trkpt>
      <trkpt lat="45.73786" lon="4.71628">
        <ele>268.83</ele>
        <time>2020-05-18T11:58:50Z</time>
      </trkpt>
      <trkpt lat="45.73787" lon="4.71629">
        <ele>267.38</ele>
        <time>2020-05-18T11:59:16Z</time>
      </trkpt>
      <trkpt lat="45.73787" lon="4.71628">
        <ele>267.38</ele>
        <time>2020-05-18T11:59:17Z</time>
      </trkpt>
      <trkpt lat="45.73788" lon="4.71628">
        <ele>268.83</ele>
        <time>2020-05-18T11:59:25Z</time>
      </trkpt>
      <trkpt lat="45.73789" lon="4.71624">
        <ele>267.38</ele>
        <time>2020-05-18T11:59:45Z</time>
      </trkpt>
      <trkpt lat="45.7379" lon="4.71618">
        <ele>267.38</ele>
        <time>2020-05-18T11:59:48Z</time>
      </trkpt>
      <trkpt lat="45.73781" lon="4.71575">
        <ele>266.42</ele>
        <time>2020-05-18T11:59:58Z</time>
      </trkpt>
      <trkpt lat="45.7377" lon="4.7153">
        <ele>265.94</ele>
        <time>2020-05-18T12:00:05Z</time>
      </trkpt>
      <trkpt lat="45.73771" lon="4.71523">
        <ele>265.46</ele>
        <time>2020-05-18T12:00:06Z</time>
      </trkpt>
      <trkpt lat="45.73764" lon="4.71486">
        <ele>265.46</ele>
        <time>2020-05-18T12:00:13Z</time>
      </trkpt>
      <trkpt lat="45.73762" lon="4.71481">
        <ele>265.46</ele>
        <time>2020-05-18T12:00:14Z</time>
      </trkpt>
      <trkpt lat="45.7376" lon="4.71469">
        <ele>265.46</ele>
        <time>2020-05-18T12:00:16Z</time>
      </trkpt>
      <trkpt lat="45.73758" lon="4.71464">
        <ele>266.9</ele>
        <time>2020-05-18T12:00:17Z</time>
      </trkpt>
      <trkpt lat="45.73755" lon="4.71461">
        <ele>266.9</ele>
        <time>2020-05-18T12:00:18Z</time>
      </trkpt>
      <trkpt lat="45.73753" lon="4.71458">
        <ele>267.38</ele>
        <time>2020-05-18T12:00:19Z</time>
      </trkpt>
      <trkpt lat="45.7375" lon="4.71456">
        <ele>267.86</ele>
        <time>2020-05-18T12:00:20Z</time>
      </trkpt>
      <trkpt lat="45.73749" lon="4.71454">
        <ele>267.86</ele>
        <time>2020-05-18T12:00:21Z</time>
      </trkpt>
      <trkpt lat="45.73747" lon="4.71452">
        <ele>268.83</ele>
        <time>2020-05-18T12:00:22Z</time>
      </trkpt>
      <trkpt lat="45.73746" lon="4.71449">
        <ele>268.83</ele>
        <time>2020-05-18T12:00:23Z</time>
      </trkpt>
      <trkpt lat="45.73745" lon="4.71446">
        <ele>269.31</ele>
        <time>2020-05-18T12:00:24Z</time>
      </trkpt>
      <trkpt lat="45.73744" lon="4.71444">
        <ele>269.31</ele>
        <time>2020-05-18T12:00:25Z</time>
      </trkpt>
      <trkpt lat="45.73727" lon="4.71403">
        <ele>272.19</ele>
        <time>2020-05-18T12:00:39Z</time>
      </trkpt>
      <trkpt lat="45.73713" lon="4.71352">
        <ele>274.59</ele>
        <time>2020-05-18T12:00:54Z</time>
      </trkpt>
      <trkpt lat="45.73704" lon="4.71292">
        <ele>275.56</ele>
        <time>2020-05-18T12:01:10Z</time>
      </trkpt>
      <trkpt lat="45.73703" lon="4.71274">
        <ele>274.11</ele>
        <time>2020-05-18T12:01:13Z</time>
      </trkpt>
      <trkpt lat="45.737" lon="4.71245">
        <ele>272.67</ele>
        <time>2020-05-18T12:01:17Z</time>
      </trkpt>
      <trkpt lat="45.73701" lon="4.71237">
        <ele>272.19</ele>
        <time>2020-05-18T12:01:18Z</time>
      </trkpt>
      <trkpt lat="45.73702" lon="4.71231">
        <ele>272.19</ele>
        <time>2020-05-18T12:01:19Z</time>
      </trkpt>
      <trkpt lat="45.73703" lon="4.71227">
        <ele>272.19</ele>
        <time>2020-05-18T12:01:20Z</time>
      </trkpt>
      <trkpt lat="45.73705" lon="4.71224">
        <ele>272.19</ele>
        <time>2020-05-18T12:01:21Z</time>
      </trkpt>
      <trkpt lat="45.73706" lon="4.71221">
        <ele>272.19</ele>
        <time>2020-05-18T12:01:22Z</time>
      </trkpt>
      <trkpt lat="45.73706" lon="4.71217">
        <ele>272.19</ele>
        <time>2020-05-18T12:01:23Z</time>
      </trkpt>
      <trkpt lat="45.73705" lon="4.71212">
        <ele>271.71</ele>
        <time>2020-05-18T12:01:24Z</time>
      </trkpt>
      <trkpt lat="45.73705" lon="4.71208">
        <ele>271.71</ele>
        <time>2020-05-18T12:01:25Z</time>
      </trkpt>
      <trkpt lat="45.73705" lon="4.71203">
        <ele>271.23</ele>
        <time>2020-05-18T12:01:26Z</time>
      </trkpt>
      <trkpt lat="45.73705" lon="4.71196">
        <ele>270.27</ele>
        <time>2020-05-18T12:01:27Z</time>
      </trkpt>
      <trkpt lat="45.73705" lon="4.71188">
        <ele>270.27</ele>
        <time>2020-05-18T12:01:28Z</time>
      </trkpt>
      <trkpt lat="45.73706" lon="4.7118">
        <ele>269.31</ele>
        <time>2020-05-18T12:01:29Z</time>
      </trkpt>
      <trkpt lat="45.7372" lon="4.71104">
        <ele>267.86</ele>
        <time>2020-05-18T12:01:39Z</time>
      </trkpt>
      <trkpt lat="45.73721" lon="4.71099">
        <ele>267.38</ele>
        <time>2020-05-18T12:01:40Z</time>
      </trkpt>
      <trkpt lat="45.73721" lon="4.71094">
        <ele>267.38</ele>
        <time>2020-05-18T12:01:41Z</time>
      </trkpt>
      <trkpt lat="45.7372" lon="4.7109">
        <ele>267.38</ele>
        <time>2020-05-18T12:01:42Z</time>
      </trkpt>
      <trkpt lat="45.73719" lon="4.71086">
        <ele>267.38</ele>
        <time>2020-05-18T12:01:43Z</time>
      </trkpt>
      <trkpt lat="45.73718" lon="4.71081">
        <ele>266.9</ele>
        <time>2020-05-18T12:01:44Z</time>
      </trkpt>
      <trkpt lat="45.73718" lon="4.71076">
        <ele>266.9</ele>
        <time>2020-05-18T12:01:45Z</time>
      </trkpt>
      <trkpt lat="45.7372" lon="4.71071">
        <ele>266.42</ele>
        <time>2020-05-18T12:01:46Z</time>
      </trkpt>
      <trkpt lat="45.73721" lon="4.71069">
        <ele>266.42</ele>
        <time>2020-05-18T12:01:47Z</time>
      </trkpt>
      <trkpt lat="45.73722" lon="4.71067">
        <ele>266.42</ele>
        <time>2020-05-18T12:01:48Z</time>
      </trkpt>
      <trkpt lat="45.73723" lon="4.71065">
        <ele>266.42</ele>
        <time>2020-05-18T12:01:49Z</time>
      </trkpt>
      <trkpt lat="45.73723" lon="4.71064">
        <ele>266.42</ele>
        <time>2020-05-18T12:01:50Z</time>
      </trkpt>
      <trkpt lat="45.73725" lon="4.7106">
        <ele>267.38</ele>
        <time>2020-05-18T12:01:53Z</time>
      </trkpt>
      <trkpt lat="45.73726" lon="4.71058">
        <ele>267.38</ele>
        <time>2020-05-18T12:01:54Z</time>
      </trkpt>
      <trkpt lat="45.73727" lon="4.71057">
        <ele>267.38</ele>
        <time>2020-05-18T12:01:55Z</time>
      </trkpt>
      <trkpt lat="45.7373" lon="4.71055">
        <ele>267.86</ele>
        <time>2020-05-18T12:01:57Z</time>
      </trkpt>
      <trkpt lat="45.73731" lon="4.71053">
        <ele>267.86</ele>
        <time>2020-05-18T12:01:58Z</time>
      </trkpt>
      <trkpt lat="45.73749" lon="4.71043">
        <ele>270.75</ele>
        <time>2020-05-18T12:02:12Z</time>
      </trkpt>
      <trkpt lat="45.73763" lon="4.71037">
        <ele>272.19</ele>
        <time>2020-05-18T12:02:25Z</time>
      </trkpt>
      <trkpt lat="45.73777" lon="4.71026">
        <ele>274.11</ele>
        <time>2020-05-18T12:02:37Z</time>
      </trkpt>
      <trkpt lat="45.73778" lon="4.71024">
        <ele>274.59</ele>
        <time>2020-05-18T12:02:38Z</time>
      </trkpt>
      <trkpt lat="45.73779" lon="4.71023">
        <ele>274.59</ele>
        <time>2020-05-18T12:02:39Z</time>
      </trkpt>
      <trkpt lat="45.7378" lon="4.71021">
        <ele>274.59</ele>
        <time>2020-05-18T12:02:40Z</time>
      </trkpt>
      <trkpt lat="45.73782" lon="4.7102">
        <ele>275.07</ele>
        <time>2020-05-18T12:02:41Z</time>
      </trkpt>
      <trkpt lat="45.73783" lon="4.71019">
        <ele>275.07</ele>
        <time>2020-05-18T12:02:42Z</time>
      </trkpt>
      <trkpt lat="45.73786" lon="4.71018">
        <ele>275.56</ele>
        <time>2020-05-18T12:02:44Z</time>
      </trkpt>
      <trkpt lat="45.73787" lon="4.71017">
        <ele>276.04</ele>
        <time>2020-05-18T12:02:45Z</time>
      </trkpt>
      <trkpt lat="45.73788" lon="4.71016">
        <ele>276.04</ele>
        <time>2020-05-18T12:02:46Z</time>
      </trkpt>
      <trkpt lat="45.73789" lon="4.71014">
        <ele>276.52</ele>
        <time>2020-05-18T12:02:47Z</time>
      </trkpt>
      <trkpt lat="45.73791" lon="4.71014">
        <ele>276.52</ele>
        <time>2020-05-18T12:02:48Z</time>
      </trkpt>
      <trkpt lat="45.73792" lon="4.71013">
        <ele>276.52</ele>
        <time>2020-05-18T12:02:49Z</time>
      </trkpt>
      <trkpt lat="45.73793" lon="4.71012">
        <ele>277</ele>
        <time>2020-05-18T12:02:50Z</time>
      </trkpt>
      <trkpt lat="45.73799" lon="4.71008">
        <ele>277.96</ele>
        <time>2020-05-18T12:02:55Z</time>
      </trkpt>
      <trkpt lat="45.73801" lon="4.71008">
        <ele>278.44</ele>
        <time>2020-05-18T12:02:56Z</time>
      </trkpt>
      <trkpt lat="45.73814" lon="4.71">
        <ele>278.92</ele>
        <time>2020-05-18T12:03:07Z</time>
      </trkpt>
      <trkpt lat="45.73823" lon="4.70993">
        <ele>280.36</ele>
        <time>2020-05-18T12:03:20Z</time>
      </trkpt>
      <trkpt lat="45.73835" lon="4.7098">
        <ele>281.8</ele>
        <time>2020-05-18T12:03:36Z</time>
      </trkpt>
      <trkpt lat="45.73847" lon="4.7096">
        <ele>284.21</ele>
        <time>2020-05-18T12:03:50Z</time>
      </trkpt>
      <trkpt lat="45.73848" lon="4.70958">
        <ele>284.21</ele>
        <time>2020-05-18T12:03:52Z</time>
      </trkpt>
      <trkpt lat="45.73855" lon="4.7094">
        <ele>286.13</ele>
        <time>2020-05-18T12:04:07Z</time>
      </trkpt>
      <trkpt lat="45.7386" lon="4.70918">
        <ele>288.05</ele>
        <time>2020-05-18T12:04:21Z</time>
      </trkpt>
      <trkpt lat="45.7386" lon="4.70916">
        <ele>288.05</ele>
        <time>2020-05-18T12:04:22Z</time>
      </trkpt>
      <trkpt lat="45.7386" lon="4.70914">
        <ele>288.05</ele>
        <time>2020-05-18T12:04:23Z</time>
      </trkpt>
      <trkpt lat="45.7386" lon="4.70912">
        <ele>288.05</ele>
        <time>2020-05-18T12:04:24Z</time>
      </trkpt>
      <trkpt lat="45.7386" lon="4.7091">
        <ele>288.53</ele>
        <time>2020-05-18T12:04:25Z</time>
      </trkpt>
      <trkpt lat="45.7386" lon="4.70903">
        <ele>289.01</ele>
        <time>2020-05-18T12:04:28Z</time>
      </trkpt>
      <trkpt lat="45.73859" lon="4.70875">
        <ele>290.94</ele>
        <time>2020-05-18T12:04:44Z</time>
      </trkpt>
      <trkpt lat="45.73858" lon="4.70874">
        <ele>290.94</ele>
        <time>2020-05-18T12:04:45Z</time>
      </trkpt>
      <trkpt lat="45.73858" lon="4.70872">
        <ele>291.42</ele>
        <time>2020-05-18T12:04:46Z</time>
      </trkpt>
      <trkpt lat="45.73858" lon="4.7087">
        <ele>291.42</ele>
        <time>2020-05-18T12:04:47Z</time>
      </trkpt>
      <trkpt lat="45.73858" lon="4.70869">
        <ele>291.42</ele>
        <time>2020-05-18T12:04:48Z</time>
      </trkpt>
      <trkpt lat="45.73858" lon="4.70867">
        <ele>292.38</ele>
        <time>2020-05-18T12:04:49Z</time>
      </trkpt>
      <trkpt lat="45.73859" lon="4.70844">
        <ele>293.82</ele>
        <time>2020-05-18T12:05:03Z</time>
      </trkpt>
      <trkpt lat="45.73859" lon="4.70824">
        <ele>294.78</ele>
        <time>2020-05-18T12:05:15Z</time>
      </trkpt>
      <trkpt lat="45.73859" lon="4.70822">
        <ele>294.78</ele>
        <time>2020-05-18T12:05:16Z</time>
      </trkpt>
      <trkpt lat="45.73863" lon="4.70792">
        <ele>296.7</ele>
        <time>2020-05-18T12:05:32Z</time>
      </trkpt>
      <trkpt lat="45.7387" lon="4.70766">
        <ele>298.15</ele>
        <time>2020-05-18T12:05:45Z</time>
      </trkpt>
      <trkpt lat="45.7388" lon="4.70739">
        <ele>299.59</ele>
        <time>2020-05-18T12:06:02Z</time>
      </trkpt>
      <trkpt lat="45.73881" lon="4.70737">
        <ele>299.59</ele>
        <time>2020-05-18T12:06:12Z</time>
      </trkpt>
      <trkpt lat="45.73881" lon="4.70738">
        <ele>299.59</ele>
        <time>2020-05-18T12:06:35Z</time>
      </trkpt>
      <trkpt lat="45.73881" lon="4.70737">
        <ele>299.59</ele>
        <time>2020-05-18T12:07:06Z</time>
      </trkpt>
      <trkpt lat="45.73882" lon="4.70738">
        <ele>300.07</ele>
        <time>2020-05-18T12:07:24Z</time>
      </trkpt>
      <trkpt lat="45.73883" lon="4.70737">
        <ele>300.07</ele>
        <time>2020-05-18T12:07:41Z</time>
      </trkpt>
      <trkpt lat="45.73893" lon="4.70739">
        <ele>300.07</ele>
        <time>2020-05-18T12:07:49Z</time>
      </trkpt>
      <trkpt lat="45.73894" lon="4.7074">
        <ele>300.07</ele>
        <time>2020-05-18T12:07:50Z</time>
      </trkpt>
      <trkpt lat="45.73896" lon="4.7074">
        <ele>299.59</ele>
        <time>2020-05-18T12:07:51Z</time>
      </trkpt>
      <trkpt lat="45.73897" lon="4.70741">
        <ele>299.59</ele>
        <time>2020-05-18T12:07:52Z</time>
      </trkpt>
      <trkpt lat="45.73899" lon="4.70742">
        <ele>300.07</ele>
        <time>2020-05-18T12:07:53Z</time>
      </trkpt>
      <trkpt lat="45.73935" lon="4.70754">
        <ele>300.07</ele>
        <time>2020-05-18T12:08:09Z</time>
      </trkpt>
      <trkpt lat="45.73975" lon="4.70758">
        <ele>301.03</ele>
        <time>2020-05-18T12:08:22Z</time>
      </trkpt>
      <trkpt lat="45.74024" lon="4.70748">
        <ele>301.99</ele>
        <time>2020-05-18T12:08:39Z</time>
      </trkpt>
      <trkpt lat="45.7406" lon="4.70732">
        <ele>302.95</ele>
        <time>2020-05-18T12:08:53Z</time>
      </trkpt>
      <trkpt lat="45.74097" lon="4.70721">
        <ele>303.43</ele>
        <time>2020-05-18T12:09:07Z</time>
      </trkpt>
      <trkpt lat="45.74135" lon="4.70707">
        <ele>304.39</ele>
        <time>2020-05-18T12:09:20Z</time>
      </trkpt>
      <trkpt lat="45.74175" lon="4.70695">
        <ele>305.84</ele>
        <time>2020-05-18T12:09:34Z</time>
      </trkpt>
      <trkpt lat="45.74225" lon="4.7068">
        <ele>306.32</ele>
        <time>2020-05-18T12:09:50Z</time>
      </trkpt>
      <trkpt lat="45.7426" lon="4.70673">
        <ele>307.76</ele>
        <time>2020-05-18T12:10:04Z</time>
      </trkpt>
      <trkpt lat="45.74266" lon="4.70669">
        <ele>307.76</ele>
        <time>2020-05-18T12:10:10Z</time>
      </trkpt>
      <trkpt lat="45.74269" lon="4.70663">
        <ele>307.76</ele>
        <time>2020-05-18T12:10:12Z</time>
      </trkpt>
      <trkpt lat="45.7426" lon="4.70593">
        <ele>307.76</ele>
        <time>2020-05-18T12:10:28Z</time>
      </trkpt>
      <trkpt lat="45.74247" lon="4.70527">
        <ele>309.2</ele>
        <time>2020-05-18T12:10:43Z</time>
      </trkpt>
      <trkpt lat="45.74239" lon="4.70455">
        <ele>311.12</ele>
        <time>2020-05-18T12:11:00Z</time>
      </trkpt>
      <trkpt lat="45.74236" lon="4.70368">
        <ele>312.09</ele>
        <time>2020-05-18T12:11:18Z</time>
      </trkpt>
      <trkpt lat="45.74244" lon="4.703">
        <ele>314.01</ele>
        <time>2020-05-18T12:11:31Z</time>
      </trkpt>
      <trkpt lat="45.74257" lon="4.70207">
        <ele>314.01</ele>
        <time>2020-05-18T12:11:48Z</time>
      </trkpt>
      <trkpt lat="45.7428" lon="4.70102">
        <ele>312.57</ele>
        <time>2020-05-18T12:12:07Z</time>
      </trkpt>
      <trkpt lat="45.74302" lon="4.70051">
        <ele>312.57</ele>
        <time>2020-05-18T12:12:19Z</time>
      </trkpt>
      <trkpt lat="45.74315" lon="4.70025">
        <ele>312.57</ele>
        <time>2020-05-18T12:12:26Z</time>
      </trkpt>
      <trkpt lat="45.74315" lon="4.70023">
        <ele>312.57</ele>
        <time>2020-05-18T12:12:27Z</time>
      </trkpt>
      <trkpt lat="45.74315" lon="4.70021">
        <ele>312.57</ele>
        <time>2020-05-18T12:12:28Z</time>
      </trkpt>
      <trkpt lat="45.74315" lon="4.70019">
        <ele>312.57</ele>
        <time>2020-05-18T12:12:29Z</time>
      </trkpt>
      <trkpt lat="45.74317" lon="4.70018">
        <ele>312.57</ele>
        <time>2020-05-18T12:12:30Z</time>
      </trkpt>
      <trkpt lat="45.74318" lon="4.70017">
        <ele>312.57</ele>
        <time>2020-05-18T12:12:31Z</time>
      </trkpt>
      <trkpt lat="45.74319" lon="4.70016">
        <ele>313.53</ele>
        <time>2020-05-18T12:12:32Z</time>
      </trkpt>
      <trkpt lat="45.7432" lon="4.70014">
        <ele>313.53</ele>
        <time>2020-05-18T12:12:33Z</time>
      </trkpt>
      <trkpt lat="45.7432" lon="4.70012">
        <ele>313.53</ele>
        <time>2020-05-18T12:12:34Z</time>
      </trkpt>
      <trkpt lat="45.7432" lon="4.7001">
        <ele>313.53</ele>
        <time>2020-05-18T12:12:35Z</time>
      </trkpt>
      <trkpt lat="45.74323" lon="4.70005">
        <ele>313.53</ele>
        <time>2020-05-18T12:12:44Z</time>
      </trkpt>
      <trkpt lat="45.74324" lon="4.70003">
        <ele>313.53</ele>
        <time>2020-05-18T12:12:45Z</time>
      </trkpt>
      <trkpt lat="45.74325" lon="4.70001">
        <ele>313.53</ele>
        <time>2020-05-18T12:12:46Z</time>
      </trkpt>
      <trkpt lat="45.74326" lon="4.69999">
        <ele>313.53</ele>
        <time>2020-05-18T12:12:47Z</time>
      </trkpt>
      <trkpt lat="45.74327" lon="4.69998">
        <ele>313.53</ele>
        <time>2020-05-18T12:12:48Z</time>
      </trkpt>
      <trkpt lat="45.74328" lon="4.69996">
        <ele>313.53</ele>
        <time>2020-05-18T12:12:49Z</time>
      </trkpt>
      <trkpt lat="45.7433" lon="4.69993">
        <ele>313.53</ele>
        <time>2020-05-18T12:12:50Z</time>
      </trkpt>
      <trkpt lat="45.74361" lon="4.69959">
        <ele>314.01</ele>
        <time>2020-05-18T12:13:05Z</time>
      </trkpt>
      <trkpt lat="45.74399" lon="4.69941">
        <ele>316.41</ele>
        <time>2020-05-18T12:13:19Z</time>
      </trkpt>
      <trkpt lat="45.74402" lon="4.69939">
        <ele>317.37</ele>
        <time>2020-05-18T12:13:32Z</time>
      </trkpt>
      <trkpt lat="45.74414" lon="4.6993">
        <ele>316.89</ele>
        <time>2020-05-18T12:13:45Z</time>
      </trkpt>
      <trkpt lat="45.74457" lon="4.69896">
        <ele>316.89</ele>
        <time>2020-05-18T12:13:58Z</time>
      </trkpt>
      <trkpt lat="45.7452" lon="4.69847">
        <ele>319.78</ele>
        <time>2020-05-18T12:14:16Z</time>
      </trkpt>
      <trkpt lat="45.74549" lon="4.698">
        <ele>322.18</ele>
        <time>2020-05-18T12:14:30Z</time>
      </trkpt>
      <trkpt lat="45.74549" lon="4.69796">
        <ele>322.18</ele>
        <time>2020-05-18T12:14:31Z</time>
      </trkpt>
      <trkpt lat="45.74549" lon="4.69793">
        <ele>322.18</ele>
        <time>2020-05-18T12:14:32Z</time>
      </trkpt>
      <trkpt lat="45.74548" lon="4.69789">
        <ele>322.18</ele>
        <time>2020-05-18T12:14:33Z</time>
      </trkpt>
      <trkpt lat="45.74548" lon="4.69785">
        <ele>322.18</ele>
        <time>2020-05-18T12:14:34Z</time>
      </trkpt>
      <trkpt lat="45.74545" lon="4.69707">
        <ele>323.62</ele>
        <time>2020-05-18T12:14:53Z</time>
      </trkpt>
      <trkpt lat="45.74541" lon="4.69616">
        <ele>324.58</ele>
        <time>2020-05-18T12:15:14Z</time>
      </trkpt>
      <trkpt lat="45.74539" lon="4.69558">
        <ele>325.06</ele>
        <time>2020-05-18T12:15:27Z</time>
      </trkpt>
      <trkpt lat="45.74537" lon="4.69511">
        <ele>326.5</ele>
        <time>2020-05-18T12:15:39Z</time>
      </trkpt>
      <trkpt lat="45.74533" lon="4.69438">
        <ele>327.47</ele>
        <time>2020-05-18T12:15:54Z</time>
      </trkpt>
      <trkpt lat="45.74529" lon="4.69352">
        <ele>328.91</ele>
        <time>2020-05-18T12:16:12Z</time>
      </trkpt>
      <trkpt lat="45.74527" lon="4.69321">
        <ele>327.95</ele>
        <time>2020-05-18T12:16:19Z</time>
      </trkpt>
      <trkpt lat="45.74528" lon="4.69319">
        <ele>327.95</ele>
        <time>2020-05-18T12:16:20Z</time>
      </trkpt>
      <trkpt lat="45.7453" lon="4.69317">
        <ele>327.95</ele>
        <time>2020-05-18T12:16:21Z</time>
      </trkpt>
      <trkpt lat="45.74533" lon="4.69317">
        <ele>327.95</ele>
        <time>2020-05-18T12:16:22Z</time>
      </trkpt>
      <trkpt lat="45.74535" lon="4.69316">
        <ele>327.95</ele>
        <time>2020-05-18T12:16:23Z</time>
      </trkpt>
      <trkpt lat="45.74537" lon="4.69315">
        <ele>327.95</ele>
        <time>2020-05-18T12:16:24Z</time>
      </trkpt>
      <trkpt lat="45.74539" lon="4.69315">
        <ele>327.95</ele>
        <time>2020-05-18T12:16:25Z</time>
      </trkpt>
      <trkpt lat="45.74542" lon="4.69314">
        <ele>327.95</ele>
        <time>2020-05-18T12:16:26Z</time>
      </trkpt>
      <trkpt lat="45.74575" lon="4.6931">
        <ele>330.35</ele>
        <time>2020-05-18T12:16:42Z</time>
      </trkpt>
      <trkpt lat="45.74599" lon="4.69308">
        <ele>331.31</ele>
        <time>2020-05-18T12:16:54Z</time>
      </trkpt>
      <trkpt lat="45.74615" lon="4.69307">
        <ele>332.75</ele>
        <time>2020-05-18T12:17:02Z</time>
      </trkpt>
      <trkpt lat="45.74624" lon="4.69306">
        <ele>333.23</ele>
        <time>2020-05-18T12:17:07Z</time>
      </trkpt>
      <trkpt lat="45.74628" lon="4.69305">
        <ele>333.71</ele>
        <time>2020-05-18T12:17:09Z</time>
      </trkpt>
      <trkpt lat="45.74662" lon="4.69297">
        <ele>335.64</ele>
        <time>2020-05-18T12:17:25Z</time>
      </trkpt>
      <trkpt lat="45.74703" lon="4.69296">
        <ele>338.52</ele>
        <time>2020-05-18T12:17:44Z</time>
      </trkpt>
      <trkpt lat="45.74721" lon="4.69294">
        <ele>338.52</ele>
        <time>2020-05-18T12:17:52Z</time>
      </trkpt>
      <trkpt lat="45.74729" lon="4.6926">
        <ele>339</ele>
        <time>2020-05-18T12:18:05Z</time>
      </trkpt>
      <trkpt lat="45.74732" lon="4.6921">
        <ele>340.44</ele>
        <time>2020-05-18T12:18:21Z</time>
      </trkpt>
      <trkpt lat="45.74733" lon="4.69171">
        <ele>341.41</ele>
        <time>2020-05-18T12:18:34Z</time>
      </trkpt>
      <trkpt lat="45.74735" lon="4.69161">
        <ele>342.37</ele>
        <time>2020-05-18T12:18:47Z</time>
      </trkpt>
      <trkpt lat="45.74735" lon="4.69159">
        <ele>342.37</ele>
        <time>2020-05-18T12:18:48Z</time>
      </trkpt>
      <trkpt lat="45.74735" lon="4.69156">
        <ele>342.37</ele>
        <time>2020-05-18T12:18:49Z</time>
      </trkpt>
      <trkpt lat="45.74734" lon="4.69152">
        <ele>341.89</ele>
        <time>2020-05-18T12:18:50Z</time>
      </trkpt>
      <trkpt lat="45.74734" lon="4.69148">
        <ele>342.85</ele>
        <time>2020-05-18T12:18:51Z</time>
      </trkpt>
      <trkpt lat="45.74734" lon="4.69144">
        <ele>342.85</ele>
        <time>2020-05-18T12:18:52Z</time>
      </trkpt>
      <trkpt lat="45.74734" lon="4.6914">
        <ele>342.85</ele>
        <time>2020-05-18T12:18:53Z</time>
      </trkpt>
      <trkpt lat="45.74734" lon="4.69136">
        <ele>342.85</ele>
        <time>2020-05-18T12:18:54Z</time>
      </trkpt>
      <trkpt lat="45.74736" lon="4.69102">
        <ele>343.33</ele>
        <time>2020-05-18T12:19:03Z</time>
      </trkpt>
      <trkpt lat="45.74735" lon="4.691">
        <ele>343.33</ele>
        <time>2020-05-18T12:19:04Z</time>
      </trkpt>
      <trkpt lat="45.74734" lon="4.69107">
        <ele>343.33</ele>
        <time>2020-05-18T12:19:10Z</time>
      </trkpt>
      <trkpt lat="45.74734" lon="4.69111">
        <ele>343.33</ele>
        <time>2020-05-18T12:19:12Z</time>
      </trkpt>
      <trkpt lat="45.74736" lon="4.69115">
        <ele>343.33</ele>
        <time>2020-05-18T12:19:26Z</time>
      </trkpt>
      <trkpt lat="45.74734" lon="4.69119">
        <ele>343.33</ele>
        <time>2020-05-18T12:19:40Z</time>
      </trkpt>
      <trkpt lat="45.74733" lon="4.69118">
        <ele>343.33</ele>
        <time>2020-05-18T12:19:55Z</time>
      </trkpt>
      <trkpt lat="45.74733" lon="4.69117">
        <ele>343.81</ele>
        <time>2020-05-18T12:19:57Z</time>
      </trkpt>
      <trkpt lat="45.74732" lon="4.69114">
        <ele>343.81</ele>
        <time>2020-05-18T12:20:10Z</time>
      </trkpt>
      <trkpt lat="45.74734" lon="4.69114">
        <ele>343.81</ele>
        <time>2020-05-18T12:20:28Z</time>
      </trkpt>
      <trkpt lat="45.74735" lon="4.69113">
        <ele>343.81</ele>
        <time>2020-05-18T12:20:51Z</time>
      </trkpt>
      <trkpt lat="45.74734" lon="4.69113">
        <ele>343.81</ele>
        <time>2020-05-18T12:20:58Z</time>
      </trkpt>
      <trkpt lat="45.74734" lon="4.691">
        <ele>343.81</ele>
        <time>2020-05-18T12:21:03Z</time>
      </trkpt>
      <trkpt lat="45.74734" lon="4.69096">
        <ele>343.81</ele>
        <time>2020-05-18T12:21:04Z</time>
      </trkpt>
      <trkpt lat="45.74737" lon="4.69064">
        <ele>343.81</ele>
        <time>2020-05-18T12:21:14Z</time>
      </trkpt>
      <trkpt lat="45.7474" lon="4.69048">
        <ele>344.77</ele>
        <time>2020-05-18T12:21:20Z</time>
      </trkpt>
      <trkpt lat="45.74742" lon="4.69047">
        <ele>344.77</ele>
        <time>2020-05-18T12:21:21Z</time>
      </trkpt>
      <trkpt lat="45.74758" lon="4.69043">
        <ele>346.21</ele>
        <time>2020-05-18T12:21:30Z</time>
      </trkpt>
      <trkpt lat="45.74762" lon="4.6904">
        <ele>346.69</ele>
        <time>2020-05-18T12:21:33Z</time>
      </trkpt>
      <trkpt lat="45.74764" lon="4.6904">
        <ele>346.69</ele>
        <time>2020-05-18T12:21:34Z</time>
      </trkpt>
      <trkpt lat="45.74765" lon="4.6904">
        <ele>346.69</ele>
        <time>2020-05-18T12:21:35Z</time>
      </trkpt>
      <trkpt lat="45.74766" lon="4.6904">
        <ele>346.69</ele>
        <time>2020-05-18T12:21:36Z</time>
      </trkpt>
      <trkpt lat="45.74767" lon="4.6904">
        <ele>346.69</ele>
        <time>2020-05-18T12:21:37Z</time>
      </trkpt>
      <trkpt lat="45.74769" lon="4.69041">
        <ele>347.17</ele>
        <time>2020-05-18T12:21:39Z</time>
      </trkpt>
      <trkpt lat="45.7477" lon="4.69042">
        <ele>347.17</ele>
        <time>2020-05-18T12:21:40Z</time>
      </trkpt>
      <trkpt lat="45.74771" lon="4.69045">
        <ele>347.17</ele>
        <time>2020-05-18T12:21:42Z</time>
      </trkpt>
      <trkpt lat="45.74773" lon="4.69044">
        <ele>347.17</ele>
        <time>2020-05-18T12:21:44Z</time>
      </trkpt>
      <trkpt lat="45.74774" lon="4.69042">
        <ele>347.17</ele>
        <time>2020-05-18T12:21:45Z</time>
      </trkpt>
      <trkpt lat="45.74775" lon="4.6904">
        <ele>347.17</ele>
        <time>2020-05-18T12:21:46Z</time>
      </trkpt>
      <trkpt lat="45.74777" lon="4.6903">
        <ele>347.65</ele>
        <time>2020-05-18T12:21:50Z</time>
      </trkpt>
      <trkpt lat="45.74779" lon="4.69028">
        <ele>347.65</ele>
        <time>2020-05-18T12:21:51Z</time>
      </trkpt>
      <trkpt lat="45.7478" lon="4.69027">
        <ele>347.65</ele>
        <time>2020-05-18T12:21:52Z</time>
      </trkpt>
      <trkpt lat="45.74805" lon="4.69026">
        <ele>349.1</ele>
        <time>2020-05-18T12:22:05Z</time>
      </trkpt>
      <trkpt lat="45.74812" lon="4.69032">
        <ele>349.1</ele>
        <time>2020-05-18T12:22:10Z</time>
      </trkpt>
      <trkpt lat="45.74815" lon="4.69046">
        <ele>349.1</ele>
        <time>2020-05-18T12:22:17Z</time>
      </trkpt>
      <trkpt lat="45.74814" lon="4.69049">
        <ele>349.1</ele>
        <time>2020-05-18T12:22:18Z</time>
      </trkpt>
      <trkpt lat="45.74812" lon="4.69052">
        <ele>349.1</ele>
        <time>2020-05-18T12:22:19Z</time>
      </trkpt>
      <trkpt lat="45.7481" lon="4.69054">
        <ele>349.1</ele>
        <time>2020-05-18T12:22:20Z</time>
      </trkpt>
      <trkpt lat="45.74807" lon="4.69054">
        <ele>349.1</ele>
        <time>2020-05-18T12:22:21Z</time>
      </trkpt>
      <trkpt lat="45.74803" lon="4.69055">
        <ele>349.1</ele>
        <time>2020-05-18T12:22:22Z</time>
      </trkpt>
      <trkpt lat="45.74788" lon="4.69056">
        <ele>348.13</ele>
        <time>2020-05-18T12:22:26Z</time>
      </trkpt>
      <trkpt lat="45.74785" lon="4.69055">
        <ele>348.13</ele>
        <time>2020-05-18T12:22:27Z</time>
      </trkpt>
      <trkpt lat="45.74782" lon="4.69053">
        <ele>348.13</ele>
        <time>2020-05-18T12:22:28Z</time>
      </trkpt>
      <trkpt lat="45.74773" lon="4.69042">
        <ele>347.65</ele>
        <time>2020-05-18T12:22:31Z</time>
      </trkpt>
      <trkpt lat="45.74769" lon="4.69041">
        <ele>346.69</ele>
        <time>2020-05-18T12:22:32Z</time>
      </trkpt>
      <trkpt lat="45.74741" lon="4.69044">
        <ele>344.77</ele>
        <time>2020-05-18T12:22:40Z</time>
      </trkpt>
      <trkpt lat="45.7474" lon="4.69047">
        <ele>344.77</ele>
        <time>2020-05-18T12:22:42Z</time>
      </trkpt>
      <trkpt lat="45.74739" lon="4.69049">
        <ele>344.29</ele>
        <time>2020-05-18T12:22:43Z</time>
      </trkpt>
      <trkpt lat="45.74739" lon="4.69052">
        <ele>344.29</ele>
        <time>2020-05-18T12:22:44Z</time>
      </trkpt>
      <trkpt lat="45.7474" lon="4.69052">
        <ele>344.29</ele>
        <time>2020-05-18T12:22:47Z</time>
      </trkpt>
      <trkpt lat="45.74741" lon="4.69049">
        <ele>344.29</ele>
        <time>2020-05-18T12:22:48Z</time>
      </trkpt>
      <trkpt lat="45.74741" lon="4.69045">
        <ele>344.29</ele>
        <time>2020-05-18T12:22:49Z</time>
      </trkpt>
      <trkpt lat="45.74741" lon="4.69041">
        <ele>344.29</ele>
        <time>2020-05-18T12:22:50Z</time>
      </trkpt>
      <trkpt lat="45.74741" lon="4.69036">
        <ele>344.29</ele>
        <time>2020-05-18T12:22:51Z</time>
      </trkpt>
      <trkpt lat="45.74741" lon="4.68991">
        <ele>344.29</ele>
        <time>2020-05-18T12:23:01Z</time>
      </trkpt>
      <trkpt lat="45.74742" lon="4.68988">
        <ele>344.29</ele>
        <time>2020-05-18T12:23:02Z</time>
      </trkpt>
      <trkpt lat="45.74742" lon="4.68984">
        <ele>344.29</ele>
        <time>2020-05-18T12:23:03Z</time>
      </trkpt>
      <trkpt lat="45.74741" lon="4.68968">
        <ele>345.25</ele>
        <time>2020-05-18T12:23:07Z</time>
      </trkpt>
      <trkpt lat="45.74731" lon="4.68949">
        <ele>345.73</ele>
        <time>2020-05-18T12:23:18Z</time>
      </trkpt>
      <trkpt lat="45.74731" lon="4.6895">
        <ele>345.73</ele>
        <time>2020-05-18T12:23:42Z</time>
      </trkpt>
      <trkpt lat="45.74732" lon="4.68952">
        <ele>345.73</ele>
        <time>2020-05-18T12:23:43Z</time>
      </trkpt>
      <trkpt lat="45.74734" lon="4.68958">
        <ele>345.73</ele>
        <time>2020-05-18T12:23:45Z</time>
      </trkpt>
      <trkpt lat="45.74735" lon="4.68963">
        <ele>345.73</ele>
        <time>2020-05-18T12:23:46Z</time>
      </trkpt>
      <trkpt lat="45.74737" lon="4.68967">
        <ele>345.73</ele>
        <time>2020-05-18T12:23:47Z</time>
      </trkpt>
      <trkpt lat="45.74737" lon="4.68971">
        <ele>345.73</ele>
        <time>2020-05-18T12:23:48Z</time>
      </trkpt>
      <trkpt lat="45.74738" lon="4.68976">
        <ele>345.73</ele>
        <time>2020-05-18T12:23:49Z</time>
      </trkpt>
      <trkpt lat="45.74738" lon="4.6898">
        <ele>345.73</ele>
        <time>2020-05-18T12:23:50Z</time>
      </trkpt>
      <trkpt lat="45.74738" lon="4.69046">
        <ele>344.29</ele>
        <time>2020-05-18T12:24:02Z</time>
      </trkpt>
      <trkpt lat="45.74737" lon="4.69052">
        <ele>344.29</ele>
        <time>2020-05-18T12:24:03Z</time>
      </trkpt>
      <trkpt lat="45.74733" lon="4.69131">
        <ele>343.33</ele>
        <time>2020-05-18T12:24:16Z</time>
      </trkpt>
      <trkpt lat="45.74733" lon="4.69148">
        <ele>342.85</ele>
        <time>2020-05-18T12:24:20Z</time>
      </trkpt>
      <trkpt lat="45.74735" lon="4.69154">
        <ele>342.37</ele>
        <time>2020-05-18T12:24:21Z</time>
      </trkpt>
      <trkpt lat="45.74768" lon="4.69221">
        <ele>343.81</ele>
        <time>2020-05-18T12:24:34Z</time>
      </trkpt>
      <trkpt lat="45.7477" lon="4.69225">
        <ele>343.81</ele>
        <time>2020-05-18T12:24:35Z</time>
      </trkpt>
      <trkpt lat="45.74788" lon="4.69264">
        <ele>342.37</ele>
        <time>2020-05-18T12:24:44Z</time>
      </trkpt>
      <trkpt lat="45.74817" lon="4.6932">
        <ele>340.92</ele>
        <time>2020-05-18T12:24:58Z</time>
      </trkpt>
      <trkpt lat="45.7482" lon="4.69322">
        <ele>340.92</ele>
        <time>2020-05-18T12:24:59Z</time>
      </trkpt>
      <trkpt lat="45.74822" lon="4.69321">
        <ele>340.92</ele>
        <time>2020-05-18T12:25:00Z</time>
      </trkpt>
      <trkpt lat="45.74824" lon="4.69319">
        <ele>340.92</ele>
        <time>2020-05-18T12:25:01Z</time>
      </trkpt>
      <trkpt lat="45.74825" lon="4.69316">
        <ele>340.92</ele>
        <time>2020-05-18T12:25:02Z</time>
      </trkpt>
      <trkpt lat="45.74824" lon="4.69313">
        <ele>340.92</ele>
        <time>2020-05-18T12:25:03Z</time>
      </trkpt>
      <trkpt lat="45.74824" lon="4.6931">
        <ele>340.92</ele>
        <time>2020-05-18T12:25:04Z</time>
      </trkpt>
      <trkpt lat="45.74824" lon="4.69307">
        <ele>340.92</ele>
        <time>2020-05-18T12:25:05Z</time>
      </trkpt>
      <trkpt lat="45.74825" lon="4.69304">
        <ele>340.92</ele>
        <time>2020-05-18T12:25:06Z</time>
      </trkpt>
      <trkpt lat="45.74826" lon="4.69302">
        <ele>340.92</ele>
        <time>2020-05-18T12:25:07Z</time>
      </trkpt>
      <trkpt lat="45.74827" lon="4.69299">
        <ele>340.92</ele>
        <time>2020-05-18T12:25:08Z</time>
      </trkpt>
      <trkpt lat="45.74828" lon="4.69296">
        <ele>340.92</ele>
        <time>2020-05-18T12:25:09Z</time>
      </trkpt>
      <trkpt lat="45.74828" lon="4.69293">
        <ele>340.92</ele>
        <time>2020-05-18T12:25:10Z</time>
      </trkpt>
      <trkpt lat="45.74828" lon="4.6929">
        <ele>340.92</ele>
        <time>2020-05-18T12:25:11Z</time>
      </trkpt>
      <trkpt lat="45.74828" lon="4.69287">
        <ele>340.92</ele>
        <time>2020-05-18T12:25:12Z</time>
      </trkpt>
      <trkpt lat="45.74827" lon="4.69278">
        <ele>341.89</ele>
        <time>2020-05-18T12:25:23Z</time>
      </trkpt>
      <trkpt lat="45.74827" lon="4.69275">
        <ele>342.37</ele>
        <time>2020-05-18T12:25:38Z</time>
      </trkpt>
      <trkpt lat="45.74828" lon="4.69278">
        <ele>342.37</ele>
        <time>2020-05-18T12:25:53Z</time>
      </trkpt>
      <trkpt lat="45.74827" lon="4.69281">
        <ele>342.37</ele>
        <time>2020-05-18T12:26:07Z</time>
      </trkpt>
      <trkpt lat="45.74826" lon="4.69285">
        <ele>342.37</ele>
        <time>2020-05-18T12:26:08Z</time>
      </trkpt>
      <trkpt lat="45.74825" lon="4.6929">
        <ele>342.37</ele>
        <time>2020-05-18T12:26:09Z</time>
      </trkpt>
      <trkpt lat="45.74825" lon="4.69296">
        <ele>342.37</ele>
        <time>2020-05-18T12:26:10Z</time>
      </trkpt>
      <trkpt lat="45.74824" lon="4.69302">
        <ele>340.92</ele>
        <time>2020-05-18T12:26:11Z</time>
      </trkpt>
      <trkpt lat="45.74823" lon="4.69308">
        <ele>340.92</ele>
        <time>2020-05-18T12:26:12Z</time>
      </trkpt>
      <trkpt lat="45.74819" lon="4.69327">
        <ele>340.92</ele>
        <time>2020-05-18T12:26:19Z</time>
      </trkpt>
      <trkpt lat="45.7482" lon="4.69332">
        <ele>340.92</ele>
        <time>2020-05-18T12:26:20Z</time>
      </trkpt>
      <trkpt lat="45.74822" lon="4.69337">
        <ele>340.92</ele>
        <time>2020-05-18T12:26:21Z</time>
      </trkpt>
      <trkpt lat="45.74825" lon="4.69342">
        <ele>340.44</ele>
        <time>2020-05-18T12:26:22Z</time>
      </trkpt>
      <trkpt lat="45.74827" lon="4.69346">
        <ele>340.44</ele>
        <time>2020-05-18T12:26:23Z</time>
      </trkpt>
      <trkpt lat="45.7483" lon="4.69351">
        <ele>339.96</ele>
        <time>2020-05-18T12:26:24Z</time>
      </trkpt>
      <trkpt lat="45.74832" lon="4.69355">
        <ele>339.96</ele>
        <time>2020-05-18T12:26:25Z</time>
      </trkpt>
      <trkpt lat="45.74834" lon="4.69359">
        <ele>339.96</ele>
        <time>2020-05-18T12:26:26Z</time>
      </trkpt>
      <trkpt lat="45.74859" lon="4.69406">
        <ele>339</ele>
        <time>2020-05-18T12:26:35Z</time>
      </trkpt>
      <trkpt lat="45.74892" lon="4.69457">
        <ele>337.56</ele>
        <time>2020-05-18T12:26:44Z</time>
      </trkpt>
      <trkpt lat="45.74896" lon="4.69463">
        <ele>337.56</ele>
        <time>2020-05-18T12:26:45Z</time>
      </trkpt>
      <trkpt lat="45.74921" lon="4.69504">
        <ele>336.6</ele>
        <time>2020-05-18T12:26:52Z</time>
      </trkpt>
      <trkpt lat="45.74923" lon="4.69511">
        <ele>336.6</ele>
        <time>2020-05-18T12:26:53Z</time>
      </trkpt>
      <trkpt lat="45.74925" lon="4.69526">
        <ele>336.12</ele>
        <time>2020-05-18T12:26:55Z</time>
      </trkpt>
      <trkpt lat="45.74929" lon="4.69532">
        <ele>335.64</ele>
        <time>2020-05-18T12:26:56Z</time>
      </trkpt>
      <trkpt lat="45.74933" lon="4.69536">
        <ele>335.64</ele>
        <time>2020-05-18T12:26:57Z</time>
      </trkpt>
      <trkpt lat="45.74938" lon="4.69537">
        <ele>335.64</ele>
        <time>2020-05-18T12:26:58Z</time>
      </trkpt>
      <trkpt lat="45.74942" lon="4.69534">
        <ele>335.64</ele>
        <time>2020-05-18T12:26:59Z</time>
      </trkpt>
      <trkpt lat="45.74945" lon="4.69529">
        <ele>335.64</ele>
        <time>2020-05-18T12:27:00Z</time>
      </trkpt>
      <trkpt lat="45.74947" lon="4.69523">
        <ele>335.64</ele>
        <time>2020-05-18T12:27:01Z</time>
      </trkpt>
      <trkpt lat="45.74949" lon="4.69515">
        <ele>336.6</ele>
        <time>2020-05-18T12:27:02Z</time>
      </trkpt>
      <trkpt lat="45.74949" lon="4.69511">
        <ele>336.6</ele>
        <time>2020-05-18T12:27:03Z</time>
      </trkpt>
      <trkpt lat="45.7495" lon="4.69506">
        <ele>336.6</ele>
        <time>2020-05-18T12:27:04Z</time>
      </trkpt>
      <trkpt lat="45.74958" lon="4.69426">
        <ele>338.52</ele>
        <time>2020-05-18T12:27:20Z</time>
      </trkpt>
      <trkpt lat="45.74966" lon="4.69349">
        <ele>340.92</ele>
        <time>2020-05-18T12:27:37Z</time>
      </trkpt>
      <trkpt lat="45.74972" lon="4.6928">
        <ele>342.37</ele>
        <time>2020-05-18T12:27:52Z</time>
      </trkpt>
      <trkpt lat="45.74976" lon="4.69258">
        <ele>342.85</ele>
        <time>2020-05-18T12:27:59Z</time>
      </trkpt>
      <trkpt lat="45.74978" lon="4.69258">
        <ele>342.85</ele>
        <time>2020-05-18T12:28:00Z</time>
      </trkpt>
      <trkpt lat="45.7498" lon="4.69261">
        <ele>342.85</ele>
        <time>2020-05-18T12:28:01Z</time>
      </trkpt>
      <trkpt lat="45.75006" lon="4.6931">
        <ele>340.44</ele>
        <time>2020-05-18T12:28:13Z</time>
      </trkpt>
      <trkpt lat="45.75037" lon="4.69366">
        <ele>338.52</ele>
        <time>2020-05-18T12:28:23Z</time>
      </trkpt>
      <trkpt lat="45.75041" lon="4.69368">
        <ele>338.52</ele>
        <time>2020-05-18T12:28:24Z</time>
      </trkpt>
      <trkpt lat="45.75046" lon="4.69367">
        <ele>338.52</ele>
        <time>2020-05-18T12:28:25Z</time>
      </trkpt>
      <trkpt lat="45.75051" lon="4.69363">
        <ele>338.52</ele>
        <time>2020-05-18T12:28:26Z</time>
      </trkpt>
      <trkpt lat="45.75053" lon="4.69359">
        <ele>338.52</ele>
        <time>2020-05-18T12:28:27Z</time>
      </trkpt>
      <trkpt lat="45.75056" lon="4.69355">
        <ele>338.04</ele>
        <time>2020-05-18T12:28:28Z</time>
      </trkpt>
      <trkpt lat="45.7506" lon="4.6935">
        <ele>338.04</ele>
        <time>2020-05-18T12:28:29Z</time>
      </trkpt>
      <trkpt lat="45.75063" lon="4.69345">
        <ele>338.04</ele>
        <time>2020-05-18T12:28:30Z</time>
      </trkpt>
      <trkpt lat="45.75085" lon="4.69307">
        <ele>339</ele>
        <time>2020-05-18T12:28:38Z</time>
      </trkpt>
      <trkpt lat="45.75117" lon="4.69247">
        <ele>338.04</ele>
        <time>2020-05-18T12:28:50Z</time>
      </trkpt>
      <trkpt lat="45.75137" lon="4.6921">
        <ele>339</ele>
        <time>2020-05-18T12:28:58Z</time>
      </trkpt>
      <trkpt lat="45.75161" lon="4.69166">
        <ele>339.96</ele>
        <time>2020-05-18T12:29:11Z</time>
      </trkpt>
      <trkpt lat="45.75176" lon="4.69099">
        <ele>340.92</ele>
        <time>2020-05-18T12:29:25Z</time>
      </trkpt>
      <trkpt lat="45.75179" lon="4.69071">
        <ele>342.37</ele>
        <time>2020-05-18T12:29:31Z</time>
      </trkpt>
      <trkpt lat="45.75199" lon="4.69018">
        <ele>340.44</ele>
        <time>2020-05-18T12:29:44Z</time>
      </trkpt>
      <trkpt lat="45.75218" lon="4.69004">
        <ele>339</ele>
        <time>2020-05-18T12:29:48Z</time>
      </trkpt>
      <trkpt lat="45.75224" lon="4.69001">
        <ele>338.04</ele>
        <time>2020-05-18T12:29:49Z</time>
      </trkpt>
      <trkpt lat="45.7525" lon="4.68989">
        <ele>335.16</ele>
        <time>2020-05-18T12:29:53Z</time>
      </trkpt>
      <trkpt lat="45.75256" lon="4.68986">
        <ele>334.68</ele>
        <time>2020-05-18T12:29:54Z</time>
      </trkpt>
      <trkpt lat="45.75263" lon="4.68983">
        <ele>334.2</ele>
        <time>2020-05-18T12:29:55Z</time>
      </trkpt>
      <trkpt lat="45.75269" lon="4.6898">
        <ele>333.23</ele>
        <time>2020-05-18T12:29:56Z</time>
      </trkpt>
      <trkpt lat="45.75301" lon="4.68963">
        <ele>329.39</ele>
        <time>2020-05-18T12:30:01Z</time>
      </trkpt>
      <trkpt lat="45.75306" lon="4.68961">
        <ele>328.43</ele>
        <time>2020-05-18T12:30:02Z</time>
      </trkpt>
      <trkpt lat="45.75318" lon="4.68955">
        <ele>325.06</ele>
        <time>2020-05-18T12:30:06Z</time>
      </trkpt>
      <trkpt lat="45.75328" lon="4.6895">
        <ele>321.7</ele>
        <time>2020-05-18T12:30:10Z</time>
      </trkpt>
      <trkpt lat="45.75339" lon="4.68944">
        <ele>318.33</ele>
        <time>2020-05-18T12:30:14Z</time>
      </trkpt>
      <trkpt lat="45.75354" lon="4.68935">
        <ele>314.49</ele>
        <time>2020-05-18T12:30:18Z</time>
      </trkpt>
      <trkpt lat="45.75358" lon="4.68932">
        <ele>313.53</ele>
        <time>2020-05-18T12:30:19Z</time>
      </trkpt>
      <trkpt lat="45.75362" lon="4.68931">
        <ele>312.57</ele>
        <time>2020-05-18T12:30:20Z</time>
      </trkpt>
      <trkpt lat="45.75367" lon="4.68931">
        <ele>311.6</ele>
        <time>2020-05-18T12:30:21Z</time>
      </trkpt>
      <trkpt lat="45.75371" lon="4.68934">
        <ele>310.16</ele>
        <time>2020-05-18T12:30:22Z</time>
      </trkpt>
      <trkpt lat="45.75376" lon="4.68939">
        <ele>308.24</ele>
        <time>2020-05-18T12:30:23Z</time>
      </trkpt>
      <trkpt lat="45.75381" lon="4.68945">
        <ele>306.8</ele>
        <time>2020-05-18T12:30:24Z</time>
      </trkpt>
      <trkpt lat="45.75386" lon="4.6895">
        <ele>306.32</ele>
        <time>2020-05-18T12:30:25Z</time>
      </trkpt>
      <trkpt lat="45.7539" lon="4.68953">
        <ele>305.84</ele>
        <time>2020-05-18T12:30:26Z</time>
      </trkpt>
      <trkpt lat="45.75392" lon="4.68954">
        <ele>305.84</ele>
        <time>2020-05-18T12:30:27Z</time>
      </trkpt>
      <trkpt lat="45.75395" lon="4.68954">
        <ele>305.84</ele>
        <time>2020-05-18T12:30:40Z</time>
      </trkpt>
      <trkpt lat="45.75397" lon="4.68953">
        <ele>305.84</ele>
        <time>2020-05-18T12:31:04Z</time>
      </trkpt>
      <trkpt lat="45.75393" lon="4.68951">
        <ele>305.84</ele>
        <time>2020-05-18T12:31:25Z</time>
      </trkpt>
      <trkpt lat="45.75392" lon="4.6895">
        <ele>305.84</ele>
        <time>2020-05-18T12:31:26Z</time>
      </trkpt>
      <trkpt lat="45.75389" lon="4.68948">
        <ele>306.8</ele>
        <time>2020-05-18T12:31:29Z</time>
      </trkpt>
      <trkpt lat="45.75379" lon="4.68934">
        <ele>310.16</ele>
        <time>2020-05-18T12:31:41Z</time>
      </trkpt>
      <trkpt lat="45.7537" lon="4.68932">
        <ele>313.05</ele>
        <time>2020-05-18T12:31:54Z</time>
      </trkpt>
      <trkpt lat="45.75367" lon="4.68931">
        <ele>313.05</ele>
        <time>2020-05-18T12:32:08Z</time>
      </trkpt>
      <trkpt lat="45.75366" lon="4.6893">
        <ele>313.05</ele>
        <time>2020-05-18T12:32:14Z</time>
      </trkpt>
      <trkpt lat="45.75369" lon="4.68929">
        <ele>313.05</ele>
        <time>2020-05-18T12:32:16Z</time>
      </trkpt>
      <trkpt lat="45.75371" lon="4.68929">
        <ele>311.6</ele>
        <time>2020-05-18T12:32:17Z</time>
      </trkpt>
      <trkpt lat="45.75373" lon="4.6893">
        <ele>311.12</ele>
        <time>2020-05-18T12:32:18Z</time>
      </trkpt>
      <trkpt lat="45.75377" lon="4.68933">
        <ele>309.68</ele>
        <time>2020-05-18T12:32:19Z</time>
      </trkpt>
      <trkpt lat="45.75381" lon="4.68938">
        <ele>308.72</ele>
        <time>2020-05-18T12:32:20Z</time>
      </trkpt>
      <trkpt lat="45.75385" lon="4.68945">
        <ele>307.28</ele>
        <time>2020-05-18T12:32:21Z</time>
      </trkpt>
      <trkpt lat="45.75389" lon="4.68949">
        <ele>306.8</ele>
        <time>2020-05-18T12:32:22Z</time>
      </trkpt>
      <trkpt lat="45.75393" lon="4.68951">
        <ele>306.32</ele>
        <time>2020-05-18T12:32:23Z</time>
      </trkpt>
      <trkpt lat="45.75396" lon="4.68952">
        <ele>306.32</ele>
        <time>2020-05-18T12:32:24Z</time>
      </trkpt>
      <trkpt lat="45.754" lon="4.68954">
        <ele>306.32</ele>
        <time>2020-05-18T12:32:33Z</time>
      </trkpt>
      <trkpt lat="45.75404" lon="4.68953">
        <ele>306.32</ele>
        <time>2020-05-18T12:32:39Z</time>
      </trkpt>
      <trkpt lat="45.75408" lon="4.68953">
        <ele>306.8</ele>
        <time>2020-05-18T12:32:46Z</time>
      </trkpt>
      <trkpt lat="45.75413" lon="4.68954">
        <ele>307.76</ele>
        <time>2020-05-18T12:33:02Z</time>
      </trkpt>
      <trkpt lat="45.75414" lon="4.68954">
        <ele>307.76</ele>
        <time>2020-05-18T12:33:11Z</time>
      </trkpt>
      <trkpt lat="45.75415" lon="4.68956">
        <ele>307.76</ele>
        <time>2020-05-18T12:33:12Z</time>
      </trkpt>
      <trkpt lat="45.7543" lon="4.68977">
        <ele>311.12</ele>
        <time>2020-05-18T12:33:22Z</time>
      </trkpt>
      <trkpt lat="45.75445" lon="4.68998">
        <ele>314.01</ele>
        <time>2020-05-18T12:33:33Z</time>
      </trkpt>
      <trkpt lat="45.7546" lon="4.69018">
        <ele>315.93</ele>
        <time>2020-05-18T12:33:47Z</time>
      </trkpt>
      <trkpt lat="45.75476" lon="4.69035">
        <ele>318.81</ele>
        <time>2020-05-18T12:34:00Z</time>
      </trkpt>
      <trkpt lat="45.75492" lon="4.69047">
        <ele>321.22</ele>
        <time>2020-05-18T12:34:12Z</time>
      </trkpt>
      <trkpt lat="45.75494" lon="4.69048">
        <ele>321.7</ele>
        <time>2020-05-18T12:34:13Z</time>
      </trkpt>
      <trkpt lat="45.75496" lon="4.69049">
        <ele>321.7</ele>
        <time>2020-05-18T12:34:14Z</time>
      </trkpt>
      <trkpt lat="45.75497" lon="4.69049">
        <ele>322.18</ele>
        <time>2020-05-18T12:34:15Z</time>
      </trkpt>
      <trkpt lat="45.75499" lon="4.6905">
        <ele>322.18</ele>
        <time>2020-05-18T12:34:16Z</time>
      </trkpt>
      <trkpt lat="45.755" lon="4.69051">
        <ele>322.18</ele>
        <time>2020-05-18T12:34:17Z</time>
      </trkpt>
      <trkpt lat="45.75502" lon="4.69051">
        <ele>322.18</ele>
        <time>2020-05-18T12:34:18Z</time>
      </trkpt>
      <trkpt lat="45.75528" lon="4.69057">
        <ele>324.1</ele>
        <time>2020-05-18T12:34:34Z</time>
      </trkpt>
      <trkpt lat="45.75558" lon="4.69065">
        <ele>326.99</ele>
        <time>2020-05-18T12:34:52Z</time>
      </trkpt>
      <trkpt lat="45.75559" lon="4.69065">
        <ele>326.99</ele>
        <time>2020-05-18T12:34:53Z</time>
      </trkpt>
      <trkpt lat="45.7556" lon="4.69066">
        <ele>326.99</ele>
        <time>2020-05-18T12:34:54Z</time>
      </trkpt>
      <trkpt lat="45.75562" lon="4.69066">
        <ele>327.47</ele>
        <time>2020-05-18T12:34:55Z</time>
      </trkpt>
      <trkpt lat="45.75563" lon="4.69067">
        <ele>327.47</ele>
        <time>2020-05-18T12:34:56Z</time>
      </trkpt>
      <trkpt lat="45.75587" lon="4.69077">
        <ele>329.39</ele>
        <time>2020-05-18T12:35:11Z</time>
      </trkpt>
      <trkpt lat="45.75615" lon="4.69086">
        <ele>331.79</ele>
        <time>2020-05-18T12:35:27Z</time>
      </trkpt>
      <trkpt lat="45.75628" lon="4.69091">
        <ele>327.47</ele>
        <time>2020-05-18T12:35:35Z</time>
      </trkpt>
      <trkpt lat="45.7563" lon="4.69091">
        <ele>332.27</ele>
        <time>2020-05-18T12:35:36Z</time>
      </trkpt>
      <trkpt lat="45.75632" lon="4.69091">
        <ele>337.08</ele>
        <time>2020-05-18T12:35:37Z</time>
      </trkpt>
      <trkpt lat="45.75634" lon="4.69091">
        <ele>333.71</ele>
        <time>2020-05-18T12:35:38Z</time>
      </trkpt>
      <trkpt lat="45.75666" lon="4.691">
        <ele>335.16</ele>
        <time>2020-05-18T12:35:57Z</time>
      </trkpt>
      <trkpt lat="45.75707" lon="4.69115">
        <ele>335.16</ele>
        <time>2020-05-18T12:36:18Z</time>
      </trkpt>
      <trkpt lat="45.75748" lon="4.69125">
        <ele>335.16</ele>
        <time>2020-05-18T12:36:33Z</time>
      </trkpt>
      <trkpt lat="45.75758" lon="4.69131">
        <ele>333.71</ele>
        <time>2020-05-18T12:36:40Z</time>
      </trkpt>
      <trkpt lat="45.75766" lon="4.69135">
        <ele>333.23</ele>
        <time>2020-05-18T12:36:47Z</time>
      </trkpt>
      <trkpt lat="45.75768" lon="4.69133">
        <ele>333.23</ele>
        <time>2020-05-18T12:36:48Z</time>
      </trkpt>
      <trkpt lat="45.75768" lon="4.69131">
        <ele>333.23</ele>
        <time>2020-05-18T12:36:49Z</time>
      </trkpt>
      <trkpt lat="45.75768" lon="4.6913">
        <ele>333.23</ele>
        <time>2020-05-18T12:36:50Z</time>
      </trkpt>
      <trkpt lat="45.75767" lon="4.69129">
        <ele>333.23</ele>
        <time>2020-05-18T12:36:51Z</time>
      </trkpt>
      <trkpt lat="45.75766" lon="4.6913">
        <ele>333.23</ele>
        <time>2020-05-18T12:36:52Z</time>
      </trkpt>
      <trkpt lat="45.75765" lon="4.69131">
        <ele>333.23</ele>
        <time>2020-05-18T12:36:53Z</time>
      </trkpt>
      <trkpt lat="45.75763" lon="4.69132">
        <ele>333.23</ele>
        <time>2020-05-18T12:36:54Z</time>
      </trkpt>
      <trkpt lat="45.75761" lon="4.69131">
        <ele>333.23</ele>
        <time>2020-05-18T12:36:55Z</time>
      </trkpt>
      <trkpt lat="45.75759" lon="4.6913">
        <ele>333.23</ele>
        <time>2020-05-18T12:36:56Z</time>
      </trkpt>
      <trkpt lat="45.75739" lon="4.69122">
        <ele>334.68</ele>
        <time>2020-05-18T12:37:05Z</time>
      </trkpt>
      <trkpt lat="45.75704" lon="4.69112">
        <ele>335.16</ele>
        <time>2020-05-18T12:37:20Z</time>
      </trkpt>
      <trkpt lat="45.7569" lon="4.69109">
        <ele>335.64</ele>
        <time>2020-05-18T12:37:30Z</time>
      </trkpt>
      <trkpt lat="45.75692" lon="4.69111">
        <ele>335.64</ele>
        <time>2020-05-18T12:37:32Z</time>
      </trkpt>
      <trkpt lat="45.75693" lon="4.69111">
        <ele>335.64</ele>
        <time>2020-05-18T12:37:33Z</time>
      </trkpt>
      <trkpt lat="45.75695" lon="4.69111">
        <ele>335.64</ele>
        <time>2020-05-18T12:37:34Z</time>
      </trkpt>
      <trkpt lat="45.75698" lon="4.69111">
        <ele>335.64</ele>
        <time>2020-05-18T12:37:35Z</time>
      </trkpt>
      <trkpt lat="45.757" lon="4.69112">
        <ele>335.64</ele>
        <time>2020-05-18T12:37:36Z</time>
      </trkpt>
      <trkpt lat="45.75703" lon="4.69113">
        <ele>335.64</ele>
        <time>2020-05-18T12:37:37Z</time>
      </trkpt>
      <trkpt lat="45.75706" lon="4.69114">
        <ele>335.64</ele>
        <time>2020-05-18T12:37:38Z</time>
      </trkpt>
      <trkpt lat="45.75724" lon="4.69118">
        <ele>334.68</ele>
        <time>2020-05-18T12:37:45Z</time>
      </trkpt>
      <trkpt lat="45.75762" lon="4.69136">
        <ele>334.2</ele>
        <time>2020-05-18T12:38:01Z</time>
      </trkpt>
      <trkpt lat="45.75766" lon="4.69137">
        <ele>334.2</ele>
        <time>2020-05-18T12:38:03Z</time>
      </trkpt>
      <trkpt lat="45.75768" lon="4.69134">
        <ele>334.2</ele>
        <time>2020-05-18T12:38:04Z</time>
      </trkpt>
      <trkpt lat="45.75769" lon="4.69133">
        <ele>333.71</ele>
        <time>2020-05-18T12:38:05Z</time>
      </trkpt>
      <trkpt lat="45.75771" lon="4.69129">
        <ele>333.71</ele>
        <time>2020-05-18T12:38:06Z</time>
      </trkpt>
      <trkpt lat="45.75772" lon="4.69126">
        <ele>333.71</ele>
        <time>2020-05-18T12:38:07Z</time>
      </trkpt>
      <trkpt lat="45.75774" lon="4.69122">
        <ele>333.71</ele>
        <time>2020-05-18T12:38:08Z</time>
      </trkpt>
      <trkpt lat="45.75789" lon="4.69089">
        <ele>335.16</ele>
        <time>2020-05-18T12:38:18Z</time>
      </trkpt>
      <trkpt lat="45.75812" lon="4.69029">
        <ele>337.56</ele>
        <time>2020-05-18T12:38:35Z</time>
      </trkpt>
      <trkpt lat="45.75838" lon="4.68971">
        <ele>339</ele>
        <time>2020-05-18T12:38:53Z</time>
      </trkpt>
      <trkpt lat="45.75865" lon="4.68907">
        <ele>341.41</ele>
        <time>2020-05-18T12:39:13Z</time>
      </trkpt>
      <trkpt lat="45.75893" lon="4.6885">
        <ele>342.85</ele>
        <time>2020-05-18T12:39:31Z</time>
      </trkpt>
      <trkpt lat="45.75931" lon="4.68809">
        <ele>344.29</ele>
        <time>2020-05-18T12:39:48Z</time>
      </trkpt>
      <trkpt lat="45.75969" lon="4.68768">
        <ele>344.29</ele>
        <time>2020-05-18T12:40:05Z</time>
      </trkpt>
      <trkpt lat="45.75985" lon="4.68718">
        <ele>346.21</ele>
        <time>2020-05-18T12:40:21Z</time>
      </trkpt>
      <trkpt lat="45.75984" lon="4.68717">
        <ele>346.69</ele>
        <time>2020-05-18T12:40:22Z</time>
      </trkpt>
      <trkpt lat="45.75983" lon="4.68715">
        <ele>346.69</ele>
        <time>2020-05-18T12:40:23Z</time>
      </trkpt>
      <trkpt lat="45.75983" lon="4.68713">
        <ele>346.69</ele>
        <time>2020-05-18T12:40:24Z</time>
      </trkpt>
      <trkpt lat="45.75983" lon="4.68711">
        <ele>346.69</ele>
        <time>2020-05-18T12:40:25Z</time>
      </trkpt>
      <trkpt lat="45.75985" lon="4.68708">
        <ele>346.69</ele>
        <time>2020-05-18T12:40:26Z</time>
      </trkpt>
      <trkpt lat="45.75988" lon="4.68658">
        <ele>347.65</ele>
        <time>2020-05-18T12:40:40Z</time>
      </trkpt>
      <trkpt lat="45.75992" lon="4.68609">
        <ele>349.58</ele>
        <time>2020-05-18T12:40:54Z</time>
      </trkpt>
      <trkpt lat="45.75995" lon="4.68553">
        <ele>351.5</ele>
        <time>2020-05-18T12:41:10Z</time>
      </trkpt>
      <trkpt lat="45.75999" lon="4.68488">
        <ele>353.42</ele>
        <time>2020-05-18T12:41:28Z</time>
      </trkpt>
      <trkpt lat="45.76005" lon="4.68434">
        <ele>354.86</ele>
        <time>2020-05-18T12:41:44Z</time>
      </trkpt>
      <trkpt lat="45.76012" lon="4.68372">
        <ele>357.27</ele>
        <time>2020-05-18T12:42:02Z</time>
      </trkpt>
      <trkpt lat="45.76016" lon="4.6832">
        <ele>359.67</ele>
        <time>2020-05-18T12:42:18Z</time>
      </trkpt>
      <trkpt lat="45.7602" lon="4.68271">
        <ele>362.07</ele>
        <time>2020-05-18T12:42:34Z</time>
      </trkpt>
      <trkpt lat="45.76022" lon="4.68266">
        <ele>362.55</ele>
        <time>2020-05-18T12:42:38Z</time>
      </trkpt>
      <trkpt lat="45.76023" lon="4.68265">
        <ele>362.55</ele>
        <time>2020-05-18T12:42:39Z</time>
      </trkpt>
      <trkpt lat="45.76023" lon="4.68263">
        <ele>362.55</ele>
        <time>2020-05-18T12:42:40Z</time>
      </trkpt>
      <trkpt lat="45.76024" lon="4.68261">
        <ele>362.55</ele>
        <time>2020-05-18T12:42:41Z</time>
      </trkpt>
      <trkpt lat="45.76025" lon="4.68259">
        <ele>362.55</ele>
        <time>2020-05-18T12:42:42Z</time>
      </trkpt>
      <trkpt lat="45.76026" lon="4.68257">
        <ele>363.04</ele>
        <time>2020-05-18T12:42:43Z</time>
      </trkpt>
      <trkpt lat="45.76027" lon="4.68254">
        <ele>363.04</ele>
        <time>2020-05-18T12:42:44Z</time>
      </trkpt>
      <trkpt lat="45.76039" lon="4.68209">
        <ele>363.52</ele>
        <time>2020-05-18T12:42:59Z</time>
      </trkpt>
      <trkpt lat="45.76056" lon="4.68146">
        <ele>365.44</ele>
        <time>2020-05-18T12:43:19Z</time>
      </trkpt>
      <trkpt lat="45.76066" lon="4.68099">
        <ele>366.88</ele>
        <time>2020-05-18T12:43:34Z</time>
      </trkpt>
      <trkpt lat="45.76076" lon="4.68048">
        <ele>369.28</ele>
        <time>2020-05-18T12:43:50Z</time>
      </trkpt>
      <trkpt lat="45.76084" lon="4.67998">
        <ele>370.24</ele>
        <time>2020-05-18T12:44:06Z</time>
      </trkpt>
      <trkpt lat="45.76096" lon="4.67946">
        <ele>372.17</ele>
        <time>2020-05-18T12:44:23Z</time>
      </trkpt>
      <trkpt lat="45.76106" lon="4.67902">
        <ele>374.57</ele>
        <time>2020-05-18T12:44:41Z</time>
      </trkpt>
      <trkpt lat="45.76106" lon="4.679">
        <ele>374.57</ele>
        <time>2020-05-18T12:44:42Z</time>
      </trkpt>
      <trkpt lat="45.76109" lon="4.67882">
        <ele>376.01</ele>
        <time>2020-05-18T12:44:50Z</time>
      </trkpt>
      <trkpt lat="45.7611" lon="4.6788">
        <ele>376.01</ele>
        <time>2020-05-18T12:44:51Z</time>
      </trkpt>
      <trkpt lat="45.7611" lon="4.67877">
        <ele>376.49</ele>
        <time>2020-05-18T12:44:52Z</time>
      </trkpt>
      <trkpt lat="45.76111" lon="4.67874">
        <ele>376.49</ele>
        <time>2020-05-18T12:44:53Z</time>
      </trkpt>
      <trkpt lat="45.76111" lon="4.67871">
        <ele>376.49</ele>
        <time>2020-05-18T12:44:54Z</time>
      </trkpt>
      <trkpt lat="45.76112" lon="4.67869">
        <ele>376.49</ele>
        <time>2020-05-18T12:44:55Z</time>
      </trkpt>
      <trkpt lat="45.76112" lon="4.67866">
        <ele>376.97</ele>
        <time>2020-05-18T12:44:56Z</time>
      </trkpt>
      <trkpt lat="45.76125" lon="4.67817">
        <ele>378.42</ele>
        <time>2020-05-18T12:45:15Z</time>
      </trkpt>
      <trkpt lat="45.76134" lon="4.67783">
        <ele>379.86</ele>
        <time>2020-05-18T12:45:29Z</time>
      </trkpt>
      <trkpt lat="45.76149" lon="4.67744">
        <ele>381.78</ele>
        <time>2020-05-18T12:45:45Z</time>
      </trkpt>
      <trkpt lat="45.76162" lon="4.67708">
        <ele>383.22</ele>
        <time>2020-05-18T12:46:03Z</time>
      </trkpt>
      <trkpt lat="45.76163" lon="4.67704">
        <ele>384.18</ele>
        <time>2020-05-18T12:46:05Z</time>
      </trkpt>
      <trkpt lat="45.76163" lon="4.67702">
        <ele>384.18</ele>
        <time>2020-05-18T12:46:06Z</time>
      </trkpt>
      <trkpt lat="45.76164" lon="4.677">
        <ele>384.18</ele>
        <time>2020-05-18T12:46:07Z</time>
      </trkpt>
      <trkpt lat="45.76165" lon="4.67698">
        <ele>384.18</ele>
        <time>2020-05-18T12:46:08Z</time>
      </trkpt>
      <trkpt lat="45.76165" lon="4.67696">
        <ele>384.18</ele>
        <time>2020-05-18T12:46:09Z</time>
      </trkpt>
      <trkpt lat="45.76166" lon="4.67695">
        <ele>384.66</ele>
        <time>2020-05-18T12:46:10Z</time>
      </trkpt>
      <trkpt lat="45.76167" lon="4.67693">
        <ele>384.66</ele>
        <time>2020-05-18T12:46:11Z</time>
      </trkpt>
      <trkpt lat="45.76168" lon="4.67691">
        <ele>384.66</ele>
        <time>2020-05-18T12:46:12Z</time>
      </trkpt>
      <trkpt lat="45.76168" lon="4.67689">
        <ele>384.66</ele>
        <time>2020-05-18T12:46:13Z</time>
      </trkpt>
      <trkpt lat="45.76178" lon="4.67657">
        <ele>386.11</ele>
        <time>2020-05-18T12:46:28Z</time>
      </trkpt>
      <trkpt lat="45.76185" lon="4.67632">
        <ele>387.55</ele>
        <time>2020-05-18T12:46:40Z</time>
      </trkpt>
      <trkpt lat="45.76186" lon="4.6763">
        <ele>387.55</ele>
        <time>2020-05-18T12:46:41Z</time>
      </trkpt>
      <trkpt lat="45.76187" lon="4.67628">
        <ele>387.55</ele>
        <time>2020-05-18T12:46:42Z</time>
      </trkpt>
      <trkpt lat="45.76187" lon="4.67626">
        <ele>387.55</ele>
        <time>2020-05-18T12:46:43Z</time>
      </trkpt>
      <trkpt lat="45.76188" lon="4.67624">
        <ele>387.55</ele>
        <time>2020-05-18T12:46:44Z</time>
      </trkpt>
      <trkpt lat="45.76196" lon="4.67592">
        <ele>389.95</ele>
        <time>2020-05-18T12:47:01Z</time>
      </trkpt>
      <trkpt lat="45.76201" lon="4.67561">
        <ele>391.87</ele>
        <time>2020-05-18T12:47:15Z</time>
      </trkpt>
      <trkpt lat="45.76206" lon="4.67532">
        <ele>394.28</ele>
        <time>2020-05-18T12:47:28Z</time>
      </trkpt>
      <trkpt lat="45.76207" lon="4.67531">
        <ele>394.28</ele>
        <time>2020-05-18T12:47:29Z</time>
      </trkpt>
      <trkpt lat="45.76207" lon="4.67529">
        <ele>394.76</ele>
        <time>2020-05-18T12:47:30Z</time>
      </trkpt>
      <trkpt lat="45.76207" lon="4.67527">
        <ele>394.76</ele>
        <time>2020-05-18T12:47:31Z</time>
      </trkpt>
      <trkpt lat="45.76207" lon="4.67525">
        <ele>394.76</ele>
        <time>2020-05-18T12:47:32Z</time>
      </trkpt>
      <trkpt lat="45.76214" lon="4.6749">
        <ele>397.16</ele>
        <time>2020-05-18T12:47:50Z</time>
      </trkpt>
      <trkpt lat="45.76221" lon="4.67448">
        <ele>400.53</ele>
        <time>2020-05-18T12:48:11Z</time>
      </trkpt>
      <trkpt lat="45.76228" lon="4.67416">
        <ele>402.45</ele>
        <time>2020-05-18T12:48:27Z</time>
      </trkpt>
      <trkpt lat="45.76231" lon="4.67398">
        <ele>403.89</ele>
        <time>2020-05-18T12:48:36Z</time>
      </trkpt>
      <trkpt lat="45.76231" lon="4.67396">
        <ele>403.89</ele>
        <time>2020-05-18T12:48:37Z</time>
      </trkpt>
      <trkpt lat="45.76232" lon="4.67394">
        <ele>403.89</ele>
        <time>2020-05-18T12:48:38Z</time>
      </trkpt>
      <trkpt lat="45.76239" lon="4.67357">
        <ele>407.26</ele>
        <time>2020-05-18T12:48:57Z</time>
      </trkpt>
      <trkpt lat="45.76244" lon="4.67339">
        <ele>408.22</ele>
        <time>2020-05-18T12:49:12Z</time>
      </trkpt>
      <trkpt lat="45.76243" lon="4.6734">
        <ele>408.22</ele>
        <time>2020-05-18T12:49:34Z</time>
      </trkpt>
      <trkpt lat="45.76241" lon="4.67338">
        <ele>408.22</ele>
        <time>2020-05-18T12:49:51Z</time>
      </trkpt>
      <trkpt lat="45.76241" lon="4.67337">
        <ele>408.22</ele>
        <time>2020-05-18T12:50:18Z</time>
      </trkpt>
      <trkpt lat="45.76241" lon="4.67338">
        <ele>406.77</ele>
        <time>2020-05-18T12:50:35Z</time>
      </trkpt>
      <trkpt lat="45.76245" lon="4.67338">
        <ele>406.77</ele>
        <time>2020-05-18T12:50:51Z</time>
      </trkpt>
      <trkpt lat="45.76275" lon="4.67337">
        <ele>405.81</ele>
        <time>2020-05-18T12:51:02Z</time>
      </trkpt>
      <trkpt lat="45.76287" lon="4.67338">
        <ele>404.85</ele>
        <time>2020-05-18T12:51:06Z</time>
      </trkpt>
      <trkpt lat="45.76303" lon="4.67355">
        <ele>405.81</ele>
        <time>2020-05-18T12:51:16Z</time>
      </trkpt>
      <trkpt lat="45.76304" lon="4.67356">
        <ele>406.29</ele>
        <time>2020-05-18T12:51:32Z</time>
      </trkpt>
      <trkpt lat="45.76302" lon="4.67362">
        <ele>406.29</ele>
        <time>2020-05-18T12:51:50Z</time>
      </trkpt>
      <trkpt lat="45.76303" lon="4.67372">
        <ele>406.29</ele>
        <time>2020-05-18T12:52:02Z</time>
      </trkpt>
      <trkpt lat="45.76304" lon="4.67372">
        <ele>404.37</ele>
        <time>2020-05-18T12:52:09Z</time>
      </trkpt>
      <trkpt lat="45.76302" lon="4.67372">
        <ele>403.89</ele>
        <time>2020-05-18T13:54:25Z</time>
      </trkpt>
      <trkpt lat="45.76302" lon="4.67372">
        <ele>403.89</ele>
        <time>2020-05-18T13:54:26Z</time>
      </trkpt>
      <trkpt lat="45.76305" lon="4.67371">
        <ele>401.01</ele>
        <time>2020-05-18T13:54:47Z</time>
      </trkpt>
      <trkpt lat="45.76306" lon="4.67373">
        <ele>397.64</ele>
        <time>2020-05-18T13:55:13Z</time>
      </trkpt>
      <trkpt lat="45.76306" lon="4.67371">
        <ele>396.2</ele>
        <time>2020-05-18T13:55:16Z</time>
      </trkpt>
      <trkpt lat="45.76305" lon="4.6737">
        <ele>396.2</ele>
        <time>2020-05-18T13:55:17Z</time>
      </trkpt>
      <trkpt lat="45.76305" lon="4.6737">
        <ele>396.68</ele>
        <time>2020-05-18T13:55:31Z</time>
      </trkpt>
      <trkpt lat="45.76298" lon="4.67361">
        <ele>396.68</ele>
        <time>2020-05-18T13:55:45Z</time>
      </trkpt>
      <trkpt lat="45.76296" lon="4.67355">
        <ele>396.68</ele>
        <time>2020-05-18T13:55:51Z</time>
      </trkpt>
      <trkpt lat="45.76288" lon="4.67337">
        <ele>396.68</ele>
        <time>2020-05-18T13:56:07Z</time>
      </trkpt>
      <trkpt lat="45.76286" lon="4.67335">
        <ele>397.64</ele>
        <time>2020-05-18T13:56:15Z</time>
      </trkpt>
      <trkpt lat="45.76285" lon="4.67334">
        <ele>397.64</ele>
        <time>2020-05-18T13:56:16Z</time>
      </trkpt>
      <trkpt lat="45.76256" lon="4.6734">
        <ele>398.6</ele>
        <time>2020-05-18T13:56:33Z</time>
      </trkpt>
      <trkpt lat="45.76243" lon="4.67333">
        <ele>399.57</ele>
        <time>2020-05-18T13:56:43Z</time>
      </trkpt>
      <trkpt lat="45.76245" lon="4.67323">
        <ele>400.53</ele>
        <time>2020-05-18T13:56:48Z</time>
      </trkpt>
      <trkpt lat="45.76248" lon="4.67308">
        <ele>401.97</ele>
        <time>2020-05-18T13:56:56Z</time>
      </trkpt>
      <trkpt lat="45.76248" lon="4.67301">
        <ele>401.97</ele>
        <time>2020-05-18T13:57:00Z</time>
      </trkpt>
      <trkpt lat="45.76255" lon="4.67266">
        <ele>404.37</ele>
        <time>2020-05-18T13:57:18Z</time>
      </trkpt>
      <trkpt lat="45.76262" lon="4.67225">
        <ele>406.77</ele>
        <time>2020-05-18T13:57:38Z</time>
      </trkpt>
      <trkpt lat="45.76268" lon="4.67193">
        <ele>409.18</ele>
        <time>2020-05-18T13:57:56Z</time>
      </trkpt>
      <trkpt lat="45.76274" lon="4.67161">
        <ele>411.58</ele>
        <time>2020-05-18T13:58:14Z</time>
      </trkpt>
      <trkpt lat="45.76276" lon="4.67132">
        <ele>413.98</ele>
        <time>2020-05-18T13:58:29Z</time>
      </trkpt>
      <trkpt lat="45.76276" lon="4.67117">
        <ele>417.35</ele>
        <time>2020-05-18T13:58:37Z</time>
      </trkpt>
      <trkpt lat="45.7628" lon="4.67085">
        <ele>419.27</ele>
        <time>2020-05-18T13:58:54Z</time>
      </trkpt>
      <trkpt lat="45.76283" lon="4.67054">
        <ele>420.71</ele>
        <time>2020-05-18T13:59:10Z</time>
      </trkpt>
      <trkpt lat="45.76286" lon="4.6702">
        <ele>422.64</ele>
        <time>2020-05-18T13:59:27Z</time>
      </trkpt>
      <trkpt lat="45.76289" lon="4.66983">
        <ele>424.56</ele>
        <time>2020-05-18T13:59:44Z</time>
      </trkpt>
      <trkpt lat="45.76294" lon="4.6695">
        <ele>426.48</ele>
        <time>2020-05-18T13:59:57Z</time>
      </trkpt>
      <trkpt lat="45.76298" lon="4.66886">
        <ele>427.44</ele>
        <time>2020-05-18T14:00:18Z</time>
      </trkpt>
      <trkpt lat="45.76312" lon="4.66814">
        <ele>428.4</ele>
        <time>2020-05-18T14:00:34Z</time>
      </trkpt>
      <trkpt lat="45.76314" lon="4.66802">
        <ele>428.4</ele>
        <time>2020-05-18T14:00:36Z</time>
      </trkpt>
      <trkpt lat="45.76338" lon="4.66716">
        <ele>424.56</ele>
        <time>2020-05-18T14:00:48Z</time>
      </trkpt>
      <trkpt lat="45.76365" lon="4.66609">
        <ele>422.16</ele>
        <time>2020-05-18T14:01:00Z</time>
      </trkpt>
      <trkpt lat="45.76388" lon="4.66516">
        <ele>421.68</ele>
        <time>2020-05-18T14:01:13Z</time>
      </trkpt>
      <trkpt lat="45.76391" lon="4.66496">
        <ele>421.19</ele>
        <time>2020-05-18T14:01:16Z</time>
      </trkpt>
      <trkpt lat="45.76391" lon="4.6649">
        <ele>421.19</ele>
        <time>2020-05-18T14:01:17Z</time>
      </trkpt>
      <trkpt lat="45.76391" lon="4.66484">
        <ele>421.19</ele>
        <time>2020-05-18T14:01:18Z</time>
      </trkpt>
      <trkpt lat="45.76392" lon="4.66478">
        <ele>421.19</ele>
        <time>2020-05-18T14:01:19Z</time>
      </trkpt>
      <trkpt lat="45.76394" lon="4.66474">
        <ele>421.19</ele>
        <time>2020-05-18T14:01:20Z</time>
      </trkpt>
      <trkpt lat="45.76396" lon="4.66471">
        <ele>421.19</ele>
        <time>2020-05-18T14:01:21Z</time>
      </trkpt>
      <trkpt lat="45.76414" lon="4.6641">
        <ele>421.19</ele>
        <time>2020-05-18T14:01:33Z</time>
      </trkpt>
      <trkpt lat="45.76444" lon="4.66309">
        <ele>420.23</ele>
        <time>2020-05-18T14:01:48Z</time>
      </trkpt>
      <trkpt lat="45.76468" lon="4.66211">
        <ele>420.23</ele>
        <time>2020-05-18T14:02:04Z</time>
      </trkpt>
      <trkpt lat="45.76483" lon="4.66152">
        <ele>421.68</ele>
        <time>2020-05-18T14:02:15Z</time>
      </trkpt>
      <trkpt lat="45.76496" lon="4.66101">
        <ele>423.12</ele>
        <time>2020-05-18T14:02:30Z</time>
      </trkpt>
      <trkpt lat="45.76496" lon="4.66063">
        <ele>424.56</ele>
        <time>2020-05-18T14:02:40Z</time>
      </trkpt>
      <trkpt lat="45.76498" lon="4.66054">
        <ele>425.52</ele>
        <time>2020-05-18T14:02:43Z</time>
      </trkpt>
      <trkpt lat="45.76504" lon="4.6601">
        <ele>427.44</ele>
        <time>2020-05-18T14:02:59Z</time>
      </trkpt>
      <trkpt lat="45.76522" lon="4.65989">
        <ele>429.85</ele>
        <time>2020-05-18T14:03:13Z</time>
      </trkpt>
      <trkpt lat="45.76526" lon="4.65988">
        <ele>430.33</ele>
        <time>2020-05-18T14:03:16Z</time>
      </trkpt>
      <trkpt lat="45.76545" lon="4.65983">
        <ele>431.29</ele>
        <time>2020-05-18T14:03:30Z</time>
      </trkpt>
      <trkpt lat="45.76554" lon="4.65981">
        <ele>431.77</ele>
        <time>2020-05-18T14:03:37Z</time>
      </trkpt>
      <trkpt lat="45.76564" lon="4.65982">
        <ele>433.21</ele>
        <time>2020-05-18T14:03:45Z</time>
      </trkpt>
      <trkpt lat="45.76565" lon="4.65982">
        <ele>433.21</ele>
        <time>2020-05-18T14:03:46Z</time>
      </trkpt>
      <trkpt lat="45.76566" lon="4.65982">
        <ele>433.21</ele>
        <time>2020-05-18T14:03:47Z</time>
      </trkpt>
      <trkpt lat="45.76591" lon="4.65975">
        <ele>434.65</ele>
        <time>2020-05-18T14:04:02Z</time>
      </trkpt>
      <trkpt lat="45.76615" lon="4.65969">
        <ele>435.13</ele>
        <time>2020-05-18T14:04:16Z</time>
      </trkpt>
      <trkpt lat="45.76643" lon="4.65972">
        <ele>436.58</ele>
        <time>2020-05-18T14:04:32Z</time>
      </trkpt>
      <trkpt lat="45.76671" lon="4.65979">
        <ele>438.5</ele>
        <time>2020-05-18T14:04:47Z</time>
      </trkpt>
      <trkpt lat="45.76698" lon="4.6598">
        <ele>440.42</ele>
        <time>2020-05-18T14:05:02Z</time>
      </trkpt>
      <trkpt lat="45.76708" lon="4.65981">
        <ele>427.92</ele>
        <time>2020-05-18T14:05:07Z</time>
      </trkpt>
      <trkpt lat="45.76709" lon="4.6598">
        <ele>452.44</ele>
        <time>2020-05-18T14:05:08Z</time>
      </trkpt>
      <trkpt lat="45.76711" lon="4.6598">
        <ele>441.86</ele>
        <time>2020-05-18T14:05:09Z</time>
      </trkpt>
      <trkpt lat="45.76727" lon="4.6598">
        <ele>442.82</ele>
        <time>2020-05-18T14:05:18Z</time>
      </trkpt>
      <trkpt lat="45.76737" lon="4.65977">
        <ele>444.27</ele>
        <time>2020-05-18T14:05:25Z</time>
      </trkpt>
      <trkpt lat="45.76738" lon="4.65978">
        <ele>444.27</ele>
        <time>2020-05-18T14:05:26Z</time>
      </trkpt>
      <trkpt lat="45.76739" lon="4.65979">
        <ele>444.27</ele>
        <time>2020-05-18T14:05:27Z</time>
      </trkpt>
      <trkpt lat="45.76741" lon="4.65979">
        <ele>444.27</ele>
        <time>2020-05-18T14:05:28Z</time>
      </trkpt>
      <trkpt lat="45.76742" lon="4.65978">
        <ele>444.27</ele>
        <time>2020-05-18T14:05:29Z</time>
      </trkpt>
      <trkpt lat="45.76744" lon="4.65977">
        <ele>444.75</ele>
        <time>2020-05-18T14:05:30Z</time>
      </trkpt>
      <trkpt lat="45.76746" lon="4.65977">
        <ele>444.75</ele>
        <time>2020-05-18T14:05:31Z</time>
      </trkpt>
      <trkpt lat="45.76747" lon="4.65977">
        <ele>444.75</ele>
        <time>2020-05-18T14:05:32Z</time>
      </trkpt>
      <trkpt lat="45.76749" lon="4.65977">
        <ele>445.23</ele>
        <time>2020-05-18T14:05:33Z</time>
      </trkpt>
      <trkpt lat="45.76775" lon="4.65971">
        <ele>447.63</ele>
        <time>2020-05-18T14:05:49Z</time>
      </trkpt>
      <trkpt lat="45.76793" lon="4.65951">
        <ele>449.55</ele>
        <time>2020-05-18T14:06:04Z</time>
      </trkpt>
      <trkpt lat="45.7681" lon="4.65917">
        <ele>451.96</ele>
        <time>2020-05-18T14:06:22Z</time>
      </trkpt>
      <trkpt lat="45.76816" lon="4.65863">
        <ele>453.4</ele>
        <time>2020-05-18T14:06:43Z</time>
      </trkpt>
      <trkpt lat="45.76809" lon="4.65812">
        <ele>454.36</ele>
        <time>2020-05-18T14:06:59Z</time>
      </trkpt>
      <trkpt lat="45.76797" lon="4.65759">
        <ele>454.84</ele>
        <time>2020-05-18T14:07:15Z</time>
      </trkpt>
      <trkpt lat="45.76786" lon="4.65716">
        <ele>455.8</ele>
        <time>2020-05-18T14:07:30Z</time>
      </trkpt>
      <trkpt lat="45.76777" lon="4.6568">
        <ele>457.24</ele>
        <time>2020-05-18T14:07:44Z</time>
      </trkpt>
      <trkpt lat="45.76776" lon="4.65679">
        <ele>457.24</ele>
        <time>2020-05-18T14:07:45Z</time>
      </trkpt>
      <trkpt lat="45.76767" lon="4.65646">
        <ele>459.17</ele>
        <time>2020-05-18T14:07:57Z</time>
      </trkpt>
      <trkpt lat="45.76754" lon="4.65603">
        <ele>461.09</ele>
        <time>2020-05-18T14:08:13Z</time>
      </trkpt>
      <trkpt lat="45.76742" lon="4.65567">
        <ele>463.01</ele>
        <time>2020-05-18T14:08:28Z</time>
      </trkpt>
      <trkpt lat="45.76734" lon="4.6554">
        <ele>463.97</ele>
        <time>2020-05-18T14:08:42Z</time>
      </trkpt>
      <trkpt lat="45.76733" lon="4.65538">
        <ele>463.97</ele>
        <time>2020-05-18T14:08:43Z</time>
      </trkpt>
      <trkpt lat="45.76724" lon="4.65503">
        <ele>466.38</ele>
        <time>2020-05-18T14:08:57Z</time>
      </trkpt>
      <trkpt lat="45.76709" lon="4.65455">
        <ele>469.74</ele>
        <time>2020-05-18T14:09:14Z</time>
      </trkpt>
      <trkpt lat="45.76697" lon="4.65416">
        <ele>471.66</ele>
        <time>2020-05-18T14:09:28Z</time>
      </trkpt>
      <trkpt lat="45.76687" lon="4.65382">
        <ele>472.63</ele>
        <time>2020-05-18T14:09:40Z</time>
      </trkpt>
      <trkpt lat="45.76679" lon="4.65335">
        <ele>473.59</ele>
        <time>2020-05-18T14:09:58Z</time>
      </trkpt>
      <trkpt lat="45.76677" lon="4.65287">
        <ele>473.59</ele>
        <time>2020-05-18T14:10:13Z</time>
      </trkpt>
      <trkpt lat="45.76674" lon="4.6522">
        <ele>474.55</ele>
        <time>2020-05-18T14:10:31Z</time>
      </trkpt>
      <trkpt lat="45.76668" lon="4.6516">
        <ele>476.95</ele>
        <time>2020-05-18T14:10:48Z</time>
      </trkpt>
      <trkpt lat="45.76662" lon="4.65118">
        <ele>478.87</ele>
        <time>2020-05-18T14:11:04Z</time>
      </trkpt>
      <trkpt lat="45.7666" lon="4.65083">
        <ele>481.28</ele>
        <time>2020-05-18T14:11:19Z</time>
      </trkpt>
      <trkpt lat="45.7666" lon="4.65058">
        <ele>482.72</ele>
        <time>2020-05-18T14:11:30Z</time>
      </trkpt>
      <trkpt lat="45.76659" lon="4.65056">
        <ele>482.72</ele>
        <time>2020-05-18T14:11:31Z</time>
      </trkpt>
      <trkpt lat="45.76659" lon="4.65054">
        <ele>482.72</ele>
        <time>2020-05-18T14:11:32Z</time>
      </trkpt>
      <trkpt lat="45.7666" lon="4.65051">
        <ele>482.72</ele>
        <time>2020-05-18T14:11:33Z</time>
      </trkpt>
      <trkpt lat="45.7666" lon="4.65049">
        <ele>483.68</ele>
        <time>2020-05-18T14:11:34Z</time>
      </trkpt>
      <trkpt lat="45.76661" lon="4.65046">
        <ele>483.68</ele>
        <time>2020-05-18T14:11:35Z</time>
      </trkpt>
      <trkpt lat="45.76675" lon="4.65004">
        <ele>486.56</ele>
        <time>2020-05-18T14:11:52Z</time>
      </trkpt>
      <trkpt lat="45.76693" lon="4.64962">
        <ele>489.45</ele>
        <time>2020-05-18T14:12:11Z</time>
      </trkpt>
      <trkpt lat="45.76708" lon="4.64927">
        <ele>491.37</ele>
        <time>2020-05-18T14:12:27Z</time>
      </trkpt>
      <trkpt lat="45.76723" lon="4.64892">
        <ele>493.77</ele>
        <time>2020-05-18T14:12:42Z</time>
      </trkpt>
      <trkpt lat="45.76746" lon="4.64846">
        <ele>495.7</ele>
        <time>2020-05-18T14:13:03Z</time>
      </trkpt>
      <trkpt lat="45.76769" lon="4.64815">
        <ele>497.62</ele>
        <time>2020-05-18T14:13:20Z</time>
      </trkpt>
      <trkpt lat="45.76789" lon="4.64818">
        <ele>500.02</ele>
        <time>2020-05-18T14:13:34Z</time>
      </trkpt>
      <trkpt lat="45.768" lon="4.64859">
        <ele>501.95</ele>
        <time>2020-05-18T14:13:50Z</time>
      </trkpt>
      <trkpt lat="45.76818" lon="4.64887">
        <ele>503.39</ele>
        <time>2020-05-18T14:14:05Z</time>
      </trkpt>
      <trkpt lat="45.7682" lon="4.64887">
        <ele>503.39</ele>
        <time>2020-05-18T14:14:06Z</time>
      </trkpt>
      <trkpt lat="45.76822" lon="4.64888">
        <ele>503.39</ele>
        <time>2020-05-18T14:14:07Z</time>
      </trkpt>
      <trkpt lat="45.76823" lon="4.64889">
        <ele>503.39</ele>
        <time>2020-05-18T14:14:08Z</time>
      </trkpt>
      <trkpt lat="45.76825" lon="4.64889">
        <ele>503.87</ele>
        <time>2020-05-18T14:14:09Z</time>
      </trkpt>
      <trkpt lat="45.76827" lon="4.6489">
        <ele>503.87</ele>
        <time>2020-05-18T14:14:10Z</time>
      </trkpt>
      <trkpt lat="45.76828" lon="4.6489">
        <ele>503.87</ele>
        <time>2020-05-18T14:14:11Z</time>
      </trkpt>
      <trkpt lat="45.7683" lon="4.6489">
        <ele>503.87</ele>
        <time>2020-05-18T14:14:12Z</time>
      </trkpt>
      <trkpt lat="45.76831" lon="4.64891">
        <ele>504.35</ele>
        <time>2020-05-18T14:14:13Z</time>
      </trkpt>
      <trkpt lat="45.76853" lon="4.64887">
        <ele>506.27</ele>
        <time>2020-05-18T14:14:26Z</time>
      </trkpt>
      <trkpt lat="45.76865" lon="4.64886">
        <ele>506.75</ele>
        <time>2020-05-18T14:14:34Z</time>
      </trkpt>
      <trkpt lat="45.76866" lon="4.64886">
        <ele>507.23</ele>
        <time>2020-05-18T14:14:35Z</time>
      </trkpt>
      <trkpt lat="45.76868" lon="4.64885">
        <ele>507.23</ele>
        <time>2020-05-18T14:14:36Z</time>
      </trkpt>
      <trkpt lat="45.76869" lon="4.64885">
        <ele>507.23</ele>
        <time>2020-05-18T14:14:37Z</time>
      </trkpt>
      <trkpt lat="45.7687" lon="4.64884">
        <ele>507.71</ele>
        <time>2020-05-18T14:14:38Z</time>
      </trkpt>
      <trkpt lat="45.76872" lon="4.64884">
        <ele>507.71</ele>
        <time>2020-05-18T14:14:39Z</time>
      </trkpt>
      <trkpt lat="45.76873" lon="4.64884">
        <ele>507.71</ele>
        <time>2020-05-18T14:14:40Z</time>
      </trkpt>
      <trkpt lat="45.76875" lon="4.64883">
        <ele>507.71</ele>
        <time>2020-05-18T14:14:41Z</time>
      </trkpt>
      <trkpt lat="45.76876" lon="4.64883">
        <ele>507.71</ele>
        <time>2020-05-18T14:14:42Z</time>
      </trkpt>
      <trkpt lat="45.76878" lon="4.64883">
        <ele>508.67</ele>
        <time>2020-05-18T14:14:43Z</time>
      </trkpt>
      <trkpt lat="45.7688" lon="4.64883">
        <ele>508.67</ele>
        <time>2020-05-18T14:14:44Z</time>
      </trkpt>
      <trkpt lat="45.76881" lon="4.64882">
        <ele>508.67</ele>
        <time>2020-05-18T14:14:45Z</time>
      </trkpt>
      <trkpt lat="45.76905" lon="4.64885">
        <ele>510.6</ele>
        <time>2020-05-18T14:14:59Z</time>
      </trkpt>
      <trkpt lat="45.7694" lon="4.64892">
        <ele>512.52</ele>
        <time>2020-05-18T14:15:16Z</time>
      </trkpt>
      <trkpt lat="45.76968" lon="4.64888">
        <ele>513.96</ele>
        <time>2020-05-18T14:15:31Z</time>
      </trkpt>
      <trkpt lat="45.76975" lon="4.64886">
        <ele>514.44</ele>
        <time>2020-05-18T14:15:41Z</time>
      </trkpt>
      <trkpt lat="45.76974" lon="4.64884">
        <ele>514.44</ele>
        <time>2020-05-18T14:15:59Z</time>
      </trkpt>
      <trkpt lat="45.7697" lon="4.64876">
        <ele>514.92</ele>
        <time>2020-05-18T14:16:29Z</time>
      </trkpt>
      <trkpt lat="45.76975" lon="4.64882">
        <ele>515.88</ele>
        <time>2020-05-18T14:17:05Z</time>
      </trkpt>
      <trkpt lat="45.76974" lon="4.64887">
        <ele>515.88</ele>
        <time>2020-05-18T14:17:17Z</time>
      </trkpt>
      <trkpt lat="45.76974" lon="4.64891">
        <ele>515.88</ele>
        <time>2020-05-18T14:17:18Z</time>
      </trkpt>
      <trkpt lat="45.76975" lon="4.64897">
        <ele>514.44</ele>
        <time>2020-05-18T14:17:19Z</time>
      </trkpt>
      <trkpt lat="45.7698" lon="4.64911">
        <ele>512.04</ele>
        <time>2020-05-18T14:17:21Z</time>
      </trkpt>
      <trkpt lat="45.76982" lon="4.64921">
        <ele>511.56</ele>
        <time>2020-05-18T14:17:22Z</time>
      </trkpt>
      <trkpt lat="45.76984" lon="4.64931">
        <ele>509.64</ele>
        <time>2020-05-18T14:17:23Z</time>
      </trkpt>
      <trkpt lat="45.76987" lon="4.64941">
        <ele>508.67</ele>
        <time>2020-05-18T14:17:24Z</time>
      </trkpt>
      <trkpt lat="45.7699" lon="4.6495">
        <ele>508.19</ele>
        <time>2020-05-18T14:17:25Z</time>
      </trkpt>
      <trkpt lat="45.77004" lon="4.64981">
        <ele>504.83</ele>
        <time>2020-05-18T14:17:30Z</time>
      </trkpt>
      <trkpt lat="45.77014" lon="4.64986">
        <ele>503.87</ele>
        <time>2020-05-18T14:17:34Z</time>
      </trkpt>
      <trkpt lat="45.77017" lon="4.64984">
        <ele>503.39</ele>
        <time>2020-05-18T14:17:35Z</time>
      </trkpt>
      <trkpt lat="45.7702" lon="4.64982">
        <ele>503.39</ele>
        <time>2020-05-18T14:17:36Z</time>
      </trkpt>
      <trkpt lat="45.77046" lon="4.64943">
        <ele>503.87</ele>
        <time>2020-05-18T14:17:48Z</time>
      </trkpt>
      <trkpt lat="45.77057" lon="4.64906">
        <ele>504.83</ele>
        <time>2020-05-18T14:17:58Z</time>
      </trkpt>
      <trkpt lat="45.77063" lon="4.64863">
        <ele>505.31</ele>
        <time>2020-05-18T14:18:09Z</time>
      </trkpt>
      <trkpt lat="45.77068" lon="4.64819">
        <ele>503.39</ele>
        <time>2020-05-18T14:18:18Z</time>
      </trkpt>
      <trkpt lat="45.7707" lon="4.64813">
        <ele>502.91</ele>
        <time>2020-05-18T14:18:19Z</time>
      </trkpt>
      <trkpt lat="45.77072" lon="4.64806">
        <ele>502.91</ele>
        <time>2020-05-18T14:18:20Z</time>
      </trkpt>
      <trkpt lat="45.7708" lon="4.64781">
        <ele>500.5</ele>
        <time>2020-05-18T14:18:23Z</time>
      </trkpt>
      <trkpt lat="45.77091" lon="4.64759">
        <ele>498.58</ele>
        <time>2020-05-18T14:18:26Z</time>
      </trkpt>
      <trkpt lat="45.77097" lon="4.64753">
        <ele>498.1</ele>
        <time>2020-05-18T14:18:27Z</time>
      </trkpt>
      <trkpt lat="45.77104" lon="4.64748">
        <ele>497.14</ele>
        <time>2020-05-18T14:18:28Z</time>
      </trkpt>
      <trkpt lat="45.7711" lon="4.64746">
        <ele>497.14</ele>
        <time>2020-05-18T14:18:29Z</time>
      </trkpt>
      <trkpt lat="45.77118" lon="4.64747">
        <ele>496.18</ele>
        <time>2020-05-18T14:18:30Z</time>
      </trkpt>
      <trkpt lat="45.77124" lon="4.64749">
        <ele>496.18</ele>
        <time>2020-05-18T14:18:31Z</time>
      </trkpt>
      <trkpt lat="45.7713" lon="4.64751">
        <ele>496.18</ele>
        <time>2020-05-18T14:18:32Z</time>
      </trkpt>
      <trkpt lat="45.77152" lon="4.64759">
        <ele>495.7</ele>
        <time>2020-05-18T14:18:36Z</time>
      </trkpt>
      <trkpt lat="45.77155" lon="4.6476">
        <ele>496.66</ele>
        <time>2020-05-18T14:18:37Z</time>
      </trkpt>
      <trkpt lat="45.77158" lon="4.64762">
        <ele>496.66</ele>
        <time>2020-05-18T14:18:38Z</time>
      </trkpt>
      <trkpt lat="45.77161" lon="4.64763">
        <ele>496.66</ele>
        <time>2020-05-18T14:18:39Z</time>
      </trkpt>
      <trkpt lat="45.77164" lon="4.64763">
        <ele>497.14</ele>
        <time>2020-05-18T14:18:40Z</time>
      </trkpt>
      <trkpt lat="45.77167" lon="4.64764">
        <ele>497.62</ele>
        <time>2020-05-18T14:18:41Z</time>
      </trkpt>
      <trkpt lat="45.77193" lon="4.64761">
        <ele>499.54</ele>
        <time>2020-05-18T14:18:55Z</time>
      </trkpt>
      <trkpt lat="45.7721" lon="4.6475">
        <ele>501.95</ele>
        <time>2020-05-18T14:19:08Z</time>
      </trkpt>
      <trkpt lat="45.77225" lon="4.64735">
        <ele>503.87</ele>
        <time>2020-05-18T14:19:21Z</time>
      </trkpt>
      <trkpt lat="45.77236" lon="4.6472">
        <ele>505.31</ele>
        <time>2020-05-18T14:19:34Z</time>
      </trkpt>
      <trkpt lat="45.77237" lon="4.64718">
        <ele>505.31</ele>
        <time>2020-05-18T14:19:36Z</time>
      </trkpt>
      <trkpt lat="45.77238" lon="4.64714">
        <ele>505.79</ele>
        <time>2020-05-18T14:19:38Z</time>
      </trkpt>
      <trkpt lat="45.77248" lon="4.6469">
        <ele>506.27</ele>
        <time>2020-05-18T14:19:53Z</time>
      </trkpt>
      <trkpt lat="45.77253" lon="4.64649">
        <ele>506.75</ele>
        <time>2020-05-18T14:20:06Z</time>
      </trkpt>
      <trkpt lat="45.77258" lon="4.64619">
        <ele>506.75</ele>
        <time>2020-05-18T14:20:15Z</time>
      </trkpt>
      <trkpt lat="45.77258" lon="4.64615">
        <ele>506.75</ele>
        <time>2020-05-18T14:20:16Z</time>
      </trkpt>
      <trkpt lat="45.77257" lon="4.6461">
        <ele>505.31</ele>
        <time>2020-05-18T14:20:18Z</time>
      </trkpt>
      <trkpt lat="45.77247" lon="4.6456">
        <ele>504.35</ele>
        <time>2020-05-18T14:20:30Z</time>
      </trkpt>
      <trkpt lat="45.77245" lon="4.64541">
        <ele>505.79</ele>
        <time>2020-05-18T14:20:39Z</time>
      </trkpt>
      <trkpt lat="45.77245" lon="4.64536">
        <ele>505.79</ele>
        <time>2020-05-18T14:20:41Z</time>
      </trkpt>
      <trkpt lat="45.77246" lon="4.64533">
        <ele>505.79</ele>
        <time>2020-05-18T14:20:42Z</time>
      </trkpt>
      <trkpt lat="45.77255" lon="4.64525">
        <ele>508.67</ele>
        <time>2020-05-18T14:20:52Z</time>
      </trkpt>
      <trkpt lat="45.77256" lon="4.64525">
        <ele>508.67</ele>
        <time>2020-05-18T14:20:53Z</time>
      </trkpt>
      <trkpt lat="45.77262" lon="4.64525">
        <ele>509.16</ele>
        <time>2020-05-18T14:21:05Z</time>
      </trkpt>
      <trkpt lat="45.77265" lon="4.64522">
        <ele>509.64</ele>
        <time>2020-05-18T14:21:31Z</time>
      </trkpt>
      <trkpt lat="45.77265" lon="4.64521">
        <ele>509.64</ele>
        <time>2020-05-18T14:21:55Z</time>
      </trkpt>
      <trkpt lat="45.77268" lon="4.64524">
        <ele>509.64</ele>
        <time>2020-05-18T14:22:00Z</time>
      </trkpt>
      <trkpt lat="45.7727" lon="4.64525">
        <ele>509.64</ele>
        <time>2020-05-18T14:22:01Z</time>
      </trkpt>
      <trkpt lat="45.77271" lon="4.64526">
        <ele>509.64</ele>
        <time>2020-05-18T14:22:02Z</time>
      </trkpt>
      <trkpt lat="45.77296" lon="4.64534">
        <ele>506.75</ele>
        <time>2020-05-18T14:22:12Z</time>
      </trkpt>
      <trkpt lat="45.77299" lon="4.64534">
        <ele>506.75</ele>
        <time>2020-05-18T14:22:13Z</time>
      </trkpt>
      <trkpt lat="45.77301" lon="4.64535">
        <ele>506.75</ele>
        <time>2020-05-18T14:22:14Z</time>
      </trkpt>
      <trkpt lat="45.77303" lon="4.64535">
        <ele>506.75</ele>
        <time>2020-05-18T14:22:15Z</time>
      </trkpt>
      <trkpt lat="45.77305" lon="4.64535">
        <ele>506.75</ele>
        <time>2020-05-18T14:22:16Z</time>
      </trkpt>
      <trkpt lat="45.77307" lon="4.64535">
        <ele>506.75</ele>
        <time>2020-05-18T14:22:17Z</time>
      </trkpt>
      <trkpt lat="45.77321" lon="4.64535">
        <ele>508.19</ele>
        <time>2020-05-18T14:22:26Z</time>
      </trkpt>
      <trkpt lat="45.77326" lon="4.64535">
        <ele>508.67</ele>
        <time>2020-05-18T14:22:31Z</time>
      </trkpt>
      <trkpt lat="45.77346" lon="4.64539">
        <ele>510.6</ele>
        <time>2020-05-18T14:22:45Z</time>
      </trkpt>
      <trkpt lat="45.77348" lon="4.64539">
        <ele>510.6</ele>
        <time>2020-05-18T14:22:46Z</time>
      </trkpt>
      <trkpt lat="45.77348" lon="4.64537">
        <ele>511.08</ele>
        <time>2020-05-18T14:22:47Z</time>
      </trkpt>
      <trkpt lat="45.77349" lon="4.64536">
        <ele>511.08</ele>
        <time>2020-05-18T14:22:48Z</time>
      </trkpt>
      <trkpt lat="45.77354" lon="4.6453">
        <ele>513.48</ele>
        <time>2020-05-18T14:22:53Z</time>
      </trkpt>
      <trkpt lat="45.77362" lon="4.64524">
        <ele>513.96</ele>
        <time>2020-05-18T14:23:01Z</time>
      </trkpt>
      <trkpt lat="45.77382" lon="4.64502">
        <ele>516.85</ele>
        <time>2020-05-18T14:23:19Z</time>
      </trkpt>
      <trkpt lat="45.77386" lon="4.64496">
        <ele>517.33</ele>
        <time>2020-05-18T14:23:24Z</time>
      </trkpt>
      <trkpt lat="45.77407" lon="4.64471">
        <ele>518.29</ele>
        <time>2020-05-18T14:23:39Z</time>
      </trkpt>
      <trkpt lat="45.77412" lon="4.64464">
        <ele>518.29</ele>
        <time>2020-05-18T14:23:53Z</time>
      </trkpt>
      <trkpt lat="45.77425" lon="4.64453">
        <ele>517.33</ele>
        <time>2020-05-18T14:24:19Z</time>
      </trkpt>
      <trkpt lat="45.77427" lon="4.6445">
        <ele>517.33</ele>
        <time>2020-05-18T14:24:20Z</time>
      </trkpt>
      <trkpt lat="45.77453" lon="4.64421">
        <ele>513.96</ele>
        <time>2020-05-18T14:24:27Z</time>
      </trkpt>
      <trkpt lat="45.77457" lon="4.64416">
        <ele>513.96</ele>
        <time>2020-05-18T14:24:28Z</time>
      </trkpt>
      <trkpt lat="45.77475" lon="4.64393">
        <ele>510.12</ele>
        <time>2020-05-18T14:24:35Z</time>
      </trkpt>
      <trkpt lat="45.7748" lon="4.64389">
        <ele>509.64</ele>
        <time>2020-05-18T14:24:36Z</time>
      </trkpt>
      <trkpt lat="45.77485" lon="4.64385">
        <ele>509.16</ele>
        <time>2020-05-18T14:24:37Z</time>
      </trkpt>
      <trkpt lat="45.77515" lon="4.64363">
        <ele>508.67</ele>
        <time>2020-05-18T14:24:43Z</time>
      </trkpt>
      <trkpt lat="45.77519" lon="4.64362">
        <ele>508.67</ele>
        <time>2020-05-18T14:24:44Z</time>
      </trkpt>
      <trkpt lat="45.77527" lon="4.64362">
        <ele>508.67</ele>
        <time>2020-05-18T14:24:46Z</time>
      </trkpt>
      <trkpt lat="45.77531" lon="4.64364">
        <ele>508.67</ele>
        <time>2020-05-18T14:24:47Z</time>
      </trkpt>
      <trkpt lat="45.77535" lon="4.64366">
        <ele>508.67</ele>
        <time>2020-05-18T14:24:48Z</time>
      </trkpt>
      <trkpt lat="45.77539" lon="4.64367">
        <ele>508.67</ele>
        <time>2020-05-18T14:24:49Z</time>
      </trkpt>
      <trkpt lat="45.77541" lon="4.64368">
        <ele>510.12</ele>
        <time>2020-05-18T14:24:50Z</time>
      </trkpt>
      <trkpt lat="45.77545" lon="4.64369">
        <ele>510.6</ele>
        <time>2020-05-18T14:24:52Z</time>
      </trkpt>
      <trkpt lat="45.77555" lon="4.64374">
        <ele>512.52</ele>
        <time>2020-05-18T14:24:58Z</time>
      </trkpt>
      <trkpt lat="45.77557" lon="4.64376">
        <ele>512.52</ele>
        <time>2020-05-18T14:25:00Z</time>
      </trkpt>
      <trkpt lat="45.77563" lon="4.64383">
        <ele>513.48</ele>
        <time>2020-05-18T14:25:05Z</time>
      </trkpt>
      <trkpt lat="45.77564" lon="4.64386">
        <ele>513.96</ele>
        <time>2020-05-18T14:25:07Z</time>
      </trkpt>
      <trkpt lat="45.77563" lon="4.64388">
        <ele>514.92</ele>
        <time>2020-05-18T14:25:08Z</time>
      </trkpt>
      <trkpt lat="45.77563" lon="4.64389">
        <ele>514.44</ele>
        <time>2020-05-18T14:25:09Z</time>
      </trkpt>
      <trkpt lat="45.77562" lon="4.64391">
        <ele>514.44</ele>
        <time>2020-05-18T14:25:10Z</time>
      </trkpt>
      <trkpt lat="45.77561" lon="4.64394">
        <ele>514.92</ele>
        <time>2020-05-18T14:25:11Z</time>
      </trkpt>
      <trkpt lat="45.7756" lon="4.64397">
        <ele>514.92</ele>
        <time>2020-05-18T14:25:12Z</time>
      </trkpt>
      <trkpt lat="45.7756" lon="4.644">
        <ele>514.92</ele>
        <time>2020-05-18T14:25:13Z</time>
      </trkpt>
      <trkpt lat="45.7756" lon="4.64403">
        <ele>514.92</ele>
        <time>2020-05-18T14:25:14Z</time>
      </trkpt>
      <trkpt lat="45.77562" lon="4.64405">
        <ele>514.92</ele>
        <time>2020-05-18T14:25:15Z</time>
      </trkpt>
      <trkpt lat="45.77563" lon="4.64407">
        <ele>515.88</ele>
        <time>2020-05-18T14:25:16Z</time>
      </trkpt>
      <trkpt lat="45.77563" lon="4.6441">
        <ele>515.88</ele>
        <time>2020-05-18T14:25:17Z</time>
      </trkpt>
      <trkpt lat="45.77563" lon="4.64412">
        <ele>516.37</ele>
        <time>2020-05-18T14:25:18Z</time>
      </trkpt>
      <trkpt lat="45.77563" lon="4.64415">
        <ele>516.37</ele>
        <time>2020-05-18T14:25:19Z</time>
      </trkpt>
      <trkpt lat="45.77563" lon="4.64417">
        <ele>516.85</ele>
        <time>2020-05-18T14:25:20Z</time>
      </trkpt>
      <trkpt lat="45.77563" lon="4.64419">
        <ele>516.85</ele>
        <time>2020-05-18T14:25:21Z</time>
      </trkpt>
      <trkpt lat="45.77563" lon="4.64421">
        <ele>516.85</ele>
        <time>2020-05-18T14:25:22Z</time>
      </trkpt>
      <trkpt lat="45.77562" lon="4.64429">
        <ele>517.33</ele>
        <time>2020-05-18T14:25:25Z</time>
      </trkpt>
      <trkpt lat="45.77552" lon="4.64454">
        <ele>514.92</ele>
        <time>2020-05-18T14:25:31Z</time>
      </trkpt>
      <trkpt lat="45.77546" lon="4.64517">
        <ele>513</ele>
        <time>2020-05-18T14:25:41Z</time>
      </trkpt>
      <trkpt lat="45.77543" lon="4.64531">
        <ele>512.52</ele>
        <time>2020-05-18T14:25:43Z</time>
      </trkpt>
      <trkpt lat="45.77537" lon="4.6456">
        <ele>510.12</ele>
        <time>2020-05-18T14:25:47Z</time>
      </trkpt>
      <trkpt lat="45.77535" lon="4.64566">
        <ele>509.64</ele>
        <time>2020-05-18T14:25:48Z</time>
      </trkpt>
      <trkpt lat="45.77534" lon="4.6457">
        <ele>509.16</ele>
        <time>2020-05-18T14:25:49Z</time>
      </trkpt>
      <trkpt lat="45.77533" lon="4.64576">
        <ele>508.67</ele>
        <time>2020-05-18T14:25:50Z</time>
      </trkpt>
      <trkpt lat="45.77533" lon="4.64582">
        <ele>508.67</ele>
        <time>2020-05-18T14:25:51Z</time>
      </trkpt>
      <trkpt lat="45.77533" lon="4.64605">
        <ele>508.19</ele>
        <time>2020-05-18T14:25:59Z</time>
      </trkpt>
      <trkpt lat="45.77532" lon="4.64626">
        <ele>507.71</ele>
        <time>2020-05-18T14:26:13Z</time>
      </trkpt>
      <trkpt lat="45.77534" lon="4.64638">
        <ele>506.75</ele>
        <time>2020-05-18T14:26:15Z</time>
      </trkpt>
      <trkpt lat="45.77533" lon="4.64644">
        <ele>505.79</ele>
        <time>2020-05-18T14:26:16Z</time>
      </trkpt>
      <trkpt lat="45.77533" lon="4.64651">
        <ele>505.31</ele>
        <time>2020-05-18T14:26:17Z</time>
      </trkpt>
      <trkpt lat="45.77532" lon="4.64656">
        <ele>504.35</ele>
        <time>2020-05-18T14:26:18Z</time>
      </trkpt>
      <trkpt lat="45.77533" lon="4.64661">
        <ele>503.39</ele>
        <time>2020-05-18T14:26:19Z</time>
      </trkpt>
      <trkpt lat="45.77534" lon="4.64665">
        <ele>502.91</ele>
        <time>2020-05-18T14:26:20Z</time>
      </trkpt>
      <trkpt lat="45.77536" lon="4.64667">
        <ele>502.91</ele>
        <time>2020-05-18T14:26:21Z</time>
      </trkpt>
      <trkpt lat="45.77539" lon="4.64669">
        <ele>502.91</ele>
        <time>2020-05-18T14:26:22Z</time>
      </trkpt>
      <trkpt lat="45.77541" lon="4.64671">
        <ele>502.91</ele>
        <time>2020-05-18T14:26:23Z</time>
      </trkpt>
      <trkpt lat="45.77543" lon="4.64674">
        <ele>502.43</ele>
        <time>2020-05-18T14:26:24Z</time>
      </trkpt>
      <trkpt lat="45.77547" lon="4.64677">
        <ele>501.46</ele>
        <time>2020-05-18T14:26:25Z</time>
      </trkpt>
      <trkpt lat="45.7755" lon="4.64679">
        <ele>500.98</ele>
        <time>2020-05-18T14:26:26Z</time>
      </trkpt>
      <trkpt lat="45.77554" lon="4.6468">
        <ele>500.5</ele>
        <time>2020-05-18T14:26:27Z</time>
      </trkpt>
      <trkpt lat="45.77557" lon="4.6468">
        <ele>500.02</ele>
        <time>2020-05-18T14:26:28Z</time>
      </trkpt>
      <trkpt lat="45.7756" lon="4.6468">
        <ele>499.54</ele>
        <time>2020-05-18T14:26:29Z</time>
      </trkpt>
      <trkpt lat="45.77563" lon="4.64681">
        <ele>499.06</ele>
        <time>2020-05-18T14:26:30Z</time>
      </trkpt>
      <trkpt lat="45.77567" lon="4.64684">
        <ele>499.06</ele>
        <time>2020-05-18T14:26:31Z</time>
      </trkpt>
      <trkpt lat="45.77572" lon="4.64684">
        <ele>498.1</ele>
        <time>2020-05-18T14:26:32Z</time>
      </trkpt>
      <trkpt lat="45.77577" lon="4.64685">
        <ele>498.1</ele>
        <time>2020-05-18T14:26:33Z</time>
      </trkpt>
      <trkpt lat="45.77583" lon="4.64686">
        <ele>497.62</ele>
        <time>2020-05-18T14:26:34Z</time>
      </trkpt>
      <trkpt lat="45.77593" lon="4.64688">
        <ele>497.14</ele>
        <time>2020-05-18T14:26:36Z</time>
      </trkpt>
      <trkpt lat="45.77598" lon="4.64688">
        <ele>497.14</ele>
        <time>2020-05-18T14:26:37Z</time>
      </trkpt>
      <trkpt lat="45.77601" lon="4.64688">
        <ele>497.14</ele>
        <time>2020-05-18T14:26:38Z</time>
      </trkpt>
      <trkpt lat="45.77602" lon="4.64689">
        <ele>497.14</ele>
        <time>2020-05-18T14:26:39Z</time>
      </trkpt>
      <trkpt lat="45.77603" lon="4.64693">
        <ele>497.14</ele>
        <time>2020-05-18T14:26:40Z</time>
      </trkpt>
      <trkpt lat="45.77603" lon="4.64697">
        <ele>497.14</ele>
        <time>2020-05-18T14:26:41Z</time>
      </trkpt>
      <trkpt lat="45.77603" lon="4.64703">
        <ele>496.66</ele>
        <time>2020-05-18T14:26:42Z</time>
      </trkpt>
      <trkpt lat="45.77604" lon="4.64707">
        <ele>497.14</ele>
        <time>2020-05-18T14:26:43Z</time>
      </trkpt>
      <trkpt lat="45.77604" lon="4.64712">
        <ele>497.14</ele>
        <time>2020-05-18T14:26:44Z</time>
      </trkpt>
      <trkpt lat="45.77604" lon="4.64716">
        <ele>497.14</ele>
        <time>2020-05-18T14:26:45Z</time>
      </trkpt>
      <trkpt lat="45.77604" lon="4.6472">
        <ele>497.14</ele>
        <time>2020-05-18T14:26:46Z</time>
      </trkpt>
      <trkpt lat="45.77604" lon="4.64723">
        <ele>497.14</ele>
        <time>2020-05-18T14:26:47Z</time>
      </trkpt>
      <trkpt lat="45.77604" lon="4.64725">
        <ele>498.1</ele>
        <time>2020-05-18T14:26:48Z</time>
      </trkpt>
      <trkpt lat="45.77604" lon="4.6473">
        <ele>498.1</ele>
        <time>2020-05-18T14:27:01Z</time>
      </trkpt>
      <trkpt lat="45.77604" lon="4.64735">
        <ele>498.58</ele>
        <time>2020-05-18T14:27:15Z</time>
      </trkpt>
      <trkpt lat="45.77603" lon="4.64737">
        <ele>498.58</ele>
        <time>2020-05-18T14:27:16Z</time>
      </trkpt>
      <trkpt lat="45.77597" lon="4.64754">
        <ele>496.66</ele>
        <time>2020-05-18T14:27:21Z</time>
      </trkpt>
      <trkpt lat="45.77594" lon="4.6476">
        <ele>495.7</ele>
        <time>2020-05-18T14:27:22Z</time>
      </trkpt>
      <trkpt lat="45.77588" lon="4.64773">
        <ele>495.22</ele>
        <time>2020-05-18T14:27:24Z</time>
      </trkpt>
      <trkpt lat="45.77586" lon="4.64779">
        <ele>495.22</ele>
        <time>2020-05-18T14:27:25Z</time>
      </trkpt>
      <trkpt lat="45.77583" lon="4.64784">
        <ele>494.26</ele>
        <time>2020-05-18T14:27:26Z</time>
      </trkpt>
      <trkpt lat="45.77577" lon="4.64799">
        <ele>492.81</ele>
        <time>2020-05-18T14:27:29Z</time>
      </trkpt>
      <trkpt lat="45.77576" lon="4.64805">
        <ele>491.85</ele>
        <time>2020-05-18T14:27:30Z</time>
      </trkpt>
      <trkpt lat="45.77575" lon="4.64811">
        <ele>491.85</ele>
        <time>2020-05-18T14:27:31Z</time>
      </trkpt>
      <trkpt lat="45.77575" lon="4.64816">
        <ele>490.89</ele>
        <time>2020-05-18T14:27:32Z</time>
      </trkpt>
      <trkpt lat="45.77574" lon="4.64821">
        <ele>490.41</ele>
        <time>2020-05-18T14:27:33Z</time>
      </trkpt>
      <trkpt lat="45.77573" lon="4.64825">
        <ele>489.93</ele>
        <time>2020-05-18T14:27:34Z</time>
      </trkpt>
      <trkpt lat="45.77573" lon="4.64831">
        <ele>489.45</ele>
        <time>2020-05-18T14:27:35Z</time>
      </trkpt>
      <trkpt lat="45.77574" lon="4.64836">
        <ele>488.97</ele>
        <time>2020-05-18T14:27:36Z</time>
      </trkpt>
      <trkpt lat="45.77573" lon="4.64843">
        <ele>487.53</ele>
        <time>2020-05-18T14:27:37Z</time>
      </trkpt>
      <trkpt lat="45.77572" lon="4.64851">
        <ele>486.56</ele>
        <time>2020-05-18T14:27:38Z</time>
      </trkpt>
      <trkpt lat="45.77572" lon="4.64859">
        <ele>486.08</ele>
        <time>2020-05-18T14:27:39Z</time>
      </trkpt>
      <trkpt lat="45.77572" lon="4.64867">
        <ele>485.6</ele>
        <time>2020-05-18T14:27:40Z</time>
      </trkpt>
      <trkpt lat="45.77571" lon="4.64875">
        <ele>485.12</ele>
        <time>2020-05-18T14:27:41Z</time>
      </trkpt>
      <trkpt lat="45.7757" lon="4.64883">
        <ele>485.12</ele>
        <time>2020-05-18T14:27:42Z</time>
      </trkpt>
      <trkpt lat="45.77567" lon="4.6489">
        <ele>485.12</ele>
        <time>2020-05-18T14:27:43Z</time>
      </trkpt>
      <trkpt lat="45.77564" lon="4.64898">
        <ele>484.16</ele>
        <time>2020-05-18T14:27:44Z</time>
      </trkpt>
      <trkpt lat="45.7756" lon="4.64906">
        <ele>484.16</ele>
        <time>2020-05-18T14:27:45Z</time>
      </trkpt>
      <trkpt lat="45.77556" lon="4.64914">
        <ele>483.2</ele>
        <time>2020-05-18T14:27:46Z</time>
      </trkpt>
      <trkpt lat="45.77551" lon="4.64921">
        <ele>483.2</ele>
        <time>2020-05-18T14:27:47Z</time>
      </trkpt>
      <trkpt lat="45.77546" lon="4.64928">
        <ele>482.24</ele>
        <time>2020-05-18T14:27:48Z</time>
      </trkpt>
      <trkpt lat="45.77541" lon="4.64936">
        <ele>482.24</ele>
        <time>2020-05-18T14:27:49Z</time>
      </trkpt>
      <trkpt lat="45.77537" lon="4.64942">
        <ele>481.28</ele>
        <time>2020-05-18T14:27:50Z</time>
      </trkpt>
      <trkpt lat="45.77533" lon="4.64946">
        <ele>481.28</ele>
        <time>2020-05-18T14:27:51Z</time>
      </trkpt>
      <trkpt lat="45.77529" lon="4.64946">
        <ele>480.32</ele>
        <time>2020-05-18T14:27:52Z</time>
      </trkpt>
      <trkpt lat="45.77524" lon="4.64947">
        <ele>478.87</ele>
        <time>2020-05-18T14:27:53Z</time>
      </trkpt>
      <trkpt lat="45.7752" lon="4.64949">
        <ele>478.39</ele>
        <time>2020-05-18T14:27:54Z</time>
      </trkpt>
      <trkpt lat="45.77516" lon="4.64954">
        <ele>478.39</ele>
        <time>2020-05-18T14:27:55Z</time>
      </trkpt>
      <trkpt lat="45.77514" lon="4.6496">
        <ele>477.43</ele>
        <time>2020-05-18T14:27:56Z</time>
      </trkpt>
      <trkpt lat="45.77511" lon="4.64968">
        <ele>477.43</ele>
        <time>2020-05-18T14:27:57Z</time>
      </trkpt>
      <trkpt lat="45.7751" lon="4.64976">
        <ele>477.43</ele>
        <time>2020-05-18T14:27:58Z</time>
      </trkpt>
      <trkpt lat="45.77508" lon="4.64983">
        <ele>476.95</ele>
        <time>2020-05-18T14:27:59Z</time>
      </trkpt>
      <trkpt lat="45.77508" lon="4.64991">
        <ele>476.95</ele>
        <time>2020-05-18T14:28:00Z</time>
      </trkpt>
      <trkpt lat="45.77508" lon="4.64997">
        <ele>475.99</ele>
        <time>2020-05-18T14:28:01Z</time>
      </trkpt>
      <trkpt lat="45.77509" lon="4.65044">
        <ele>472.63</ele>
        <time>2020-05-18T14:28:09Z</time>
      </trkpt>
      <trkpt lat="45.77511" lon="4.65058">
        <ele>470.7</ele>
        <time>2020-05-18T14:28:11Z</time>
      </trkpt>
      <trkpt lat="45.77512" lon="4.65067">
        <ele>471.18</ele>
        <time>2020-05-18T14:28:12Z</time>
      </trkpt>
      <trkpt lat="45.77513" lon="4.65074">
        <ele>470.7</ele>
        <time>2020-05-18T14:28:13Z</time>
      </trkpt>
      <trkpt lat="45.77517" lon="4.65102">
        <ele>470.22</ele>
        <time>2020-05-18T14:28:18Z</time>
      </trkpt>
      <trkpt lat="45.77516" lon="4.65106">
        <ele>469.74</ele>
        <time>2020-05-18T14:28:19Z</time>
      </trkpt>
      <trkpt lat="45.77514" lon="4.65109">
        <ele>469.26</ele>
        <time>2020-05-18T14:28:20Z</time>
      </trkpt>
      <trkpt lat="45.77513" lon="4.65111">
        <ele>469.26</ele>
        <time>2020-05-18T14:28:21Z</time>
      </trkpt>
      <trkpt lat="45.77511" lon="4.65112">
        <ele>469.26</ele>
        <time>2020-05-18T14:28:22Z</time>
      </trkpt>
      <trkpt lat="45.77509" lon="4.65112">
        <ele>469.26</ele>
        <time>2020-05-18T14:28:23Z</time>
      </trkpt>
      <trkpt lat="45.77507" lon="4.65113">
        <ele>469.74</ele>
        <time>2020-05-18T14:28:24Z</time>
      </trkpt>
      <trkpt lat="45.77505" lon="4.65114">
        <ele>469.74</ele>
        <time>2020-05-18T14:28:25Z</time>
      </trkpt>
      <trkpt lat="45.77504" lon="4.65115">
        <ele>469.74</ele>
        <time>2020-05-18T14:28:26Z</time>
      </trkpt>
      <trkpt lat="45.77502" lon="4.65116">
        <ele>469.74</ele>
        <time>2020-05-18T14:28:27Z</time>
      </trkpt>
      <trkpt lat="45.77501" lon="4.65118">
        <ele>469.74</ele>
        <time>2020-05-18T14:28:28Z</time>
      </trkpt>
      <trkpt lat="45.77499" lon="4.6512">
        <ele>470.7</ele>
        <time>2020-05-18T14:28:30Z</time>
      </trkpt>
      <trkpt lat="45.77499" lon="4.65122">
        <ele>463.49</ele>
        <time>2020-05-18T14:28:31Z</time>
      </trkpt>
      <trkpt lat="45.77499" lon="4.65123">
        <ele>474.07</ele>
        <time>2020-05-18T14:28:32Z</time>
      </trkpt>
      <trkpt lat="45.77495" lon="4.65133">
        <ele>471.18</ele>
        <time>2020-05-18T14:28:52Z</time>
      </trkpt>
      <trkpt lat="45.77494" lon="4.65139">
        <ele>471.18</ele>
        <time>2020-05-18T14:29:23Z</time>
      </trkpt>
      <trkpt lat="45.77491" lon="4.65137">
        <ele>471.18</ele>
        <time>2020-05-18T14:29:31Z</time>
      </trkpt>
      <trkpt lat="45.7749" lon="4.65137">
        <ele>471.18</ele>
        <time>2020-05-18T14:29:32Z</time>
      </trkpt>
      <trkpt lat="45.77488" lon="4.65137">
        <ele>471.18</ele>
        <time>2020-05-18T14:29:33Z</time>
      </trkpt>
      <trkpt lat="45.77486" lon="4.65137">
        <ele>471.18</ele>
        <time>2020-05-18T14:29:34Z</time>
      </trkpt>
      <trkpt lat="45.77484" lon="4.65137">
        <ele>471.18</ele>
        <time>2020-05-18T14:29:35Z</time>
      </trkpt>
      <trkpt lat="45.77483" lon="4.65137">
        <ele>471.18</ele>
        <time>2020-05-18T14:29:36Z</time>
      </trkpt>
      <trkpt lat="45.77481" lon="4.65137">
        <ele>471.18</ele>
        <time>2020-05-18T14:29:37Z</time>
      </trkpt>
      <trkpt lat="45.77453" lon="4.65142">
        <ele>472.63</ele>
        <time>2020-05-18T14:29:51Z</time>
      </trkpt>
      <trkpt lat="45.77451" lon="4.65143">
        <ele>472.63</ele>
        <time>2020-05-18T14:29:52Z</time>
      </trkpt>
      <trkpt lat="45.77431" lon="4.6516">
        <ele>474.07</ele>
        <time>2020-05-18T14:30:06Z</time>
      </trkpt>
      <trkpt lat="45.77429" lon="4.65161">
        <ele>474.07</ele>
        <time>2020-05-18T14:30:07Z</time>
      </trkpt>
      <trkpt lat="45.77428" lon="4.65163">
        <ele>474.07</ele>
        <time>2020-05-18T14:30:08Z</time>
      </trkpt>
      <trkpt lat="45.77426" lon="4.65166">
        <ele>474.07</ele>
        <time>2020-05-18T14:30:09Z</time>
      </trkpt>
      <trkpt lat="45.77424" lon="4.65168">
        <ele>474.07</ele>
        <time>2020-05-18T14:30:10Z</time>
      </trkpt>
      <trkpt lat="45.77422" lon="4.6517">
        <ele>474.07</ele>
        <time>2020-05-18T14:30:11Z</time>
      </trkpt>
      <trkpt lat="45.7742" lon="4.65172">
        <ele>474.07</ele>
        <time>2020-05-18T14:30:12Z</time>
      </trkpt>
      <trkpt lat="45.77402" lon="4.65207">
        <ele>474.55</ele>
        <time>2020-05-18T14:30:25Z</time>
      </trkpt>
      <trkpt lat="45.7739" lon="4.65239">
        <ele>475.51</ele>
        <time>2020-05-18T14:30:37Z</time>
      </trkpt>
      <trkpt lat="45.77385" lon="4.65259">
        <ele>475.99</ele>
        <time>2020-05-18T14:30:45Z</time>
      </trkpt>
      <trkpt lat="45.77386" lon="4.65262">
        <ele>475.99</ele>
        <time>2020-05-18T14:30:46Z</time>
      </trkpt>
      <trkpt lat="45.77385" lon="4.65265">
        <ele>475.99</ele>
        <time>2020-05-18T14:30:47Z</time>
      </trkpt>
      <trkpt lat="45.7738" lon="4.65288">
        <ele>476.95</ele>
        <time>2020-05-18T14:30:56Z</time>
      </trkpt>
      <trkpt lat="45.77378" lon="4.65294">
        <ele>476.95</ele>
        <time>2020-05-18T14:30:58Z</time>
      </trkpt>
      <trkpt lat="45.77377" lon="4.65297">
        <ele>476.95</ele>
        <time>2020-05-18T14:30:59Z</time>
      </trkpt>
      <trkpt lat="45.77376" lon="4.65299">
        <ele>476.95</ele>
        <time>2020-05-18T14:31:00Z</time>
      </trkpt>
      <trkpt lat="45.77366" lon="4.65346">
        <ele>476.95</ele>
        <time>2020-05-18T14:31:12Z</time>
      </trkpt>
      <trkpt lat="45.77357" lon="4.65427">
        <ele>476.95</ele>
        <time>2020-05-18T14:31:27Z</time>
      </trkpt>
      <trkpt lat="45.77358" lon="4.65509">
        <ele>477.43</ele>
        <time>2020-05-18T14:31:42Z</time>
      </trkpt>
      <trkpt lat="45.77358" lon="4.65514">
        <ele>477.43</ele>
        <time>2020-05-18T14:31:43Z</time>
      </trkpt>
      <trkpt lat="45.77356" lon="4.65526">
        <ele>475.51</ele>
        <time>2020-05-18T14:31:45Z</time>
      </trkpt>
      <trkpt lat="45.77355" lon="4.65558">
        <ele>473.11</ele>
        <time>2020-05-18T14:31:49Z</time>
      </trkpt>
      <trkpt lat="45.77357" lon="4.65603">
        <ele>471.18</ele>
        <time>2020-05-18T14:31:54Z</time>
      </trkpt>
      <trkpt lat="45.77357" lon="4.65612">
        <ele>470.7</ele>
        <time>2020-05-18T14:31:55Z</time>
      </trkpt>
      <trkpt lat="45.77357" lon="4.65622">
        <ele>470.22</ele>
        <time>2020-05-18T14:31:56Z</time>
      </trkpt>
      <trkpt lat="45.77358" lon="4.6563">
        <ele>470.22</ele>
        <time>2020-05-18T14:31:57Z</time>
      </trkpt>
      <trkpt lat="45.7736" lon="4.65638">
        <ele>469.74</ele>
        <time>2020-05-18T14:31:58Z</time>
      </trkpt>
      <trkpt lat="45.77361" lon="4.65644">
        <ele>469.74</ele>
        <time>2020-05-18T14:31:59Z</time>
      </trkpt>
      <trkpt lat="45.77361" lon="4.65651">
        <ele>468.78</ele>
        <time>2020-05-18T14:32:00Z</time>
      </trkpt>
      <trkpt lat="45.7736" lon="4.65659">
        <ele>467.82</ele>
        <time>2020-05-18T14:32:01Z</time>
      </trkpt>
      <trkpt lat="45.77359" lon="4.65668">
        <ele>467.34</ele>
        <time>2020-05-18T14:32:02Z</time>
      </trkpt>
      <trkpt lat="45.77359" lon="4.65678">
        <ele>465.9</ele>
        <time>2020-05-18T14:32:03Z</time>
      </trkpt>
      <trkpt lat="45.77359" lon="4.65687">
        <ele>465.42</ele>
        <time>2020-05-18T14:32:04Z</time>
      </trkpt>
      <trkpt lat="45.77358" lon="4.65697">
        <ele>464.45</ele>
        <time>2020-05-18T14:32:05Z</time>
      </trkpt>
      <trkpt lat="45.77357" lon="4.65706">
        <ele>463.97</ele>
        <time>2020-05-18T14:32:06Z</time>
      </trkpt>
      <trkpt lat="45.77357" lon="4.65713">
        <ele>463.97</ele>
        <time>2020-05-18T14:32:07Z</time>
      </trkpt>
      <trkpt lat="45.77356" lon="4.65721">
        <ele>463.01</ele>
        <time>2020-05-18T14:32:08Z</time>
      </trkpt>
      <trkpt lat="45.77354" lon="4.65752">
        <ele>460.13</ele>
        <time>2020-05-18T14:32:12Z</time>
      </trkpt>
      <trkpt lat="45.77353" lon="4.65759">
        <ele>460.13</ele>
        <time>2020-05-18T14:32:13Z</time>
      </trkpt>
      <trkpt lat="45.77353" lon="4.65762">
        <ele>459.65</ele>
        <time>2020-05-18T14:32:14Z</time>
      </trkpt>
      <trkpt lat="45.7735" lon="4.65777">
        <ele>458.69</ele>
        <time>2020-05-18T14:32:25Z</time>
      </trkpt>
      <trkpt lat="45.77351" lon="4.6578">
        <ele>458.69</ele>
        <time>2020-05-18T14:32:54Z</time>
      </trkpt>
      <trkpt lat="45.77352" lon="4.6578">
        <ele>458.69</ele>
        <time>2020-05-18T14:33:22Z</time>
      </trkpt>
      <trkpt lat="45.77351" lon="4.65781">
        <ele>458.21</ele>
        <time>2020-05-18T14:33:48Z</time>
      </trkpt>
      <trkpt lat="45.7735" lon="4.65782">
        <ele>458.21</ele>
        <time>2020-05-18T14:33:50Z</time>
      </trkpt>
      <trkpt lat="45.77345" lon="4.65784">
        <ele>457.72</ele>
        <time>2020-05-18T14:33:52Z</time>
      </trkpt>
      <trkpt lat="45.7734" lon="4.65786">
        <ele>456.28</ele>
        <time>2020-05-18T14:33:53Z</time>
      </trkpt>
      <trkpt lat="45.77336" lon="4.65788">
        <ele>455.8</ele>
        <time>2020-05-18T14:33:54Z</time>
      </trkpt>
      <trkpt lat="45.77332" lon="4.65791">
        <ele>454.84</ele>
        <time>2020-05-18T14:33:55Z</time>
      </trkpt>
      <trkpt lat="45.77328" lon="4.65794">
        <ele>453.88</ele>
        <time>2020-05-18T14:33:56Z</time>
      </trkpt>
      <trkpt lat="45.77313" lon="4.65809">
        <ele>451</ele>
        <time>2020-05-18T14:34:00Z</time>
      </trkpt>
      <trkpt lat="45.77302" lon="4.65818">
        <ele>449.07</ele>
        <time>2020-05-18T14:34:03Z</time>
      </trkpt>
      <trkpt lat="45.77287" lon="4.6583">
        <ele>446.19</ele>
        <time>2020-05-18T14:34:07Z</time>
      </trkpt>
      <trkpt lat="45.77284" lon="4.65833">
        <ele>445.71</ele>
        <time>2020-05-18T14:34:08Z</time>
      </trkpt>
      <trkpt lat="45.77281" lon="4.65835">
        <ele>444.27</ele>
        <time>2020-05-18T14:34:09Z</time>
      </trkpt>
      <trkpt lat="45.77277" lon="4.65837">
        <ele>444.27</ele>
        <time>2020-05-18T14:34:10Z</time>
      </trkpt>
      <trkpt lat="45.77275" lon="4.6584">
        <ele>443.79</ele>
        <time>2020-05-18T14:34:11Z</time>
      </trkpt>
      <trkpt lat="45.77273" lon="4.65843">
        <ele>443.31</ele>
        <time>2020-05-18T14:34:12Z</time>
      </trkpt>
      <trkpt lat="45.7727" lon="4.65848">
        <ele>442.82</ele>
        <time>2020-05-18T14:34:13Z</time>
      </trkpt>
      <trkpt lat="45.77268" lon="4.65852">
        <ele>442.82</ele>
        <time>2020-05-18T14:34:14Z</time>
      </trkpt>
      <trkpt lat="45.77266" lon="4.65855">
        <ele>442.82</ele>
        <time>2020-05-18T14:34:15Z</time>
      </trkpt>
      <trkpt lat="45.77264" lon="4.65856">
        <ele>442.82</ele>
        <time>2020-05-18T14:34:16Z</time>
      </trkpt>
      <trkpt lat="45.77262" lon="4.65856">
        <ele>442.82</ele>
        <time>2020-05-18T14:34:17Z</time>
      </trkpt>
      <trkpt lat="45.7726" lon="4.65859">
        <ele>442.34</ele>
        <time>2020-05-18T14:34:29Z</time>
      </trkpt>
      <trkpt lat="45.7726" lon="4.65858">
        <ele>442.34</ele>
        <time>2020-05-18T14:34:52Z</time>
      </trkpt>
      <trkpt lat="45.77259" lon="4.65858">
        <ele>442.34</ele>
        <time>2020-05-18T14:35:16Z</time>
      </trkpt>
      <trkpt lat="45.77254" lon="4.6586">
        <ele>440.9</ele>
        <time>2020-05-18T14:35:19Z</time>
      </trkpt>
      <trkpt lat="45.77233" lon="4.65875">
        <ele>437.54</ele>
        <time>2020-05-18T14:35:26Z</time>
      </trkpt>
      <trkpt lat="45.77225" lon="4.65876">
        <ele>436.1</ele>
        <time>2020-05-18T14:35:29Z</time>
      </trkpt>
      <trkpt lat="45.77223" lon="4.65874">
        <ele>435.61</ele>
        <time>2020-05-18T14:35:30Z</time>
      </trkpt>
      <trkpt lat="45.7722" lon="4.6587">
        <ele>435.13</ele>
        <time>2020-05-18T14:35:31Z</time>
      </trkpt>
      <trkpt lat="45.77218" lon="4.65865">
        <ele>435.13</ele>
        <time>2020-05-18T14:35:32Z</time>
      </trkpt>
      <trkpt lat="45.77215" lon="4.65861">
        <ele>434.65</ele>
        <time>2020-05-18T14:35:33Z</time>
      </trkpt>
      <trkpt lat="45.77202" lon="4.65838">
        <ele>430.81</ele>
        <time>2020-05-18T14:35:38Z</time>
      </trkpt>
      <trkpt lat="45.77199" lon="4.65835">
        <ele>430.33</ele>
        <time>2020-05-18T14:35:39Z</time>
      </trkpt>
      <trkpt lat="45.77195" lon="4.65834">
        <ele>429.85</ele>
        <time>2020-05-18T14:35:40Z</time>
      </trkpt>
      <trkpt lat="45.77192" lon="4.65834">
        <ele>429.85</ele>
        <time>2020-05-18T14:35:41Z</time>
      </trkpt>
      <trkpt lat="45.7719" lon="4.65833">
        <ele>428.89</ele>
        <time>2020-05-18T14:35:42Z</time>
      </trkpt>
      <trkpt lat="45.77187" lon="4.65831">
        <ele>427.92</ele>
        <time>2020-05-18T14:35:43Z</time>
      </trkpt>
      <trkpt lat="45.77184" lon="4.65828">
        <ele>427.92</ele>
        <time>2020-05-18T14:35:44Z</time>
      </trkpt>
      <trkpt lat="45.77182" lon="4.65824">
        <ele>426.48</ele>
        <time>2020-05-18T14:35:45Z</time>
      </trkpt>
      <trkpt lat="45.7718" lon="4.65819">
        <ele>426</ele>
        <time>2020-05-18T14:35:46Z</time>
      </trkpt>
      <trkpt lat="45.77178" lon="4.65813">
        <ele>425.04</ele>
        <time>2020-05-18T14:35:47Z</time>
      </trkpt>
      <trkpt lat="45.77177" lon="4.65808">
        <ele>424.56</ele>
        <time>2020-05-18T14:35:48Z</time>
      </trkpt>
      <trkpt lat="45.77176" lon="4.65802">
        <ele>424.08</ele>
        <time>2020-05-18T14:35:49Z</time>
      </trkpt>
      <trkpt lat="45.77175" lon="4.65795">
        <ele>424.08</ele>
        <time>2020-05-18T14:35:50Z</time>
      </trkpt>
      <trkpt lat="45.77174" lon="4.65788">
        <ele>423.12</ele>
        <time>2020-05-18T14:35:51Z</time>
      </trkpt>
      <trkpt lat="45.7717" lon="4.65757">
        <ele>421.19</ele>
        <time>2020-05-18T14:35:55Z</time>
      </trkpt>
      <trkpt lat="45.77169" lon="4.6575">
        <ele>420.71</ele>
        <time>2020-05-18T14:35:56Z</time>
      </trkpt>
      <trkpt lat="45.77168" lon="4.65744">
        <ele>419.75</ele>
        <time>2020-05-18T14:35:57Z</time>
      </trkpt>
      <trkpt lat="45.77165" lon="4.65741">
        <ele>419.75</ele>
        <time>2020-05-18T14:35:58Z</time>
      </trkpt>
      <trkpt lat="45.77162" lon="4.6574">
        <ele>418.79</ele>
        <time>2020-05-18T14:35:59Z</time>
      </trkpt>
      <trkpt lat="45.77158" lon="4.65742">
        <ele>417.83</ele>
        <time>2020-05-18T14:36:00Z</time>
      </trkpt>
      <trkpt lat="45.77155" lon="4.65746">
        <ele>416.87</ele>
        <time>2020-05-18T14:36:01Z</time>
      </trkpt>
      <trkpt lat="45.77152" lon="4.65751">
        <ele>416.87</ele>
        <time>2020-05-18T14:36:02Z</time>
      </trkpt>
      <trkpt lat="45.77149" lon="4.65756">
        <ele>415.91</ele>
        <time>2020-05-18T14:36:03Z</time>
      </trkpt>
      <trkpt lat="45.77147" lon="4.65762">
        <ele>415.43</ele>
        <time>2020-05-18T14:36:04Z</time>
      </trkpt>
      <trkpt lat="45.77141" lon="4.6579">
        <ele>413.5</ele>
        <time>2020-05-18T14:36:08Z</time>
      </trkpt>
      <trkpt lat="45.77138" lon="4.65794">
        <ele>413.02</ele>
        <time>2020-05-18T14:36:09Z</time>
      </trkpt>
      <trkpt lat="45.77136" lon="4.65795">
        <ele>413.02</ele>
        <time>2020-05-18T14:36:10Z</time>
      </trkpt>
      <trkpt lat="45.77134" lon="4.65795">
        <ele>413.02</ele>
        <time>2020-05-18T14:36:12Z</time>
      </trkpt>
      <trkpt lat="45.77133" lon="4.65793">
        <ele>412.54</ele>
        <time>2020-05-18T14:36:13Z</time>
      </trkpt>
      <trkpt lat="45.77132" lon="4.65792">
        <ele>412.54</ele>
        <time>2020-05-18T14:36:14Z</time>
      </trkpt>
      <trkpt lat="45.7713" lon="4.65792">
        <ele>401.97</ele>
        <time>2020-05-18T14:36:24Z</time>
      </trkpt>
      <trkpt lat="45.7713" lon="4.65793">
        <ele>421.68</ele>
        <time>2020-05-18T14:36:25Z</time>
      </trkpt>
      <trkpt lat="45.77129" lon="4.65792">
        <ele>413.02</ele>
        <time>2020-05-18T14:36:26Z</time>
      </trkpt>
      <trkpt lat="45.77128" lon="4.65791">
        <ele>412.54</ele>
        <time>2020-05-18T14:36:53Z</time>
      </trkpt>
      <trkpt lat="45.77129" lon="4.65795">
        <ele>412.54</ele>
        <time>2020-05-18T14:37:11Z</time>
      </trkpt>
      <trkpt lat="45.77128" lon="4.65797">
        <ele>412.54</ele>
        <time>2020-05-18T14:37:12Z</time>
      </trkpt>
      <trkpt lat="45.77128" lon="4.658">
        <ele>412.54</ele>
        <time>2020-05-18T14:37:13Z</time>
      </trkpt>
      <trkpt lat="45.77128" lon="4.65802">
        <ele>412.54</ele>
        <time>2020-05-18T14:37:14Z</time>
      </trkpt>
      <trkpt lat="45.77129" lon="4.65804">
        <ele>412.54</ele>
        <time>2020-05-18T14:37:15Z</time>
      </trkpt>
      <trkpt lat="45.7713" lon="4.65806">
        <ele>412.54</ele>
        <time>2020-05-18T14:37:16Z</time>
      </trkpt>
      <trkpt lat="45.77134" lon="4.65814">
        <ele>413.98</ele>
        <time>2020-05-18T14:37:20Z</time>
      </trkpt>
      <trkpt lat="45.77141" lon="4.65848">
        <ele>404.37</ele>
        <time>2020-05-18T14:37:34Z</time>
      </trkpt>
      <trkpt lat="45.77141" lon="4.6585">
        <ele>426.48</ele>
        <time>2020-05-18T14:37:35Z</time>
      </trkpt>
      <trkpt lat="45.77141" lon="4.65853">
        <ele>415.91</ele>
        <time>2020-05-18T14:37:36Z</time>
      </trkpt>
      <trkpt lat="45.77148" lon="4.65884">
        <ele>417.35</ele>
        <time>2020-05-18T14:37:47Z</time>
      </trkpt>
      <trkpt lat="45.77159" lon="4.6592">
        <ele>418.79</ele>
        <time>2020-05-18T14:38:01Z</time>
      </trkpt>
      <trkpt lat="45.77176" lon="4.65957">
        <ele>421.19</ele>
        <time>2020-05-18T14:38:16Z</time>
      </trkpt>
      <trkpt lat="45.772" lon="4.65998">
        <ele>423.6</ele>
        <time>2020-05-18T14:38:35Z</time>
      </trkpt>
      <trkpt lat="45.77231" lon="4.66006">
        <ele>425.52</ele>
        <time>2020-05-18T14:38:52Z</time>
      </trkpt>
      <trkpt lat="45.77262" lon="4.65992">
        <ele>427.44</ele>
        <time>2020-05-18T14:39:09Z</time>
      </trkpt>
      <trkpt lat="45.77295" lon="4.65978">
        <ele>429.37</ele>
        <time>2020-05-18T14:39:28Z</time>
      </trkpt>
      <trkpt lat="45.77329" lon="4.6598">
        <ele>429.85</ele>
        <time>2020-05-18T14:39:45Z</time>
      </trkpt>
      <trkpt lat="45.77351" lon="4.66028">
        <ele>430.33</ele>
        <time>2020-05-18T14:40:02Z</time>
      </trkpt>
      <trkpt lat="45.77366" lon="4.66084">
        <ele>431.77</ele>
        <time>2020-05-18T14:40:20Z</time>
      </trkpt>
      <trkpt lat="45.77387" lon="4.66164">
        <ele>433.21</ele>
        <time>2020-05-18T14:40:44Z</time>
      </trkpt>
      <trkpt lat="45.77414" lon="4.66242">
        <ele>434.17</ele>
        <time>2020-05-18T14:41:04Z</time>
      </trkpt>
      <trkpt lat="45.77445" lon="4.66286">
        <ele>434.65</ele>
        <time>2020-05-18T14:41:19Z</time>
      </trkpt>
      <trkpt lat="45.77491" lon="4.66315">
        <ele>436.58</ele>
        <time>2020-05-18T14:41:39Z</time>
      </trkpt>
      <trkpt lat="45.77536" lon="4.66307">
        <ele>437.54</ele>
        <time>2020-05-18T14:41:56Z</time>
      </trkpt>
      <trkpt lat="45.77587" lon="4.66282">
        <ele>438.98</ele>
        <time>2020-05-18T14:42:15Z</time>
      </trkpt>
      <trkpt lat="45.77595" lon="4.66279">
        <ele>437.54</ele>
        <time>2020-05-18T14:42:17Z</time>
      </trkpt>
      <trkpt lat="45.77599" lon="4.66279">
        <ele>437.54</ele>
        <time>2020-05-18T14:42:18Z</time>
      </trkpt>
      <trkpt lat="45.77649" lon="4.66276">
        <ele>434.65</ele>
        <time>2020-05-18T14:42:27Z</time>
      </trkpt>
      <trkpt lat="45.77656" lon="4.66279">
        <ele>434.65</ele>
        <time>2020-05-18T14:42:28Z</time>
      </trkpt>
      <trkpt lat="45.77663" lon="4.66283">
        <ele>433.69</ele>
        <time>2020-05-18T14:42:29Z</time>
      </trkpt>
      <trkpt lat="45.77669" lon="4.66289">
        <ele>433.69</ele>
        <time>2020-05-18T14:42:30Z</time>
      </trkpt>
      <trkpt lat="45.77673" lon="4.66298">
        <ele>433.21</ele>
        <time>2020-05-18T14:42:31Z</time>
      </trkpt>
      <trkpt lat="45.77676" lon="4.66305">
        <ele>433.21</ele>
        <time>2020-05-18T14:42:32Z</time>
      </trkpt>
      <trkpt lat="45.77677" lon="4.66313">
        <ele>433.21</ele>
        <time>2020-05-18T14:42:33Z</time>
      </trkpt>
      <trkpt lat="45.77678" lon="4.6632">
        <ele>433.21</ele>
        <time>2020-05-18T14:42:34Z</time>
      </trkpt>
      <trkpt lat="45.77677" lon="4.66327">
        <ele>434.17</ele>
        <time>2020-05-18T14:42:35Z</time>
      </trkpt>
      <trkpt lat="45.77677" lon="4.66332">
        <ele>434.17</ele>
        <time>2020-05-18T14:42:36Z</time>
      </trkpt>
      <trkpt lat="45.77672" lon="4.66379">
        <ele>437.54</ele>
        <time>2020-05-18T14:42:47Z</time>
      </trkpt>
      <trkpt lat="45.77673" lon="4.66435">
        <ele>438.98</ele>
        <time>2020-05-18T14:43:03Z</time>
      </trkpt>
      <trkpt lat="45.77684" lon="4.66488">
        <ele>440.9</ele>
        <time>2020-05-18T14:43:19Z</time>
      </trkpt>
      <trkpt lat="45.77686" lon="4.66505">
        <ele>440.9</ele>
        <time>2020-05-18T14:43:32Z</time>
      </trkpt>
      <trkpt lat="45.77686" lon="4.66507">
        <ele>441.38</ele>
        <time>2020-05-18T14:43:52Z</time>
      </trkpt>
      <trkpt lat="45.77686" lon="4.66507">
        <ele>432.25</ele>
        <time>2020-05-18T14:44:04Z</time>
      </trkpt>
      <trkpt lat="45.77685" lon="4.66507">
        <ele>449.07</ele>
        <time>2020-05-18T14:44:05Z</time>
      </trkpt>
      <trkpt lat="45.77686" lon="4.66507">
        <ele>440.9</ele>
        <time>2020-05-18T14:44:06Z</time>
      </trkpt>
      <trkpt lat="45.77685" lon="4.66506">
        <ele>440.9</ele>
        <time>2020-05-18T14:44:36Z</time>
      </trkpt>
      <trkpt lat="45.77685" lon="4.66506">
        <ele>440.42</ele>
        <time>2020-05-18T14:45:05Z</time>
      </trkpt>
      <trkpt lat="45.77685" lon="4.66507">
        <ele>440.42</ele>
        <time>2020-05-18T14:45:09Z</time>
      </trkpt>
      <trkpt lat="45.7768" lon="4.66497">
        <ele>439.46</ele>
        <time>2020-05-18T14:45:13Z</time>
      </trkpt>
      <trkpt lat="45.77674" lon="4.66492">
        <ele>438.5</ele>
        <time>2020-05-18T14:45:15Z</time>
      </trkpt>
      <trkpt lat="45.77671" lon="4.66491">
        <ele>437.54</ele>
        <time>2020-05-18T14:45:16Z</time>
      </trkpt>
      <trkpt lat="45.77656" lon="4.66487">
        <ele>434.17</ele>
        <time>2020-05-18T14:45:21Z</time>
      </trkpt>
      <trkpt lat="45.77642" lon="4.66485">
        <ele>430.33</ele>
        <time>2020-05-18T14:45:25Z</time>
      </trkpt>
      <trkpt lat="45.77626" lon="4.6648">
        <ele>426.96</ele>
        <time>2020-05-18T14:45:30Z</time>
      </trkpt>
      <trkpt lat="45.77617" lon="4.66463">
        <ele>424.56</ele>
        <time>2020-05-18T14:45:35Z</time>
      </trkpt>
      <trkpt lat="45.77611" lon="4.66451">
        <ele>421.19</ele>
        <time>2020-05-18T14:45:39Z</time>
      </trkpt>
      <trkpt lat="45.77609" lon="4.66447">
        <ele>420.23</ele>
        <time>2020-05-18T14:45:40Z</time>
      </trkpt>
      <trkpt lat="45.7759" lon="4.66425">
        <ele>415.91</ele>
        <time>2020-05-18T14:45:46Z</time>
      </trkpt>
      <trkpt lat="45.77574" lon="4.66403">
        <ele>414.95</ele>
        <time>2020-05-18T14:45:52Z</time>
      </trkpt>
      <trkpt lat="45.77567" lon="4.66402">
        <ele>416.39</ele>
        <time>2020-05-18T14:45:55Z</time>
      </trkpt>
      <trkpt lat="45.77536" lon="4.66408">
        <ele>418.31</ele>
        <time>2020-05-18T14:46:09Z</time>
      </trkpt>
      <trkpt lat="45.7752" lon="4.66399">
        <ele>422.16</ele>
        <time>2020-05-18T14:46:20Z</time>
      </trkpt>
      <trkpt lat="45.77496" lon="4.66388">
        <ele>425.52</ele>
        <time>2020-05-18T14:46:33Z</time>
      </trkpt>
      <trkpt lat="45.77463" lon="4.66371">
        <ele>427.92</ele>
        <time>2020-05-18T14:46:53Z</time>
      </trkpt>
      <trkpt lat="45.77437" lon="4.66356">
        <ele>427.44</ele>
        <time>2020-05-18T14:47:06Z</time>
      </trkpt>
      <trkpt lat="45.77437" lon="4.66359">
        <ele>426.48</ele>
        <time>2020-05-18T14:47:36Z</time>
      </trkpt>
      <trkpt lat="45.77418" lon="4.66345">
        <ele>424.56</ele>
        <time>2020-05-18T14:47:47Z</time>
      </trkpt>
      <trkpt lat="45.77397" lon="4.66326">
        <ele>421.19</ele>
        <time>2020-05-18T14:47:54Z</time>
      </trkpt>
      <trkpt lat="45.77395" lon="4.66326">
        <ele>420.71</ele>
        <time>2020-05-18T14:48:00Z</time>
      </trkpt>
      <trkpt lat="45.77395" lon="4.66327">
        <ele>420.71</ele>
        <time>2020-05-18T14:48:01Z</time>
      </trkpt>
      <trkpt lat="45.77395" lon="4.6633">
        <ele>420.71</ele>
        <time>2020-05-18T14:48:02Z</time>
      </trkpt>
      <trkpt lat="45.77394" lon="4.66333">
        <ele>420.23</ele>
        <time>2020-05-18T14:48:03Z</time>
      </trkpt>
      <trkpt lat="45.77394" lon="4.66338">
        <ele>419.27</ele>
        <time>2020-05-18T14:48:04Z</time>
      </trkpt>
      <trkpt lat="45.77394" lon="4.66342">
        <ele>419.27</ele>
        <time>2020-05-18T14:48:05Z</time>
      </trkpt>
      <trkpt lat="45.77389" lon="4.66386">
        <ele>415.91</ele>
        <time>2020-05-18T14:48:11Z</time>
      </trkpt>
      <trkpt lat="45.77387" lon="4.66395">
        <ele>415.43</ele>
        <time>2020-05-18T14:48:12Z</time>
      </trkpt>
      <trkpt lat="45.77377" lon="4.6643">
        <ele>411.1</ele>
        <time>2020-05-18T14:48:17Z</time>
      </trkpt>
      <trkpt lat="45.77375" lon="4.66437">
        <ele>411.1</ele>
        <time>2020-05-18T14:48:18Z</time>
      </trkpt>
      <trkpt lat="45.77371" lon="4.66453">
        <ele>409.66</ele>
        <time>2020-05-18T14:48:20Z</time>
      </trkpt>
      <trkpt lat="45.77369" lon="4.66461">
        <ele>408.22</ele>
        <time>2020-05-18T14:48:21Z</time>
      </trkpt>
      <trkpt lat="45.77368" lon="4.66467">
        <ele>408.22</ele>
        <time>2020-05-18T14:48:22Z</time>
      </trkpt>
      <trkpt lat="45.77361" lon="4.66492">
        <ele>404.37</ele>
        <time>2020-05-18T14:48:26Z</time>
      </trkpt>
      <trkpt lat="45.77359" lon="4.665">
        <ele>402.93</ele>
        <time>2020-05-18T14:48:27Z</time>
      </trkpt>
      <trkpt lat="45.77358" lon="4.66508">
        <ele>402.93</ele>
        <time>2020-05-18T14:48:28Z</time>
      </trkpt>
      <trkpt lat="45.77351" lon="4.66546">
        <ele>399.57</ele>
        <time>2020-05-18T14:48:32Z</time>
      </trkpt>
      <trkpt lat="45.77343" lon="4.66567">
        <ele>396.2</ele>
        <time>2020-05-18T14:48:36Z</time>
      </trkpt>
      <trkpt lat="45.77342" lon="4.6657">
        <ele>396.2</ele>
        <time>2020-05-18T14:48:37Z</time>
      </trkpt>
      <trkpt lat="45.77343" lon="4.66573">
        <ele>396.2</ele>
        <time>2020-05-18T14:48:38Z</time>
      </trkpt>
      <trkpt lat="45.77344" lon="4.66575">
        <ele>395.24</ele>
        <time>2020-05-18T14:48:39Z</time>
      </trkpt>
      <trkpt lat="45.77349" lon="4.6658">
        <ele>392.84</ele>
        <time>2020-05-18T14:48:41Z</time>
      </trkpt>
      <trkpt lat="45.77349" lon="4.66583">
        <ele>392.36</ele>
        <time>2020-05-18T14:48:42Z</time>
      </trkpt>
      <trkpt lat="45.77348" lon="4.66586">
        <ele>391.87</ele>
        <time>2020-05-18T14:48:43Z</time>
      </trkpt>
      <trkpt lat="45.77345" lon="4.66588">
        <ele>391.39</ele>
        <time>2020-05-18T14:48:44Z</time>
      </trkpt>
      <trkpt lat="45.77341" lon="4.6659">
        <ele>390.43</ele>
        <time>2020-05-18T14:48:45Z</time>
      </trkpt>
      <trkpt lat="45.77336" lon="4.66592">
        <ele>389.47</ele>
        <time>2020-05-18T14:48:46Z</time>
      </trkpt>
      <trkpt lat="45.7733" lon="4.66595">
        <ele>388.51</ele>
        <time>2020-05-18T14:48:47Z</time>
      </trkpt>
      <trkpt lat="45.77324" lon="4.66597">
        <ele>387.07</ele>
        <time>2020-05-18T14:48:48Z</time>
      </trkpt>
      <trkpt lat="45.77317" lon="4.666">
        <ele>386.11</ele>
        <time>2020-05-18T14:48:49Z</time>
      </trkpt>
      <trkpt lat="45.7731" lon="4.66603">
        <ele>385.63</ele>
        <time>2020-05-18T14:48:50Z</time>
      </trkpt>
      <trkpt lat="45.77305" lon="4.66606">
        <ele>385.63</ele>
        <time>2020-05-18T14:48:51Z</time>
      </trkpt>
      <trkpt lat="45.77297" lon="4.66612">
        <ele>385.15</ele>
        <time>2020-05-18T14:48:54Z</time>
      </trkpt>
      <trkpt lat="45.77297" lon="4.66614">
        <ele>375.53</ele>
        <time>2020-05-18T14:48:58Z</time>
      </trkpt>
      <trkpt lat="45.77297" lon="4.66614">
        <ele>395.72</ele>
        <time>2020-05-18T14:48:59Z</time>
      </trkpt>
      <trkpt lat="45.77297" lon="4.66614">
        <ele>385.63</ele>
        <time>2020-05-18T14:49:00Z</time>
      </trkpt>
      <trkpt lat="45.77296" lon="4.66615">
        <ele>384.66</ele>
        <time>2020-05-18T14:49:24Z</time>
      </trkpt>
      <trkpt lat="45.77295" lon="4.66616">
        <ele>384.66</ele>
        <time>2020-05-18T14:49:51Z</time>
      </trkpt>
      <trkpt lat="45.77294" lon="4.66615">
        <ele>384.66</ele>
        <time>2020-05-18T14:50:14Z</time>
      </trkpt>
      <trkpt lat="45.77295" lon="4.66615">
        <ele>384.66</ele>
        <time>2020-05-18T14:50:44Z</time>
      </trkpt>
      <trkpt lat="45.77294" lon="4.66616">
        <ele>384.66</ele>
        <time>2020-05-18T14:50:48Z</time>
      </trkpt>
      <trkpt lat="45.77293" lon="4.66617">
        <ele>384.66</ele>
        <time>2020-05-18T14:50:49Z</time>
      </trkpt>
      <trkpt lat="45.77291" lon="4.6662">
        <ele>384.66</ele>
        <time>2020-05-18T14:50:50Z</time>
      </trkpt>
      <trkpt lat="45.7729" lon="4.66624">
        <ele>384.66</ele>
        <time>2020-05-18T14:50:51Z</time>
      </trkpt>
      <trkpt lat="45.7729" lon="4.6663">
        <ele>384.18</ele>
        <time>2020-05-18T14:50:52Z</time>
      </trkpt>
      <trkpt lat="45.77291" lon="4.66636">
        <ele>383.7</ele>
        <time>2020-05-18T14:50:53Z</time>
      </trkpt>
      <trkpt lat="45.77301" lon="4.6669">
        <ele>383.22</ele>
        <time>2020-05-18T14:51:02Z</time>
      </trkpt>
      <trkpt lat="45.773" lon="4.66695">
        <ele>383.22</ele>
        <time>2020-05-18T14:51:03Z</time>
      </trkpt>
      <trkpt lat="45.77299" lon="4.66701">
        <ele>383.22</ele>
        <time>2020-05-18T14:51:04Z</time>
      </trkpt>
      <trkpt lat="45.77298" lon="4.66707">
        <ele>383.22</ele>
        <time>2020-05-18T14:51:05Z</time>
      </trkpt>
      <trkpt lat="45.77296" lon="4.66713">
        <ele>383.22</ele>
        <time>2020-05-18T14:51:06Z</time>
      </trkpt>
      <trkpt lat="45.77295" lon="4.66718">
        <ele>383.22</ele>
        <time>2020-05-18T14:51:07Z</time>
      </trkpt>
      <trkpt lat="45.77284" lon="4.66777">
        <ele>384.18</ele>
        <time>2020-05-18T14:51:18Z</time>
      </trkpt>
      <trkpt lat="45.77281" lon="4.66782">
        <ele>383.22</ele>
        <time>2020-05-18T14:51:20Z</time>
      </trkpt>
      <trkpt lat="45.77279" lon="4.66783">
        <ele>383.22</ele>
        <time>2020-05-18T14:51:21Z</time>
      </trkpt>
      <trkpt lat="45.77266" lon="4.66784">
        <ele>379.86</ele>
        <time>2020-05-18T14:51:24Z</time>
      </trkpt>
      <trkpt lat="45.77256" lon="4.66784">
        <ele>377.94</ele>
        <time>2020-05-18T14:51:27Z</time>
      </trkpt>
      <trkpt lat="45.77251" lon="4.66788">
        <ele>376.97</ele>
        <time>2020-05-18T14:51:33Z</time>
      </trkpt>
      <trkpt lat="45.77251" lon="4.6679">
        <ele>376.97</ele>
        <time>2020-05-18T14:51:34Z</time>
      </trkpt>
      <trkpt lat="45.77251" lon="4.66794">
        <ele>376.97</ele>
        <time>2020-05-18T14:51:37Z</time>
      </trkpt>
      <trkpt lat="45.77245" lon="4.66824">
        <ele>376.01</ele>
        <time>2020-05-18T14:51:48Z</time>
      </trkpt>
      <trkpt lat="45.77219" lon="4.66884">
        <ele>376.01</ele>
        <time>2020-05-18T14:52:01Z</time>
      </trkpt>
      <trkpt lat="45.77209" lon="4.6691">
        <ele>369.28</ele>
        <time>2020-05-18T14:52:07Z</time>
      </trkpt>
      <trkpt lat="45.77208" lon="4.66915">
        <ele>383.7</ele>
        <time>2020-05-18T14:52:08Z</time>
      </trkpt>
      <trkpt lat="45.77206" lon="4.66919">
        <ele>377.45</ele>
        <time>2020-05-18T14:52:09Z</time>
      </trkpt>
      <trkpt lat="45.77175" lon="4.6701">
        <ele>376.01</ele>
        <time>2020-05-18T14:52:25Z</time>
      </trkpt>
      <trkpt lat="45.77148" lon="4.6713">
        <ele>374.57</ele>
        <time>2020-05-18T14:52:41Z</time>
      </trkpt>
      <trkpt lat="45.7714" lon="4.67198">
        <ele>374.57</ele>
        <time>2020-05-18T14:52:51Z</time>
      </trkpt>
      <trkpt lat="45.77138" lon="4.67279">
        <ele>377.94</ele>
        <time>2020-05-18T14:53:06Z</time>
      </trkpt>
      <trkpt lat="45.77136" lon="4.67353">
        <ele>380.82</ele>
        <time>2020-05-18T14:53:23Z</time>
      </trkpt>
      <trkpt lat="45.77134" lon="4.67413">
        <ele>383.22</ele>
        <time>2020-05-18T14:53:40Z</time>
      </trkpt>
      <trkpt lat="45.77136" lon="4.67456">
        <ele>381.78</ele>
        <time>2020-05-18T14:53:49Z</time>
      </trkpt>
      <trkpt lat="45.77153" lon="4.67535">
        <ele>378.9</ele>
        <time>2020-05-18T14:54:01Z</time>
      </trkpt>
      <trkpt lat="45.77158" lon="4.67552">
        <ele>378.42</ele>
        <time>2020-05-18T14:54:06Z</time>
      </trkpt>
      <trkpt lat="45.7716" lon="4.67551">
        <ele>378.42</ele>
        <time>2020-05-18T14:54:07Z</time>
      </trkpt>
      <trkpt lat="45.77161" lon="4.67548">
        <ele>378.42</ele>
        <time>2020-05-18T14:54:09Z</time>
      </trkpt>
      <trkpt lat="45.77161" lon="4.67546">
        <ele>378.42</ele>
        <time>2020-05-18T14:54:19Z</time>
      </trkpt>
      <trkpt lat="45.7716" lon="4.67549">
        <ele>378.42</ele>
        <time>2020-05-18T14:54:28Z</time>
      </trkpt>
      <trkpt lat="45.7716" lon="4.67552">
        <ele>378.42</ele>
        <time>2020-05-18T14:54:32Z</time>
      </trkpt>
      <trkpt lat="45.7716" lon="4.67556">
        <ele>377.94</ele>
        <time>2020-05-18T14:54:33Z</time>
      </trkpt>
      <trkpt lat="45.77166" lon="4.67585">
        <ele>376.01</ele>
        <time>2020-05-18T14:54:38Z</time>
      </trkpt>
      <trkpt lat="45.7718" lon="4.67637">
        <ele>373.61</ele>
        <time>2020-05-18T14:54:44Z</time>
      </trkpt>
      <trkpt lat="45.77191" lon="4.67667">
        <ele>371.69</ele>
        <time>2020-05-18T14:54:47Z</time>
      </trkpt>
      <trkpt lat="45.77194" lon="4.67677">
        <ele>370.73</ele>
        <time>2020-05-18T14:54:48Z</time>
      </trkpt>
      <trkpt lat="45.77206" lon="4.67718">
        <ele>366.88</ele>
        <time>2020-05-18T14:54:52Z</time>
      </trkpt>
      <trkpt lat="45.77209" lon="4.6773">
        <ele>364.96</ele>
        <time>2020-05-18T14:54:53Z</time>
      </trkpt>
      <trkpt lat="45.77211" lon="4.67743">
        <ele>364</ele>
        <time>2020-05-18T14:54:54Z</time>
      </trkpt>
      <trkpt lat="45.77222" lon="4.67805">
        <ele>361.11</ele>
        <time>2020-05-18T14:54:59Z</time>
      </trkpt>
      <trkpt lat="45.77225" lon="4.67816">
        <ele>361.11</ele>
        <time>2020-05-18T14:55:00Z</time>
      </trkpt>
      <trkpt lat="45.77241" lon="4.67906">
        <ele>359.67</ele>
        <time>2020-05-18T14:55:09Z</time>
      </trkpt>
      <trkpt lat="45.77254" lon="4.67949">
        <ele>361.11</ele>
        <time>2020-05-18T14:55:16Z</time>
      </trkpt>
      <trkpt lat="45.77265" lon="4.67981">
        <ele>364.48</ele>
        <time>2020-05-18T14:55:28Z</time>
      </trkpt>
      <trkpt lat="45.77274" lon="4.68009">
        <ele>367.36</ele>
        <time>2020-05-18T14:55:42Z</time>
      </trkpt>
      <trkpt lat="45.77284" lon="4.68039">
        <ele>370.73</ele>
        <time>2020-05-18T14:55:56Z</time>
      </trkpt>
      <trkpt lat="45.77303" lon="4.68068">
        <ele>373.13</ele>
        <time>2020-05-18T14:56:13Z</time>
      </trkpt>
      <trkpt lat="45.77327" lon="4.68099">
        <ele>375.53</ele>
        <time>2020-05-18T14:56:31Z</time>
      </trkpt>
      <trkpt lat="45.77347" lon="4.68137">
        <ele>376.49</ele>
        <time>2020-05-18T14:56:47Z</time>
      </trkpt>
      <trkpt lat="45.77371" lon="4.68192">
        <ele>377.94</ele>
        <time>2020-05-18T14:57:06Z</time>
      </trkpt>
      <trkpt lat="45.77393" lon="4.68232">
        <ele>379.86</ele>
        <time>2020-05-18T14:57:22Z</time>
      </trkpt>
      <trkpt lat="45.77422" lon="4.68262">
        <ele>380.82</ele>
        <time>2020-05-18T14:57:37Z</time>
      </trkpt>
      <trkpt lat="45.77447" lon="4.68291">
        <ele>381.3</ele>
        <time>2020-05-18T14:57:53Z</time>
      </trkpt>
      <trkpt lat="45.77474" lon="4.68342">
        <ele>379.38</ele>
        <time>2020-05-18T14:58:05Z</time>
      </trkpt>
      <trkpt lat="45.77486" lon="4.68371">
        <ele>378.9</ele>
        <time>2020-05-18T14:58:11Z</time>
      </trkpt>
      <trkpt lat="45.77485" lon="4.68376">
        <ele>378.9</ele>
        <time>2020-05-18T14:58:20Z</time>
      </trkpt>
      <trkpt lat="45.77486" lon="4.68376">
        <ele>378.9</ele>
        <time>2020-05-18T14:58:26Z</time>
      </trkpt>
      <trkpt lat="45.77487" lon="4.68375">
        <ele>378.9</ele>
        <time>2020-05-18T14:58:27Z</time>
      </trkpt>
      <trkpt lat="45.77486" lon="4.68374">
        <ele>378.9</ele>
        <time>2020-05-18T14:58:37Z</time>
      </trkpt>
      <trkpt lat="45.77487" lon="4.68376">
        <ele>378.9</ele>
        <time>2020-05-18T14:58:50Z</time>
      </trkpt>
      <trkpt lat="45.77487" lon="4.68378">
        <ele>378.9</ele>
        <time>2020-05-18T14:58:51Z</time>
      </trkpt>
      <trkpt lat="45.77488" lon="4.6838">
        <ele>378.9</ele>
        <time>2020-05-18T14:58:52Z</time>
      </trkpt>
      <trkpt lat="45.77489" lon="4.68383">
        <ele>378.9</ele>
        <time>2020-05-18T14:58:53Z</time>
      </trkpt>
      <trkpt lat="45.77489" lon="4.68385">
        <ele>378.9</ele>
        <time>2020-05-18T14:58:54Z</time>
      </trkpt>
      <trkpt lat="45.7749" lon="4.68389">
        <ele>378.9</ele>
        <time>2020-05-18T14:58:55Z</time>
      </trkpt>
      <trkpt lat="45.7749" lon="4.68392">
        <ele>378.9</ele>
        <time>2020-05-18T14:58:56Z</time>
      </trkpt>
      <trkpt lat="45.77489" lon="4.68396">
        <ele>378.9</ele>
        <time>2020-05-18T14:58:57Z</time>
      </trkpt>
      <trkpt lat="45.77487" lon="4.68401">
        <ele>378.9</ele>
        <time>2020-05-18T14:58:58Z</time>
      </trkpt>
      <trkpt lat="45.77486" lon="4.68404">
        <ele>378.9</ele>
        <time>2020-05-18T14:58:59Z</time>
      </trkpt>
      <trkpt lat="45.77483" lon="4.68409">
        <ele>377.94</ele>
        <time>2020-05-18T14:59:00Z</time>
      </trkpt>
      <trkpt lat="45.77479" lon="4.68413">
        <ele>377.45</ele>
        <time>2020-05-18T14:59:01Z</time>
      </trkpt>
      <trkpt lat="45.77474" lon="4.68419">
        <ele>376.97</ele>
        <time>2020-05-18T14:59:02Z</time>
      </trkpt>
      <trkpt lat="45.7747" lon="4.68424">
        <ele>376.49</ele>
        <time>2020-05-18T14:59:03Z</time>
      </trkpt>
      <trkpt lat="45.77459" lon="4.68433">
        <ele>376.01</ele>
        <time>2020-05-18T14:59:05Z</time>
      </trkpt>
      <trkpt lat="45.77454" lon="4.68437">
        <ele>376.01</ele>
        <time>2020-05-18T14:59:06Z</time>
      </trkpt>
      <trkpt lat="45.77431" lon="4.6845">
        <ele>375.05</ele>
        <time>2020-05-18T14:59:10Z</time>
      </trkpt>
      <trkpt lat="45.7738" lon="4.68461">
        <ele>377.94</ele>
        <time>2020-05-18T14:59:23Z</time>
      </trkpt>
      <trkpt lat="45.77353" lon="4.68462">
        <ele>380.82</ele>
        <time>2020-05-18T14:59:33Z</time>
      </trkpt>
      <trkpt lat="45.77332" lon="4.68472">
        <ele>383.7</ele>
        <time>2020-05-18T14:59:44Z</time>
      </trkpt>
      <trkpt lat="45.77331" lon="4.68473">
        <ele>383.7</ele>
        <time>2020-05-18T14:59:45Z</time>
      </trkpt>
      <trkpt lat="45.77329" lon="4.68471">
        <ele>383.7</ele>
        <time>2020-05-18T14:59:47Z</time>
      </trkpt>
      <trkpt lat="45.77329" lon="4.6847">
        <ele>383.7</ele>
        <time>2020-05-18T14:59:48Z</time>
      </trkpt>
      <trkpt lat="45.77329" lon="4.68468">
        <ele>383.7</ele>
        <time>2020-05-18T14:59:49Z</time>
      </trkpt>
      <trkpt lat="45.77309" lon="4.68438">
        <ele>383.7</ele>
        <time>2020-05-18T14:59:58Z</time>
      </trkpt>
      <trkpt lat="45.77302" lon="4.68429">
        <ele>382.26</ele>
        <time>2020-05-18T15:00:00Z</time>
      </trkpt>
      <trkpt lat="45.77284" lon="4.68403">
        <ele>379.38</ele>
        <time>2020-05-18T15:00:04Z</time>
      </trkpt>
      <trkpt lat="45.77279" lon="4.68396">
        <ele>379.38</ele>
        <time>2020-05-18T15:00:05Z</time>
      </trkpt>
      <trkpt lat="45.77255" lon="4.68364">
        <ele>376.01</ele>
        <time>2020-05-18T15:00:09Z</time>
      </trkpt>
      <trkpt lat="45.77236" lon="4.6834">
        <ele>374.57</ele>
        <time>2020-05-18T15:00:12Z</time>
      </trkpt>
      <trkpt lat="45.77191" lon="4.68284">
        <ele>371.21</ele>
        <time>2020-05-18T15:00:19Z</time>
      </trkpt>
      <trkpt lat="45.77166" lon="4.68257">
        <ele>370.73</ele>
        <time>2020-05-18T15:00:23Z</time>
      </trkpt>
      <trkpt lat="45.77162" lon="4.68257">
        <ele>370.73</ele>
        <time>2020-05-18T15:00:24Z</time>
      </trkpt>
      <trkpt lat="45.7716" lon="4.6826">
        <ele>370.73</ele>
        <time>2020-05-18T15:00:25Z</time>
      </trkpt>
      <trkpt lat="45.77158" lon="4.68263">
        <ele>370.73</ele>
        <time>2020-05-18T15:00:26Z</time>
      </trkpt>
      <trkpt lat="45.77158" lon="4.68266">
        <ele>371.21</ele>
        <time>2020-05-18T15:00:27Z</time>
      </trkpt>
      <trkpt lat="45.77157" lon="4.68267">
        <ele>372.65</ele>
        <time>2020-05-18T15:00:28Z</time>
      </trkpt>
      <trkpt lat="45.77156" lon="4.68269">
        <ele>372.65</ele>
        <time>2020-05-18T15:00:29Z</time>
      </trkpt>
      <trkpt lat="45.77156" lon="4.68271">
        <ele>372.65</ele>
        <time>2020-05-18T15:00:30Z</time>
      </trkpt>
      <trkpt lat="45.77155" lon="4.68273">
        <ele>372.65</ele>
        <time>2020-05-18T15:00:31Z</time>
      </trkpt>
      <trkpt lat="45.77152" lon="4.68295">
        <ele>374.09</ele>
        <time>2020-05-18T15:00:44Z</time>
      </trkpt>
      <trkpt lat="45.77152" lon="4.68296">
        <ele>374.09</ele>
        <time>2020-05-18T15:00:45Z</time>
      </trkpt>
      <trkpt lat="45.77147" lon="4.68317">
        <ele>378.42</ele>
        <time>2020-05-18T15:00:53Z</time>
      </trkpt>
      <trkpt lat="45.77147" lon="4.6832">
        <ele>376.01</ele>
        <time>2020-05-18T15:00:54Z</time>
      </trkpt>
      <trkpt lat="45.77145" lon="4.68326">
        <ele>375.05</ele>
        <time>2020-05-18T15:00:56Z</time>
      </trkpt>
      <trkpt lat="45.77132" lon="4.68363">
        <ele>376.97</ele>
        <time>2020-05-18T15:01:09Z</time>
      </trkpt>
      <trkpt lat="45.77129" lon="4.68364">
        <ele>376.97</ele>
        <time>2020-05-18T15:01:10Z</time>
      </trkpt>
      <trkpt lat="45.77127" lon="4.68364">
        <ele>376.97</ele>
        <time>2020-05-18T15:01:11Z</time>
      </trkpt>
      <trkpt lat="45.77125" lon="4.68364">
        <ele>376.97</ele>
        <time>2020-05-18T15:01:12Z</time>
      </trkpt>
      <trkpt lat="45.77123" lon="4.68363">
        <ele>376.97</ele>
        <time>2020-05-18T15:01:13Z</time>
      </trkpt>
      <trkpt lat="45.77117" lon="4.68359">
        <ele>375.53</ele>
        <time>2020-05-18T15:01:23Z</time>
      </trkpt>
      <trkpt lat="45.77104" lon="4.6835">
        <ele>374.09</ele>
        <time>2020-05-18T15:01:34Z</time>
      </trkpt>
      <trkpt lat="45.77099" lon="4.68346">
        <ele>374.09</ele>
        <time>2020-05-18T15:01:35Z</time>
      </trkpt>
      <trkpt lat="45.77074" lon="4.6833">
        <ele>372.17</ele>
        <time>2020-05-18T15:01:39Z</time>
      </trkpt>
      <trkpt lat="45.77043" lon="4.68311">
        <ele>368.8</ele>
        <time>2020-05-18T15:01:43Z</time>
      </trkpt>
      <trkpt lat="45.77035" lon="4.68306">
        <ele>368.8</ele>
        <time>2020-05-18T15:01:44Z</time>
      </trkpt>
      <trkpt lat="45.77001" lon="4.68285">
        <ele>365.44</ele>
        <time>2020-05-18T15:01:48Z</time>
      </trkpt>
      <trkpt lat="45.76985" lon="4.68278">
        <ele>364</ele>
        <time>2020-05-18T15:01:50Z</time>
      </trkpt>
      <trkpt lat="45.76977" lon="4.68276">
        <ele>363.52</ele>
        <time>2020-05-18T15:01:51Z</time>
      </trkpt>
      <trkpt lat="45.76969" lon="4.68276">
        <ele>363.52</ele>
        <time>2020-05-18T15:01:52Z</time>
      </trkpt>
      <trkpt lat="45.76961" lon="4.68278">
        <ele>363.04</ele>
        <time>2020-05-18T15:01:53Z</time>
      </trkpt>
      <trkpt lat="45.76954" lon="4.68281">
        <ele>362.07</ele>
        <time>2020-05-18T15:01:54Z</time>
      </trkpt>
      <trkpt lat="45.76949" lon="4.68282">
        <ele>362.07</ele>
        <time>2020-05-18T15:01:55Z</time>
      </trkpt>
      <trkpt lat="45.76945" lon="4.68281">
        <ele>362.07</ele>
        <time>2020-05-18T15:01:56Z</time>
      </trkpt>
      <trkpt lat="45.76942" lon="4.6828">
        <ele>362.07</ele>
        <time>2020-05-18T15:01:57Z</time>
      </trkpt>
      <trkpt lat="45.7694" lon="4.68279">
        <ele>362.55</ele>
        <time>2020-05-18T15:02:02Z</time>
      </trkpt>
      <trkpt lat="45.76938" lon="4.68278">
        <ele>362.07</ele>
        <time>2020-05-18T15:02:03Z</time>
      </trkpt>
      <trkpt lat="45.76935" lon="4.68276">
        <ele>362.07</ele>
        <time>2020-05-18T15:02:04Z</time>
      </trkpt>
      <trkpt lat="45.76931" lon="4.68276">
        <ele>362.07</ele>
        <time>2020-05-18T15:02:05Z</time>
      </trkpt>
      <trkpt lat="45.76926" lon="4.68274">
        <ele>361.59</ele>
        <time>2020-05-18T15:02:06Z</time>
      </trkpt>
      <trkpt lat="45.76923" lon="4.68272">
        <ele>361.59</ele>
        <time>2020-05-18T15:02:07Z</time>
      </trkpt>
      <trkpt lat="45.76921" lon="4.68266">
        <ele>361.59</ele>
        <time>2020-05-18T15:02:08Z</time>
      </trkpt>
      <trkpt lat="45.76921" lon="4.6826">
        <ele>360.63</ele>
        <time>2020-05-18T15:02:09Z</time>
      </trkpt>
      <trkpt lat="45.76922" lon="4.68254">
        <ele>360.63</ele>
        <time>2020-05-18T15:02:10Z</time>
      </trkpt>
      <trkpt lat="45.76928" lon="4.68216">
        <ele>359.67</ele>
        <time>2020-05-18T15:02:15Z</time>
      </trkpt>
      <trkpt lat="45.76931" lon="4.6821">
        <ele>358.71</ele>
        <time>2020-05-18T15:02:16Z</time>
      </trkpt>
      <trkpt lat="45.76935" lon="4.68205">
        <ele>358.71</ele>
        <time>2020-05-18T15:02:17Z</time>
      </trkpt>
      <trkpt lat="45.76937" lon="4.68199">
        <ele>358.71</ele>
        <time>2020-05-18T15:02:18Z</time>
      </trkpt>
      <trkpt lat="45.76937" lon="4.68193">
        <ele>358.23</ele>
        <time>2020-05-18T15:02:19Z</time>
      </trkpt>
      <trkpt lat="45.76937" lon="4.68189">
        <ele>358.23</ele>
        <time>2020-05-18T15:02:20Z</time>
      </trkpt>
      <trkpt lat="45.76936" lon="4.68178">
        <ele>356.79</ele>
        <time>2020-05-18T15:02:22Z</time>
      </trkpt>
      <trkpt lat="45.76934" lon="4.68166">
        <ele>355.34</ele>
        <time>2020-05-18T15:02:24Z</time>
      </trkpt>
      <trkpt lat="45.76934" lon="4.68159">
        <ele>354.86</ele>
        <time>2020-05-18T15:02:25Z</time>
      </trkpt>
      <trkpt lat="45.76934" lon="4.68152">
        <ele>354.86</ele>
        <time>2020-05-18T15:02:26Z</time>
      </trkpt>
      <trkpt lat="45.76934" lon="4.68146">
        <ele>353.42</ele>
        <time>2020-05-18T15:02:27Z</time>
      </trkpt>
      <trkpt lat="45.76933" lon="4.6814">
        <ele>352.94</ele>
        <time>2020-05-18T15:02:28Z</time>
      </trkpt>
      <trkpt lat="45.76929" lon="4.68137">
        <ele>351.98</ele>
        <time>2020-05-18T15:02:29Z</time>
      </trkpt>
      <trkpt lat="45.76926" lon="4.68134">
        <ele>351.98</ele>
        <time>2020-05-18T15:02:30Z</time>
      </trkpt>
      <trkpt lat="45.76922" lon="4.6813">
        <ele>350.54</ele>
        <time>2020-05-18T15:02:31Z</time>
      </trkpt>
      <trkpt lat="45.76919" lon="4.68126">
        <ele>350.54</ele>
        <time>2020-05-18T15:02:32Z</time>
      </trkpt>
      <trkpt lat="45.76916" lon="4.68125">
        <ele>350.06</ele>
        <time>2020-05-18T15:02:33Z</time>
      </trkpt>
      <trkpt lat="45.76913" lon="4.68127">
        <ele>350.06</ele>
        <time>2020-05-18T15:02:34Z</time>
      </trkpt>
      <trkpt lat="45.7691" lon="4.6813">
        <ele>350.06</ele>
        <time>2020-05-18T15:02:35Z</time>
      </trkpt>
      <trkpt lat="45.76907" lon="4.68133">
        <ele>350.54</ele>
        <time>2020-05-18T15:02:36Z</time>
      </trkpt>
      <trkpt lat="45.76904" lon="4.68135">
        <ele>350.54</ele>
        <time>2020-05-18T15:02:37Z</time>
      </trkpt>
      <trkpt lat="45.76901" lon="4.68137">
        <ele>350.06</ele>
        <time>2020-05-18T15:02:38Z</time>
      </trkpt>
      <trkpt lat="45.76897" lon="4.68138">
        <ele>350.06</ele>
        <time>2020-05-18T15:02:39Z</time>
      </trkpt>
      <trkpt lat="45.76893" lon="4.68138">
        <ele>349.58</ele>
        <time>2020-05-18T15:02:40Z</time>
      </trkpt>
      <trkpt lat="45.76889" lon="4.68136">
        <ele>349.1</ele>
        <time>2020-05-18T15:02:41Z</time>
      </trkpt>
      <trkpt lat="45.76883" lon="4.68136">
        <ele>348.62</ele>
        <time>2020-05-18T15:02:42Z</time>
      </trkpt>
      <trkpt lat="45.76878" lon="4.68139">
        <ele>348.62</ele>
        <time>2020-05-18T15:02:43Z</time>
      </trkpt>
      <trkpt lat="45.76873" lon="4.68142">
        <ele>347.65</ele>
        <time>2020-05-18T15:02:44Z</time>
      </trkpt>
      <trkpt lat="45.76868" lon="4.68143">
        <ele>347.65</ele>
        <time>2020-05-18T15:02:45Z</time>
      </trkpt>
      <trkpt lat="45.76864" lon="4.6814">
        <ele>346.69</ele>
        <time>2020-05-18T15:02:46Z</time>
      </trkpt>
      <trkpt lat="45.76859" lon="4.68135">
        <ele>346.21</ele>
        <time>2020-05-18T15:02:47Z</time>
      </trkpt>
      <trkpt lat="45.76854" lon="4.68133">
        <ele>345.25</ele>
        <time>2020-05-18T15:02:48Z</time>
      </trkpt>
      <trkpt lat="45.76848" lon="4.68132">
        <ele>344.77</ele>
        <time>2020-05-18T15:02:49Z</time>
      </trkpt>
      <trkpt lat="45.76844" lon="4.6813">
        <ele>343.81</ele>
        <time>2020-05-18T15:02:50Z</time>
      </trkpt>
      <trkpt lat="45.76841" lon="4.68128">
        <ele>343.33</ele>
        <time>2020-05-18T15:02:51Z</time>
      </trkpt>
      <trkpt lat="45.7684" lon="4.68123">
        <ele>342.85</ele>
        <time>2020-05-18T15:02:52Z</time>
      </trkpt>
      <trkpt lat="45.76839" lon="4.68117">
        <ele>342.37</ele>
        <time>2020-05-18T15:02:53Z</time>
      </trkpt>
      <trkpt lat="45.76839" lon="4.6811">
        <ele>341.41</ele>
        <time>2020-05-18T15:02:54Z</time>
      </trkpt>
      <trkpt lat="45.7684" lon="4.68103">
        <ele>341.41</ele>
        <time>2020-05-18T15:02:55Z</time>
      </trkpt>
      <trkpt lat="45.76842" lon="4.68095">
        <ele>340.44</ele>
        <time>2020-05-18T15:02:56Z</time>
      </trkpt>
      <trkpt lat="45.76845" lon="4.68089">
        <ele>339.96</ele>
        <time>2020-05-18T15:02:57Z</time>
      </trkpt>
      <trkpt lat="45.76848" lon="4.68069">
        <ele>338.04</ele>
        <time>2020-05-18T15:03:00Z</time>
      </trkpt>
      <trkpt lat="45.76847" lon="4.68062">
        <ele>337.08</ele>
        <time>2020-05-18T15:03:01Z</time>
      </trkpt>
      <trkpt lat="45.76845" lon="4.68058">
        <ele>337.08</ele>
        <time>2020-05-18T15:03:02Z</time>
      </trkpt>
      <trkpt lat="45.76841" lon="4.68057">
        <ele>336.6</ele>
        <time>2020-05-18T15:03:03Z</time>
      </trkpt>
      <trkpt lat="45.76837" lon="4.68058">
        <ele>336.6</ele>
        <time>2020-05-18T15:03:04Z</time>
      </trkpt>
      <trkpt lat="45.76833" lon="4.6806">
        <ele>335.64</ele>
        <time>2020-05-18T15:03:05Z</time>
      </trkpt>
      <trkpt lat="45.76828" lon="4.6806">
        <ele>335.64</ele>
        <time>2020-05-18T15:03:06Z</time>
      </trkpt>
      <trkpt lat="45.76824" lon="4.68059">
        <ele>335.16</ele>
        <time>2020-05-18T15:03:07Z</time>
      </trkpt>
      <trkpt lat="45.76821" lon="4.68057">
        <ele>334.68</ele>
        <time>2020-05-18T15:03:08Z</time>
      </trkpt>
      <trkpt lat="45.7681" lon="4.68055">
        <ele>334.2</ele>
        <time>2020-05-18T15:03:15Z</time>
      </trkpt>
      <trkpt lat="45.76813" lon="4.68048">
        <ele>334.2</ele>
        <time>2020-05-18T15:03:29Z</time>
      </trkpt>
      <trkpt lat="45.76812" lon="4.68047">
        <ele>333.71</ele>
        <time>2020-05-18T15:03:59Z</time>
      </trkpt>
      <trkpt lat="45.76795" lon="4.68059">
        <ele>333.23</ele>
        <time>2020-05-18T15:04:13Z</time>
      </trkpt>
      <trkpt lat="45.76773" lon="4.68075">
        <ele>332.27</ele>
        <time>2020-05-18T15:04:20Z</time>
      </trkpt>
      <trkpt lat="45.76751" lon="4.68085">
        <ele>331.79</ele>
        <time>2020-05-18T15:04:29Z</time>
      </trkpt>
      <trkpt lat="45.76749" lon="4.68085">
        <ele>331.79</ele>
        <time>2020-05-18T15:04:30Z</time>
      </trkpt>
      <trkpt lat="45.76747" lon="4.68087">
        <ele>331.31</ele>
        <time>2020-05-18T15:04:31Z</time>
      </trkpt>
      <trkpt lat="45.76743" lon="4.68094">
        <ele>331.79</ele>
        <time>2020-05-18T15:04:37Z</time>
      </trkpt>
      <trkpt lat="45.76743" lon="4.68096">
        <ele>331.79</ele>
        <time>2020-05-18T15:04:38Z</time>
      </trkpt>
      <trkpt lat="45.76743" lon="4.68098">
        <ele>331.79</ele>
        <time>2020-05-18T15:04:39Z</time>
      </trkpt>
      <trkpt lat="45.76743" lon="4.68101">
        <ele>331.79</ele>
        <time>2020-05-18T15:04:40Z</time>
      </trkpt>
      <trkpt lat="45.76743" lon="4.68104">
        <ele>331.79</ele>
        <time>2020-05-18T15:04:41Z</time>
      </trkpt>
      <trkpt lat="45.76742" lon="4.68137">
        <ele>333.23</ele>
        <time>2020-05-18T15:04:52Z</time>
      </trkpt>
      <trkpt lat="45.76741" lon="4.6814">
        <ele>333.23</ele>
        <time>2020-05-18T15:04:53Z</time>
      </trkpt>
      <trkpt lat="45.76723" lon="4.68173">
        <ele>334.68</ele>
        <time>2020-05-18T15:05:05Z</time>
      </trkpt>
      <trkpt lat="45.76698" lon="4.68206">
        <ele>335.16</ele>
        <time>2020-05-18T15:05:19Z</time>
      </trkpt>
      <trkpt lat="45.7667" lon="4.68205">
        <ele>336.6</ele>
        <time>2020-05-18T15:05:31Z</time>
      </trkpt>
      <trkpt lat="45.7666" lon="4.68206">
        <ele>336.6</ele>
        <time>2020-05-18T15:05:34Z</time>
      </trkpt>
      <trkpt lat="45.76657" lon="4.68208">
        <ele>336.6</ele>
        <time>2020-05-18T15:05:35Z</time>
      </trkpt>
      <trkpt lat="45.76654" lon="4.6821">
        <ele>336.6</ele>
        <time>2020-05-18T15:05:36Z</time>
      </trkpt>
      <trkpt lat="45.76619" lon="4.68258">
        <ele>338.52</ele>
        <time>2020-05-18T15:05:50Z</time>
      </trkpt>
      <trkpt lat="45.76595" lon="4.68287">
        <ele>339.48</ele>
        <time>2020-05-18T15:06:04Z</time>
      </trkpt>
      <trkpt lat="45.7655" lon="4.68321">
        <ele>339.96</ele>
        <time>2020-05-18T15:06:20Z</time>
      </trkpt>
      <trkpt lat="45.76517" lon="4.68343">
        <ele>340.92</ele>
        <time>2020-05-18T15:06:31Z</time>
      </trkpt>
      <trkpt lat="45.76504" lon="4.68353">
        <ele>330.35</ele>
        <time>2020-05-18T15:06:35Z</time>
      </trkpt>
      <trkpt lat="45.76501" lon="4.68355">
        <ele>351.5</ele>
        <time>2020-05-18T15:06:36Z</time>
      </trkpt>
      <trkpt lat="45.76497" lon="4.68358">
        <ele>341.89</ele>
        <time>2020-05-18T15:06:37Z</time>
      </trkpt>
      <trkpt lat="45.76448" lon="4.6839">
        <ele>340.92</ele>
        <time>2020-05-18T15:06:52Z</time>
      </trkpt>
      <trkpt lat="45.76444" lon="4.68393">
        <ele>340.92</ele>
        <time>2020-05-18T15:06:53Z</time>
      </trkpt>
      <trkpt lat="45.76373" lon="4.68412">
        <ele>338.04</ele>
        <time>2020-05-18T15:07:07Z</time>
      </trkpt>
      <trkpt lat="45.76367" lon="4.68412">
        <ele>337.56</ele>
        <time>2020-05-18T15:07:08Z</time>
      </trkpt>
      <trkpt lat="45.7636" lon="4.68409">
        <ele>337.08</ele>
        <time>2020-05-18T15:07:09Z</time>
      </trkpt>
      <trkpt lat="45.76354" lon="4.68404">
        <ele>336.6</ele>
        <time>2020-05-18T15:07:10Z</time>
      </trkpt>
      <trkpt lat="45.76347" lon="4.68398">
        <ele>335.64</ele>
        <time>2020-05-18T15:07:11Z</time>
      </trkpt>
      <trkpt lat="45.7634" lon="4.68393">
        <ele>335.16</ele>
        <time>2020-05-18T15:07:12Z</time>
      </trkpt>
      <trkpt lat="45.76326" lon="4.68385">
        <ele>334.68</ele>
        <time>2020-05-18T15:07:16Z</time>
      </trkpt>
      <trkpt lat="45.76324" lon="4.68387">
        <ele>334.68</ele>
        <time>2020-05-18T15:07:17Z</time>
      </trkpt>
      <trkpt lat="45.76323" lon="4.68388">
        <ele>334.68</ele>
        <time>2020-05-18T15:07:18Z</time>
      </trkpt>
      <trkpt lat="45.76322" lon="4.6839">
        <ele>333.71</ele>
        <time>2020-05-18T15:07:30Z</time>
      </trkpt>
      <trkpt lat="45.76311" lon="4.684">
        <ele>333.71</ele>
        <time>2020-05-18T15:07:34Z</time>
      </trkpt>
      <trkpt lat="45.76308" lon="4.68404">
        <ele>333.71</ele>
        <time>2020-05-18T15:07:35Z</time>
      </trkpt>
      <trkpt lat="45.76305" lon="4.68408">
        <ele>333.71</ele>
        <time>2020-05-18T15:07:36Z</time>
      </trkpt>
      <trkpt lat="45.7629" lon="4.6843">
        <ele>335.16</ele>
        <time>2020-05-18T15:07:42Z</time>
      </trkpt>
      <trkpt lat="45.76242" lon="4.68455">
        <ele>334.2</ele>
        <time>2020-05-18T15:07:56Z</time>
      </trkpt>
      <trkpt lat="45.76185" lon="4.68475">
        <ele>333.23</ele>
        <time>2020-05-18T15:08:08Z</time>
      </trkpt>
      <trkpt lat="45.76182" lon="4.68478">
        <ele>333.23</ele>
        <time>2020-05-18T15:08:09Z</time>
      </trkpt>
      <trkpt lat="45.76177" lon="4.68483">
        <ele>333.23</ele>
        <time>2020-05-18T15:08:10Z</time>
      </trkpt>
      <trkpt lat="45.76174" lon="4.68487">
        <ele>333.23</ele>
        <time>2020-05-18T15:08:11Z</time>
      </trkpt>
      <trkpt lat="45.76171" lon="4.68492">
        <ele>333.23</ele>
        <time>2020-05-18T15:08:12Z</time>
      </trkpt>
      <trkpt lat="45.76168" lon="4.68497">
        <ele>333.23</ele>
        <time>2020-05-18T15:08:13Z</time>
      </trkpt>
      <trkpt lat="45.76166" lon="4.68502">
        <ele>333.23</ele>
        <time>2020-05-18T15:08:14Z</time>
      </trkpt>
      <trkpt lat="45.76134" lon="4.68559">
        <ele>336.6</ele>
        <time>2020-05-18T15:08:30Z</time>
      </trkpt>
      <trkpt lat="45.76093" lon="4.68617">
        <ele>338.52</ele>
        <time>2020-05-18T15:08:49Z</time>
      </trkpt>
      <trkpt lat="45.76051" lon="4.68666">
        <ele>340.92</ele>
        <time>2020-05-18T15:09:07Z</time>
      </trkpt>
      <trkpt lat="45.76" lon="4.68721">
        <ele>341.41</ele>
        <time>2020-05-18T15:09:25Z</time>
      </trkpt>
      <trkpt lat="45.75971" lon="4.68753">
        <ele>341.41</ele>
        <time>2020-05-18T15:09:35Z</time>
      </trkpt>
      <trkpt lat="45.75912" lon="4.68815">
        <ele>338.52</ele>
        <time>2020-05-18T15:09:52Z</time>
      </trkpt>
      <trkpt lat="45.75885" lon="4.68854">
        <ele>338.52</ele>
        <time>2020-05-18T15:10:01Z</time>
      </trkpt>
      <trkpt lat="45.75881" lon="4.68858">
        <ele>338.52</ele>
        <time>2020-05-18T15:10:02Z</time>
      </trkpt>
      <trkpt lat="45.75878" lon="4.6886">
        <ele>338.52</ele>
        <time>2020-05-18T15:10:03Z</time>
      </trkpt>
      <trkpt lat="45.75874" lon="4.68861">
        <ele>338.52</ele>
        <time>2020-05-18T15:10:04Z</time>
      </trkpt>
      <trkpt lat="45.75871" lon="4.68861">
        <ele>338.52</ele>
        <time>2020-05-18T15:10:05Z</time>
      </trkpt>
      <trkpt lat="45.75869" lon="4.6886">
        <ele>338.52</ele>
        <time>2020-05-18T15:10:06Z</time>
      </trkpt>
      <trkpt lat="45.75823" lon="4.68858">
        <ele>340.92</ele>
        <time>2020-05-18T15:10:22Z</time>
      </trkpt>
      <trkpt lat="45.75752" lon="4.68842">
        <ele>342.37</ele>
        <time>2020-05-18T15:10:43Z</time>
      </trkpt>
      <trkpt lat="45.75692" lon="4.68837">
        <ele>340.92</ele>
        <time>2020-05-18T15:10:58Z</time>
      </trkpt>
      <trkpt lat="45.75644" lon="4.68833">
        <ele>338.04</ele>
        <time>2020-05-18T15:11:07Z</time>
      </trkpt>
      <trkpt lat="45.75638" lon="4.68832">
        <ele>338.04</ele>
        <time>2020-05-18T15:11:08Z</time>
      </trkpt>
      <trkpt lat="45.75602" lon="4.68833">
        <ele>334.68</ele>
        <time>2020-05-18T15:11:13Z</time>
      </trkpt>
      <trkpt lat="45.75549" lon="4.68832">
        <ele>331.79</ele>
        <time>2020-05-18T15:11:22Z</time>
      </trkpt>
      <trkpt lat="45.75546" lon="4.68833">
        <ele>331.79</ele>
        <time>2020-05-18T15:11:31Z</time>
      </trkpt>
      <trkpt lat="45.75533" lon="4.68833">
        <ele>329.87</ele>
        <time>2020-05-18T15:11:49Z</time>
      </trkpt>
      <trkpt lat="45.75515" lon="4.68835">
        <ele>327.95</ele>
        <time>2020-05-18T15:11:53Z</time>
      </trkpt>
      <trkpt lat="45.75511" lon="4.68838">
        <ele>327.95</ele>
        <time>2020-05-18T15:11:54Z</time>
      </trkpt>
      <trkpt lat="45.75506" lon="4.6884">
        <ele>326.5</ele>
        <time>2020-05-18T15:11:55Z</time>
      </trkpt>
      <trkpt lat="45.75501" lon="4.6884">
        <ele>325.54</ele>
        <time>2020-05-18T15:11:56Z</time>
      </trkpt>
      <trkpt lat="45.75496" lon="4.6884">
        <ele>324.58</ele>
        <time>2020-05-18T15:11:57Z</time>
      </trkpt>
      <trkpt lat="45.75491" lon="4.68841">
        <ele>323.62</ele>
        <time>2020-05-18T15:11:58Z</time>
      </trkpt>
      <trkpt lat="45.75487" lon="4.68842">
        <ele>322.66</ele>
        <time>2020-05-18T15:11:59Z</time>
      </trkpt>
      <trkpt lat="45.75484" lon="4.68843">
        <ele>322.18</ele>
        <time>2020-05-18T15:12:00Z</time>
      </trkpt>
      <trkpt lat="45.75481" lon="4.68845">
        <ele>321.22</ele>
        <time>2020-05-18T15:12:01Z</time>
      </trkpt>
      <trkpt lat="45.75477" lon="4.68846">
        <ele>320.26</ele>
        <time>2020-05-18T15:12:02Z</time>
      </trkpt>
      <trkpt lat="45.75473" lon="4.68847">
        <ele>319.3</ele>
        <time>2020-05-18T15:12:03Z</time>
      </trkpt>
      <trkpt lat="45.75468" lon="4.68849">
        <ele>318.33</ele>
        <time>2020-05-18T15:12:04Z</time>
      </trkpt>
      <trkpt lat="45.75464" lon="4.68851">
        <ele>316.89</ele>
        <time>2020-05-18T15:12:05Z</time>
      </trkpt>
      <trkpt lat="45.75453" lon="4.68858">
        <ele>314.97</ele>
        <time>2020-05-18T15:12:08Z</time>
      </trkpt>
      <trkpt lat="45.75438" lon="4.68866">
        <ele>311.12</ele>
        <time>2020-05-18T15:12:12Z</time>
      </trkpt>
      <trkpt lat="45.75424" lon="4.68871">
        <ele>307.76</ele>
        <time>2020-05-18T15:12:16Z</time>
      </trkpt>
      <trkpt lat="45.75421" lon="4.68873">
        <ele>307.76</ele>
        <time>2020-05-18T15:12:17Z</time>
      </trkpt>
      <trkpt lat="45.75418" lon="4.68878">
        <ele>306.32</ele>
        <time>2020-05-18T15:12:19Z</time>
      </trkpt>
      <trkpt lat="45.75417" lon="4.68881">
        <ele>305.36</ele>
        <time>2020-05-18T15:12:20Z</time>
      </trkpt>
      <trkpt lat="45.75416" lon="4.68883">
        <ele>304.88</ele>
        <time>2020-05-18T15:12:21Z</time>
      </trkpt>
      <trkpt lat="45.75415" lon="4.68886">
        <ele>304.88</ele>
        <time>2020-05-18T15:12:22Z</time>
      </trkpt>
      <trkpt lat="45.75413" lon="4.6889">
        <ele>303.91</ele>
        <time>2020-05-18T15:12:23Z</time>
      </trkpt>
      <trkpt lat="45.75412" lon="4.68895">
        <ele>302.47</ele>
        <time>2020-05-18T15:12:24Z</time>
      </trkpt>
      <trkpt lat="45.75411" lon="4.68902">
        <ele>302.47</ele>
        <time>2020-05-18T15:12:25Z</time>
      </trkpt>
      <trkpt lat="45.75411" lon="4.6891">
        <ele>301.99</ele>
        <time>2020-05-18T15:12:26Z</time>
      </trkpt>
      <trkpt lat="45.75411" lon="4.68918">
        <ele>301.99</ele>
        <time>2020-05-18T15:12:27Z</time>
      </trkpt>
      <trkpt lat="45.75411" lon="4.68925">
        <ele>301.99</ele>
        <time>2020-05-18T15:12:28Z</time>
      </trkpt>
      <trkpt lat="45.75412" lon="4.68931">
        <ele>301.99</ele>
        <time>2020-05-18T15:12:29Z</time>
      </trkpt>
      <trkpt lat="45.75411" lon="4.6894">
        <ele>300.55</ele>
        <time>2020-05-18T15:12:31Z</time>
      </trkpt>
      <trkpt lat="45.7541" lon="4.68943">
        <ele>299.59</ele>
        <time>2020-05-18T15:12:32Z</time>
      </trkpt>
      <trkpt lat="45.75408" lon="4.68943">
        <ele>299.59</ele>
        <time>2020-05-18T15:12:33Z</time>
      </trkpt>
      <trkpt lat="45.75407" lon="4.68943">
        <ele>298.63</ele>
        <time>2020-05-18T15:12:34Z</time>
      </trkpt>
      <trkpt lat="45.75395" lon="4.68945">
        <ele>300.55</ele>
        <time>2020-05-18T15:12:43Z</time>
      </trkpt>
      <trkpt lat="45.75393" lon="4.68946">
        <ele>300.07</ele>
        <time>2020-05-18T15:12:58Z</time>
      </trkpt>
      <trkpt lat="45.75394" lon="4.68947">
        <ele>300.55</ele>
        <time>2020-05-18T15:13:18Z</time>
      </trkpt>
      <trkpt lat="45.75393" lon="4.68947">
        <ele>300.55</ele>
        <time>2020-05-18T15:13:41Z</time>
      </trkpt>
      <trkpt lat="45.75392" lon="4.68946">
        <ele>300.55</ele>
        <time>2020-05-18T15:14:08Z</time>
      </trkpt>
      <trkpt lat="45.75392" lon="4.68946">
        <ele>300.55</ele>
        <time>2020-05-18T15:14:31Z</time>
      </trkpt>
      <trkpt lat="45.75387" lon="4.68941">
        <ele>301.03</ele>
        <time>2020-05-18T15:14:39Z</time>
      </trkpt>
      <trkpt lat="45.75386" lon="4.6894">
        <ele>301.03</ele>
        <time>2020-05-18T15:14:40Z</time>
      </trkpt>
      <trkpt lat="45.75385" lon="4.68939">
        <ele>301.03</ele>
        <time>2020-05-18T15:14:41Z</time>
      </trkpt>
      <trkpt lat="45.75377" lon="4.6893">
        <ele>304.39</ele>
        <time>2020-05-18T15:14:50Z</time>
      </trkpt>
      <trkpt lat="45.75373" lon="4.68929">
        <ele>305.36</ele>
        <time>2020-05-18T15:14:54Z</time>
      </trkpt>
      <trkpt lat="45.7537" lon="4.68928">
        <ele>306.32</ele>
        <time>2020-05-18T15:14:57Z</time>
      </trkpt>
      <trkpt lat="45.75368" lon="4.68928">
        <ele>306.8</ele>
        <time>2020-05-18T15:14:58Z</time>
      </trkpt>
      <trkpt lat="45.75356" lon="4.68933">
        <ele>310.16</ele>
        <time>2020-05-18T15:15:09Z</time>
      </trkpt>
      <trkpt lat="45.75341" lon="4.68941">
        <ele>313.05</ele>
        <time>2020-05-18T15:15:24Z</time>
      </trkpt>
      <trkpt lat="45.75338" lon="4.68944">
        <ele>314.01</ele>
        <time>2020-05-18T15:15:27Z</time>
      </trkpt>
      <trkpt lat="45.75326" lon="4.68951">
        <ele>317.37</ele>
        <time>2020-05-18T15:15:35Z</time>
      </trkpt>
      <trkpt lat="45.75319" lon="4.68954">
        <ele>319.3</ele>
        <time>2020-05-18T15:15:40Z</time>
      </trkpt>
      <trkpt lat="45.75317" lon="4.68955">
        <ele>319.78</ele>
        <time>2020-05-18T15:15:41Z</time>
      </trkpt>
      <trkpt lat="45.75315" lon="4.68956">
        <ele>319.78</ele>
        <time>2020-05-18T15:15:42Z</time>
      </trkpt>
      <trkpt lat="45.75314" lon="4.68956">
        <ele>320.74</ele>
        <time>2020-05-18T15:15:43Z</time>
      </trkpt>
      <trkpt lat="45.75312" lon="4.68955">
        <ele>320.74</ele>
        <time>2020-05-18T15:15:44Z</time>
      </trkpt>
      <trkpt lat="45.75311" lon="4.68956">
        <ele>321.22</ele>
        <time>2020-05-18T15:15:45Z</time>
      </trkpt>
      <trkpt lat="45.75309" lon="4.68957">
        <ele>321.22</ele>
        <time>2020-05-18T15:15:46Z</time>
      </trkpt>
      <trkpt lat="45.75308" lon="4.68958">
        <ele>322.18</ele>
        <time>2020-05-18T15:15:47Z</time>
      </trkpt>
      <trkpt lat="45.75296" lon="4.68965">
        <ele>324.1</ele>
        <time>2020-05-18T15:15:57Z</time>
      </trkpt>
      <trkpt lat="45.75295" lon="4.68966">
        <ele>324.1</ele>
        <time>2020-05-18T15:15:58Z</time>
      </trkpt>
      <trkpt lat="45.75293" lon="4.68966">
        <ele>324.58</ele>
        <time>2020-05-18T15:15:59Z</time>
      </trkpt>
      <trkpt lat="45.75292" lon="4.68967">
        <ele>324.58</ele>
        <time>2020-05-18T15:16:00Z</time>
      </trkpt>
      <trkpt lat="45.75291" lon="4.68968">
        <ele>324.58</ele>
        <time>2020-05-18T15:16:01Z</time>
      </trkpt>
      <trkpt lat="45.7529" lon="4.68968">
        <ele>324.58</ele>
        <time>2020-05-18T15:16:02Z</time>
      </trkpt>
      <trkpt lat="45.75289" lon="4.68969">
        <ele>325.06</ele>
        <time>2020-05-18T15:16:03Z</time>
      </trkpt>
      <trkpt lat="45.75288" lon="4.68969">
        <ele>325.06</ele>
        <time>2020-05-18T15:16:04Z</time>
      </trkpt>
      <trkpt lat="45.75287" lon="4.6897">
        <ele>325.06</ele>
        <time>2020-05-18T15:16:05Z</time>
      </trkpt>
      <trkpt lat="45.75286" lon="4.6897">
        <ele>325.06</ele>
        <time>2020-05-18T15:16:06Z</time>
      </trkpt>
      <trkpt lat="45.75284" lon="4.68971">
        <ele>325.06</ele>
        <time>2020-05-18T15:16:07Z</time>
      </trkpt>
      <trkpt lat="45.75283" lon="4.68972">
        <ele>325.06</ele>
        <time>2020-05-18T15:16:08Z</time>
      </trkpt>
      <trkpt lat="45.75282" lon="4.68972">
        <ele>325.54</ele>
        <time>2020-05-18T15:16:09Z</time>
      </trkpt>
      <trkpt lat="45.75281" lon="4.68973">
        <ele>325.54</ele>
        <time>2020-05-18T15:16:10Z</time>
      </trkpt>
      <trkpt lat="45.7528" lon="4.68974">
        <ele>325.54</ele>
        <time>2020-05-18T15:16:11Z</time>
      </trkpt>
      <trkpt lat="45.75279" lon="4.68974">
        <ele>325.54</ele>
        <time>2020-05-18T15:16:12Z</time>
      </trkpt>
      <trkpt lat="45.75278" lon="4.68975">
        <ele>326.02</ele>
        <time>2020-05-18T15:16:13Z</time>
      </trkpt>
      <trkpt lat="45.75277" lon="4.68975">
        <ele>326.02</ele>
        <time>2020-05-18T15:16:14Z</time>
      </trkpt>
      <trkpt lat="45.75276" lon="4.68976">
        <ele>326.02</ele>
        <time>2020-05-18T15:16:15Z</time>
      </trkpt>
      <trkpt lat="45.75254" lon="4.68985">
        <ele>328.43</ele>
        <time>2020-05-18T15:16:32Z</time>
      </trkpt>
      <trkpt lat="45.75234" lon="4.68995">
        <ele>319.3</ele>
        <time>2020-05-18T15:16:47Z</time>
      </trkpt>
      <trkpt lat="45.75233" lon="4.68996">
        <ele>343.33</ele>
        <time>2020-05-18T15:16:48Z</time>
      </trkpt>
      <trkpt lat="45.75231" lon="4.68996">
        <ele>331.79</ele>
        <time>2020-05-18T15:16:49Z</time>
      </trkpt>
      <trkpt lat="45.75211" lon="4.69007">
        <ele>333.23</ele>
        <time>2020-05-18T15:17:06Z</time>
      </trkpt>
      <trkpt lat="45.75209" lon="4.6901">
        <ele>333.71</ele>
        <time>2020-05-18T15:17:08Z</time>
      </trkpt>
      <trkpt lat="45.75209" lon="4.69011">
        <ele>333.71</ele>
        <time>2020-05-18T15:17:09Z</time>
      </trkpt>
      <trkpt lat="45.75208" lon="4.69012">
        <ele>333.71</ele>
        <time>2020-05-18T15:17:10Z</time>
      </trkpt>
      <trkpt lat="45.75206" lon="4.69013">
        <ele>333.71</ele>
        <time>2020-05-18T15:17:11Z</time>
      </trkpt>
      <trkpt lat="45.75205" lon="4.69013">
        <ele>333.71</ele>
        <time>2020-05-18T15:17:12Z</time>
      </trkpt>
      <trkpt lat="45.75204" lon="4.69014">
        <ele>333.71</ele>
        <time>2020-05-18T15:17:13Z</time>
      </trkpt>
      <trkpt lat="45.75203" lon="4.69014">
        <ele>334.2</ele>
        <time>2020-05-18T15:17:14Z</time>
      </trkpt>
      <trkpt lat="45.75201" lon="4.69014">
        <ele>334.2</ele>
        <time>2020-05-18T15:17:15Z</time>
      </trkpt>
      <trkpt lat="45.75199" lon="4.69016">
        <ele>334.68</ele>
        <time>2020-05-18T15:17:17Z</time>
      </trkpt>
      <trkpt lat="45.75198" lon="4.69016">
        <ele>334.68</ele>
        <time>2020-05-18T15:17:18Z</time>
      </trkpt>
      <trkpt lat="45.75197" lon="4.69017">
        <ele>334.68</ele>
        <time>2020-05-18T15:17:19Z</time>
      </trkpt>
      <trkpt lat="45.75182" lon="4.69024">
        <ele>335.16</ele>
        <time>2020-05-18T15:17:35Z</time>
      </trkpt>
      <trkpt lat="45.75183" lon="4.69025">
        <ele>335.64</ele>
        <time>2020-05-18T15:17:53Z</time>
      </trkpt>
      <trkpt lat="45.75183" lon="4.69025">
        <ele>335.64</ele>
        <time>2020-05-18T15:18:13Z</time>
      </trkpt>
      <trkpt lat="45.75184" lon="4.69027">
        <ele>336.12</ele>
        <time>2020-05-18T15:18:43Z</time>
      </trkpt>
      <trkpt lat="45.75184" lon="4.69027">
        <ele>335.64</ele>
        <time>2020-05-18T15:19:10Z</time>
      </trkpt>
      <trkpt lat="45.75185" lon="4.69027">
        <ele>334.68</ele>
        <time>2020-05-18T15:19:22Z</time>
      </trkpt>
      <trkpt lat="45.75185" lon="4.69026">
        <ele>334.2</ele>
        <time>2020-05-18T15:19:50Z</time>
      </trkpt>
      <trkpt lat="45.75185" lon="4.69026">
        <ele>335.16</ele>
        <time>2020-05-18T15:20:10Z</time>
      </trkpt>
      <trkpt lat="45.75185" lon="4.69027">
        <ele>333.71</ele>
        <time>2020-05-18T15:20:20Z</time>
      </trkpt>
      <trkpt lat="45.75185" lon="4.69027">
        <ele>335.64</ele>
        <time>2020-05-18T15:20:22Z</time>
      </trkpt>
      <trkpt lat="45.75185" lon="4.69027">
        <ele>334.2</ele>
        <time>2020-05-18T15:20:24Z</time>
      </trkpt>
      <trkpt lat="45.75185" lon="4.69024">
        <ele>334.2</ele>
        <time>2020-05-18T15:20:42Z</time>
      </trkpt>
      <trkpt lat="45.75184" lon="4.69024">
        <ele>334.2</ele>
        <time>2020-05-18T15:20:43Z</time>
      </trkpt>
      <trkpt lat="45.75184" lon="4.69025">
        <ele>334.2</ele>
        <time>2020-05-18T15:20:44Z</time>
      </trkpt>
      <trkpt lat="45.75184" lon="4.69027">
        <ele>334.2</ele>
        <time>2020-05-18T15:20:45Z</time>
      </trkpt>
      <trkpt lat="45.75184" lon="4.69028">
        <ele>334.2</ele>
        <time>2020-05-18T15:20:46Z</time>
      </trkpt>
      <trkpt lat="45.75183" lon="4.6903">
        <ele>335.16</ele>
        <time>2020-05-18T15:20:47Z</time>
      </trkpt>
      <trkpt lat="45.75183" lon="4.69031">
        <ele>335.16</ele>
        <time>2020-05-18T15:20:48Z</time>
      </trkpt>
      <trkpt lat="45.75181" lon="4.69047">
        <ele>335.16</ele>
        <time>2020-05-18T15:20:58Z</time>
      </trkpt>
      <trkpt lat="45.75174" lon="4.69106">
        <ele>335.16</ele>
        <time>2020-05-18T15:21:12Z</time>
      </trkpt>
      <trkpt lat="45.75172" lon="4.69117">
        <ele>333.71</ele>
        <time>2020-05-18T15:21:14Z</time>
      </trkpt>
      <trkpt lat="45.75159" lon="4.69166">
        <ele>332.75</ele>
        <time>2020-05-18T15:21:23Z</time>
      </trkpt>
      <trkpt lat="45.75156" lon="4.69172">
        <ele>332.75</ele>
        <time>2020-05-18T15:21:24Z</time>
      </trkpt>
      <trkpt lat="45.75139" lon="4.69198">
        <ele>332.75</ele>
        <time>2020-05-18T15:21:33Z</time>
      </trkpt>
      <trkpt lat="45.75096" lon="4.69274">
        <ele>331.31</ele>
        <time>2020-05-18T15:21:48Z</time>
      </trkpt>
      <trkpt lat="45.75069" lon="4.69324">
        <ele>331.31</ele>
        <time>2020-05-18T15:21:57Z</time>
      </trkpt>
      <trkpt lat="45.75061" lon="4.69337">
        <ele>331.31</ele>
        <time>2020-05-18T15:22:00Z</time>
      </trkpt>
      <trkpt lat="45.75055" lon="4.69345">
        <ele>331.31</ele>
        <time>2020-05-18T15:22:02Z</time>
      </trkpt>
      <trkpt lat="45.75043" lon="4.69361">
        <ele>331.31</ele>
        <time>2020-05-18T15:22:06Z</time>
      </trkpt>
      <trkpt lat="45.75039" lon="4.69362">
        <ele>331.31</ele>
        <time>2020-05-18T15:22:07Z</time>
      </trkpt>
      <trkpt lat="45.75035" lon="4.6936">
        <ele>331.31</ele>
        <time>2020-05-18T15:22:08Z</time>
      </trkpt>
      <trkpt lat="45.75033" lon="4.69357">
        <ele>331.31</ele>
        <time>2020-05-18T15:22:09Z</time>
      </trkpt>
      <trkpt lat="45.7503" lon="4.69353">
        <ele>332.27</ele>
        <time>2020-05-18T15:22:10Z</time>
      </trkpt>
      <trkpt lat="45.75028" lon="4.6935">
        <ele>332.27</ele>
        <time>2020-05-18T15:22:11Z</time>
      </trkpt>
      <trkpt lat="45.74997" lon="4.69287">
        <ele>335.16</ele>
        <time>2020-05-18T15:22:29Z</time>
      </trkpt>
      <trkpt lat="45.74976" lon="4.6925">
        <ele>336.12</ele>
        <time>2020-05-18T15:22:44Z</time>
      </trkpt>
      <trkpt lat="45.74975" lon="4.69251">
        <ele>336.12</ele>
        <time>2020-05-18T15:22:50Z</time>
      </trkpt>
      <trkpt lat="45.74974" lon="4.69252">
        <ele>336.6</ele>
        <time>2020-05-18T15:22:51Z</time>
      </trkpt>
      <trkpt lat="45.74972" lon="4.69253">
        <ele>336.6</ele>
        <time>2020-05-18T15:22:52Z</time>
      </trkpt>
      <trkpt lat="45.7497" lon="4.69256">
        <ele>336.6</ele>
        <time>2020-05-18T15:22:53Z</time>
      </trkpt>
      <trkpt lat="45.74969" lon="4.69259">
        <ele>336.6</ele>
        <time>2020-05-18T15:22:54Z</time>
      </trkpt>
      <trkpt lat="45.74968" lon="4.69263">
        <ele>336.6</ele>
        <time>2020-05-18T15:22:55Z</time>
      </trkpt>
      <trkpt lat="45.74967" lon="4.69268">
        <ele>336.6</ele>
        <time>2020-05-18T15:22:56Z</time>
      </trkpt>
      <trkpt lat="45.74958" lon="4.69356">
        <ele>333.23</ele>
        <time>2020-05-18T15:23:08Z</time>
      </trkpt>
      <trkpt lat="45.74956" lon="4.69375">
        <ele>332.75</ele>
        <time>2020-05-18T15:23:10Z</time>
      </trkpt>
      <trkpt lat="45.74949" lon="4.69444">
        <ele>330.83</ele>
        <time>2020-05-18T15:23:17Z</time>
      </trkpt>
      <trkpt lat="45.74941" lon="4.69491">
        <ele>329.87</ele>
        <time>2020-05-18T15:23:22Z</time>
      </trkpt>
      <trkpt lat="45.74936" lon="4.69497">
        <ele>329.87</ele>
        <time>2020-05-18T15:23:23Z</time>
      </trkpt>
      <trkpt lat="45.7493" lon="4.695">
        <ele>329.87</ele>
        <time>2020-05-18T15:23:24Z</time>
      </trkpt>
      <trkpt lat="45.74924" lon="4.69499">
        <ele>329.87</ele>
        <time>2020-05-18T15:23:25Z</time>
      </trkpt>
      <trkpt lat="45.7492" lon="4.69494">
        <ele>329.87</ele>
        <time>2020-05-18T15:23:26Z</time>
      </trkpt>
      <trkpt lat="45.74917" lon="4.69488">
        <ele>329.87</ele>
        <time>2020-05-18T15:23:27Z</time>
      </trkpt>
      <trkpt lat="45.74913" lon="4.69482">
        <ele>329.87</ele>
        <time>2020-05-18T15:23:28Z</time>
      </trkpt>
      <trkpt lat="45.7491" lon="4.69476">
        <ele>329.87</ele>
        <time>2020-05-18T15:23:29Z</time>
      </trkpt>
      <trkpt lat="45.74895" lon="4.69454">
        <ele>330.83</ele>
        <time>2020-05-18T15:23:33Z</time>
      </trkpt>
      <trkpt lat="45.74849" lon="4.6938">
        <ele>333.23</ele>
        <time>2020-05-18T15:23:49Z</time>
      </trkpt>
      <trkpt lat="45.74801" lon="4.69282">
        <ele>335.16</ele>
        <time>2020-05-18T15:24:10Z</time>
      </trkpt>
      <trkpt lat="45.74768" lon="4.69213">
        <ele>336.6</ele>
        <time>2020-05-18T15:24:25Z</time>
      </trkpt>
      <trkpt lat="45.74742" lon="4.69163">
        <ele>336.6</ele>
        <time>2020-05-18T15:24:37Z</time>
      </trkpt>
      <trkpt lat="45.74738" lon="4.69158">
        <ele>336.6</ele>
        <time>2020-05-18T15:24:40Z</time>
      </trkpt>
      <trkpt lat="45.74735" lon="4.69159">
        <ele>336.6</ele>
        <time>2020-05-18T15:24:41Z</time>
      </trkpt>
      <trkpt lat="45.74733" lon="4.69164">
        <ele>336.6</ele>
        <time>2020-05-18T15:24:42Z</time>
      </trkpt>
      <trkpt lat="45.74732" lon="4.69169">
        <ele>335.64</ele>
        <time>2020-05-18T15:24:43Z</time>
      </trkpt>
      <trkpt lat="45.74731" lon="4.69177">
        <ele>335.64</ele>
        <time>2020-05-18T15:24:44Z</time>
      </trkpt>
      <trkpt lat="45.7473" lon="4.69184">
        <ele>335.16</ele>
        <time>2020-05-18T15:24:45Z</time>
      </trkpt>
      <trkpt lat="45.74729" lon="4.69192">
        <ele>334.68</ele>
        <time>2020-05-18T15:24:46Z</time>
      </trkpt>
      <trkpt lat="45.74728" lon="4.692">
        <ele>335.16</ele>
        <time>2020-05-18T15:24:47Z</time>
      </trkpt>
      <trkpt lat="45.74727" lon="4.69235">
        <ele>333.71</ele>
        <time>2020-05-18T15:24:51Z</time>
      </trkpt>
      <trkpt lat="45.74724" lon="4.69264">
        <ele>332.75</ele>
        <time>2020-05-18T15:24:58Z</time>
      </trkpt>
      <trkpt lat="45.7472" lon="4.69284">
        <ele>332.27</ele>
        <time>2020-05-18T15:25:02Z</time>
      </trkpt>
      <trkpt lat="45.74717" lon="4.69288">
        <ele>332.27</ele>
        <time>2020-05-18T15:25:03Z</time>
      </trkpt>
      <trkpt lat="45.74713" lon="4.6929">
        <ele>332.27</ele>
        <time>2020-05-18T15:25:04Z</time>
      </trkpt>
      <trkpt lat="45.74709" lon="4.69291">
        <ele>332.27</ele>
        <time>2020-05-18T15:25:05Z</time>
      </trkpt>
      <trkpt lat="45.74705" lon="4.69292">
        <ele>332.27</ele>
        <time>2020-05-18T15:25:06Z</time>
      </trkpt>
      <trkpt lat="45.74701" lon="4.69293">
        <ele>332.27</ele>
        <time>2020-05-18T15:25:07Z</time>
      </trkpt>
      <trkpt lat="45.7468" lon="4.69294">
        <ele>331.31</ele>
        <time>2020-05-18T15:25:12Z</time>
      </trkpt>
      <trkpt lat="45.74675" lon="4.69294">
        <ele>330.83</ele>
        <time>2020-05-18T15:25:13Z</time>
      </trkpt>
      <trkpt lat="45.74657" lon="4.69297">
        <ele>329.87</ele>
        <time>2020-05-18T15:25:16Z</time>
      </trkpt>
      <trkpt lat="45.74651" lon="4.69299">
        <ele>329.39</ele>
        <time>2020-05-18T15:25:17Z</time>
      </trkpt>
      <trkpt lat="45.74602" lon="4.69309">
        <ele>326.5</ele>
        <time>2020-05-18T15:25:25Z</time>
      </trkpt>
      <trkpt lat="45.74574" lon="4.69312">
        <ele>324.1</ele>
        <time>2020-05-18T15:25:29Z</time>
      </trkpt>
      <trkpt lat="45.74545" lon="4.69313">
        <ele>322.18</ele>
        <time>2020-05-18T15:25:33Z</time>
      </trkpt>
      <trkpt lat="45.74534" lon="4.69314">
        <ele>321.22</ele>
        <time>2020-05-18T15:25:35Z</time>
      </trkpt>
      <trkpt lat="45.74525" lon="4.69316">
        <ele>321.22</ele>
        <time>2020-05-18T15:25:37Z</time>
      </trkpt>
      <trkpt lat="45.74524" lon="4.69319">
        <ele>320.74</ele>
        <time>2020-05-18T15:25:38Z</time>
      </trkpt>
      <trkpt lat="45.74524" lon="4.69324">
        <ele>320.74</ele>
        <time>2020-05-18T15:25:39Z</time>
      </trkpt>
      <trkpt lat="45.74527" lon="4.69344">
        <ele>322.18</ele>
        <time>2020-05-18T15:25:43Z</time>
      </trkpt>
      <trkpt lat="45.74528" lon="4.69368">
        <ele>317.37</ele>
        <time>2020-05-18T15:25:47Z</time>
      </trkpt>
      <trkpt lat="45.74528" lon="4.69374">
        <ele>325.54</ele>
        <time>2020-05-18T15:25:48Z</time>
      </trkpt>
      <trkpt lat="45.74528" lon="4.69381">
        <ele>322.18</ele>
        <time>2020-05-18T15:25:49Z</time>
      </trkpt>
      <trkpt lat="45.74534" lon="4.69493">
        <ele>320.74</ele>
        <time>2020-05-18T15:26:04Z</time>
      </trkpt>
      <trkpt lat="45.74536" lon="4.69523">
        <ele>319.3</ele>
        <time>2020-05-18T15:26:11Z</time>
      </trkpt>
      <trkpt lat="45.74541" lon="4.69638">
        <ele>317.37</ele>
        <time>2020-05-18T15:26:26Z</time>
      </trkpt>
      <trkpt lat="45.74546" lon="4.69766">
        <ele>315.93</ele>
        <time>2020-05-18T15:26:42Z</time>
      </trkpt>
      <trkpt lat="45.74546" lon="4.69787">
        <ele>315.93</ele>
        <time>2020-05-18T15:26:45Z</time>
      </trkpt>
      <trkpt lat="45.74543" lon="4.69793">
        <ele>315.93</ele>
        <time>2020-05-18T15:26:46Z</time>
      </trkpt>
      <trkpt lat="45.7454" lon="4.69799">
        <ele>315.93</ele>
        <time>2020-05-18T15:26:47Z</time>
      </trkpt>
      <trkpt lat="45.74534" lon="4.69807">
        <ele>315.93</ele>
        <time>2020-05-18T15:26:49Z</time>
      </trkpt>
      <trkpt lat="45.74503" lon="4.69848">
        <ele>313.53</ele>
        <time>2020-05-18T15:26:57Z</time>
      </trkpt>
      <trkpt lat="45.74498" lon="4.69853">
        <ele>313.53</ele>
        <time>2020-05-18T15:26:58Z</time>
      </trkpt>
      <trkpt lat="45.74493" lon="4.69858">
        <ele>312.57</ele>
        <time>2020-05-18T15:26:59Z</time>
      </trkpt>
      <trkpt lat="45.7447" lon="4.69874">
        <ele>311.6</ele>
        <time>2020-05-18T15:27:03Z</time>
      </trkpt>
      <trkpt lat="45.74465" lon="4.69877">
        <ele>311.6</ele>
        <time>2020-05-18T15:27:04Z</time>
      </trkpt>
      <trkpt lat="45.74454" lon="4.69882">
        <ele>310.64</ele>
        <time>2020-05-18T15:27:06Z</time>
      </trkpt>
      <trkpt lat="45.74411" lon="4.6992">
        <ele>309.68</ele>
        <time>2020-05-18T15:27:17Z</time>
      </trkpt>
      <trkpt lat="45.74412" lon="4.69923">
        <ele>309.68</ele>
        <time>2020-05-18T15:27:18Z</time>
      </trkpt>
      <trkpt lat="45.74414" lon="4.69924">
        <ele>309.68</ele>
        <time>2020-05-18T15:27:19Z</time>
      </trkpt>
      <trkpt lat="45.74416" lon="4.69924">
        <ele>309.68</ele>
        <time>2020-05-18T15:27:20Z</time>
      </trkpt>
      <trkpt lat="45.74418" lon="4.69923">
        <ele>309.68</ele>
        <time>2020-05-18T15:27:21Z</time>
      </trkpt>
      <trkpt lat="45.74418" lon="4.69921">
        <ele>310.16</ele>
        <time>2020-05-18T15:27:22Z</time>
      </trkpt>
      <trkpt lat="45.74417" lon="4.6992">
        <ele>310.16</ele>
        <time>2020-05-18T15:27:23Z</time>
      </trkpt>
      <trkpt lat="45.74416" lon="4.69921">
        <ele>310.16</ele>
        <time>2020-05-18T15:27:34Z</time>
      </trkpt>
      <trkpt lat="45.74412" lon="4.69924">
        <ele>310.16</ele>
        <time>2020-05-18T15:27:59Z</time>
      </trkpt>
      <trkpt lat="45.74396" lon="4.69936">
        <ele>310.16</ele>
        <time>2020-05-18T15:28:03Z</time>
      </trkpt>
      <trkpt lat="45.74392" lon="4.6994">
        <ele>309.68</ele>
        <time>2020-05-18T15:28:04Z</time>
      </trkpt>
      <trkpt lat="45.74386" lon="4.69942">
        <ele>309.2</ele>
        <time>2020-05-18T15:28:05Z</time>
      </trkpt>
      <trkpt lat="45.74375" lon="4.69948">
        <ele>308.24</ele>
        <time>2020-05-18T15:28:07Z</time>
      </trkpt>
      <trkpt lat="45.74345" lon="4.6997">
        <ele>307.76</ele>
        <time>2020-05-18T15:28:12Z</time>
      </trkpt>
      <trkpt lat="45.74304" lon="4.70032">
        <ele>306.32</ele>
        <time>2020-05-18T15:28:23Z</time>
      </trkpt>
      <trkpt lat="45.74278" lon="4.70085">
        <ele>305.36</ele>
        <time>2020-05-18T15:28:32Z</time>
      </trkpt>
      <trkpt lat="45.74277" lon="4.70092">
        <ele>305.36</ele>
        <time>2020-05-18T15:28:33Z</time>
      </trkpt>
      <trkpt lat="45.74261" lon="4.70175">
        <ele>306.8</ele>
        <time>2020-05-18T15:28:45Z</time>
      </trkpt>
      <trkpt lat="45.74257" lon="4.70193">
        <ele>307.28</ele>
        <time>2020-05-18T15:28:48Z</time>
      </trkpt>
      <trkpt lat="45.74256" lon="4.702">
        <ele>307.28</ele>
        <time>2020-05-18T15:28:49Z</time>
      </trkpt>
      <trkpt lat="45.74252" lon="4.70219">
        <ele>307.28</ele>
        <time>2020-05-18T15:28:52Z</time>
      </trkpt>
      <trkpt lat="45.74237" lon="4.70333">
        <ele>307.76</ele>
        <time>2020-05-18T15:29:08Z</time>
      </trkpt>
      <trkpt lat="45.74234" lon="4.70417">
        <ele>304.39</ele>
        <time>2020-05-18T15:29:18Z</time>
      </trkpt>
      <trkpt lat="45.74237" lon="4.70458">
        <ele>304.39</ele>
        <time>2020-05-18T15:29:23Z</time>
      </trkpt>
      <trkpt lat="45.74242" lon="4.70505">
        <ele>302.95</ele>
        <time>2020-05-18T15:29:29Z</time>
      </trkpt>
      <trkpt lat="45.74248" lon="4.70543">
        <ele>301.51</ele>
        <time>2020-05-18T15:29:34Z</time>
      </trkpt>
      <trkpt lat="45.74249" lon="4.7055">
        <ele>301.51</ele>
        <time>2020-05-18T15:29:35Z</time>
      </trkpt>
      <trkpt lat="45.74256" lon="4.70578">
        <ele>302.47</ele>
        <time>2020-05-18T15:29:40Z</time>
      </trkpt>
      <trkpt lat="45.74262" lon="4.70604">
        <ele>301.03</ele>
        <time>2020-05-18T15:29:44Z</time>
      </trkpt>
      <trkpt lat="45.7427" lon="4.70637">
        <ele>301.03</ele>
        <time>2020-05-18T15:29:49Z</time>
      </trkpt>
      <trkpt lat="45.7427" lon="4.70644">
        <ele>301.03</ele>
        <time>2020-05-18T15:29:50Z</time>
      </trkpt>
      <trkpt lat="45.7427" lon="4.7065">
        <ele>300.55</ele>
        <time>2020-05-18T15:29:51Z</time>
      </trkpt>
      <trkpt lat="45.74267" lon="4.70665">
        <ele>300.55</ele>
        <time>2020-05-18T15:29:54Z</time>
      </trkpt>
      <trkpt lat="45.74264" lon="4.70668">
        <ele>300.55</ele>
        <time>2020-05-18T15:29:55Z</time>
      </trkpt>
      <trkpt lat="45.74262" lon="4.70669">
        <ele>300.07</ele>
        <time>2020-05-18T15:29:56Z</time>
      </trkpt>
      <trkpt lat="45.74259" lon="4.7067">
        <ele>300.07</ele>
        <time>2020-05-18T15:29:57Z</time>
      </trkpt>
      <trkpt lat="45.74256" lon="4.7067">
        <ele>300.07</ele>
        <time>2020-05-18T15:29:58Z</time>
      </trkpt>
      <trkpt lat="45.7422" lon="4.70679">
        <ele>298.63</ele>
        <time>2020-05-18T15:30:08Z</time>
      </trkpt>
      <trkpt lat="45.74215" lon="4.70681">
        <ele>298.63</ele>
        <time>2020-05-18T15:30:09Z</time>
      </trkpt>
      <trkpt lat="45.7421" lon="4.70682">
        <ele>298.63</ele>
        <time>2020-05-18T15:30:10Z</time>
      </trkpt>
      <trkpt lat="45.74204" lon="4.70684">
        <ele>298.63</ele>
        <time>2020-05-18T15:30:11Z</time>
      </trkpt>
      <trkpt lat="45.74198" lon="4.70686">
        <ele>298.63</ele>
        <time>2020-05-18T15:30:12Z</time>
      </trkpt>
      <trkpt lat="45.74192" lon="4.70689">
        <ele>298.63</ele>
        <time>2020-05-18T15:30:13Z</time>
      </trkpt>
      <trkpt lat="45.74185" lon="4.70691">
        <ele>298.63</ele>
        <time>2020-05-18T15:30:14Z</time>
      </trkpt>
      <trkpt lat="45.741" lon="4.70718">
        <ele>296.7</ele>
        <time>2020-05-18T15:30:28Z</time>
      </trkpt>
      <trkpt lat="45.74094" lon="4.7072">
        <ele>296.7</ele>
        <time>2020-05-18T15:30:29Z</time>
      </trkpt>
      <trkpt lat="45.74088" lon="4.70723">
        <ele>296.22</ele>
        <time>2020-05-18T15:30:30Z</time>
      </trkpt>
      <trkpt lat="45.74082" lon="4.70726">
        <ele>295.74</ele>
        <time>2020-05-18T15:30:31Z</time>
      </trkpt>
      <trkpt lat="45.74062" lon="4.70732">
        <ele>295.26</ele>
        <time>2020-05-18T15:30:34Z</time>
      </trkpt>
      <trkpt lat="45.74055" lon="4.70733">
        <ele>295.26</ele>
        <time>2020-05-18T15:30:35Z</time>
      </trkpt>
      <trkpt lat="45.74048" lon="4.70736">
        <ele>295.26</ele>
        <time>2020-05-18T15:30:36Z</time>
      </trkpt>
      <trkpt lat="45.74009" lon="4.70752">
        <ele>294.3</ele>
        <time>2020-05-18T15:30:42Z</time>
      </trkpt>
      <trkpt lat="45.74004" lon="4.70753">
        <ele>294.3</ele>
        <time>2020-05-18T15:30:43Z</time>
      </trkpt>
      <trkpt lat="45.74001" lon="4.70753">
        <ele>294.3</ele>
        <time>2020-05-18T15:30:44Z</time>
      </trkpt>
      <trkpt lat="45.73998" lon="4.70754">
        <ele>294.3</ele>
        <time>2020-05-18T15:30:45Z</time>
      </trkpt>
      <trkpt lat="45.73995" lon="4.70754">
        <ele>294.3</ele>
        <time>2020-05-18T15:30:46Z</time>
      </trkpt>
      <trkpt lat="45.7399" lon="4.70755">
        <ele>294.3</ele>
        <time>2020-05-18T15:30:47Z</time>
      </trkpt>
      <trkpt lat="45.73985" lon="4.70755">
        <ele>294.3</ele>
        <time>2020-05-18T15:30:48Z</time>
      </trkpt>
      <trkpt lat="45.73902" lon="4.70742">
        <ele>292.86</ele>
        <time>2020-05-18T15:31:01Z</time>
      </trkpt>
      <trkpt lat="45.73879" lon="4.70732">
        <ele>292.38</ele>
        <time>2020-05-18T15:31:09Z</time>
      </trkpt>
      <trkpt lat="45.73878" lon="4.70732">
        <ele>292.38</ele>
        <time>2020-05-18T15:31:13Z</time>
      </trkpt>
      <trkpt lat="45.73876" lon="4.70729">
        <ele>292.38</ele>
        <time>2020-05-18T15:31:14Z</time>
      </trkpt>
      <trkpt lat="45.73874" lon="4.70727">
        <ele>292.38</ele>
        <time>2020-05-18T15:31:15Z</time>
      </trkpt>
      <trkpt lat="45.73872" lon="4.70725">
        <ele>292.38</ele>
        <time>2020-05-18T15:31:16Z</time>
      </trkpt>
      <trkpt lat="45.73869" lon="4.70723">
        <ele>292.38</ele>
        <time>2020-05-18T15:31:17Z</time>
      </trkpt>
      <trkpt lat="45.73851" lon="4.70708">
        <ele>291.42</ele>
        <time>2020-05-18T15:31:22Z</time>
      </trkpt>
      <trkpt lat="45.73847" lon="4.70703">
        <ele>290.94</ele>
        <time>2020-05-18T15:31:23Z</time>
      </trkpt>
      <trkpt lat="45.73842" lon="4.70699">
        <ele>290.46</ele>
        <time>2020-05-18T15:31:24Z</time>
      </trkpt>
      <trkpt lat="45.73817" lon="4.7068">
        <ele>289.49</ele>
        <time>2020-05-18T15:31:28Z</time>
      </trkpt>
      <trkpt lat="45.73811" lon="4.70677">
        <ele>289.49</ele>
        <time>2020-05-18T15:31:29Z</time>
      </trkpt>
      <trkpt lat="45.73804" lon="4.70673">
        <ele>289.49</ele>
        <time>2020-05-18T15:31:30Z</time>
      </trkpt>
      <trkpt lat="45.73749" lon="4.70647">
        <ele>288.53</ele>
        <time>2020-05-18T15:31:39Z</time>
      </trkpt>
      <trkpt lat="45.73699" lon="4.7064">
        <ele>287.57</ele>
        <time>2020-05-18T15:31:49Z</time>
      </trkpt>
      <trkpt lat="45.73681" lon="4.70637">
        <ele>287.57</ele>
        <time>2020-05-18T15:31:52Z</time>
      </trkpt>
      <trkpt lat="45.73675" lon="4.70636">
        <ele>287.57</ele>
        <time>2020-05-18T15:31:53Z</time>
      </trkpt>
      <trkpt lat="45.73652" lon="4.70633">
        <ele>287.57</ele>
        <time>2020-05-18T15:31:57Z</time>
      </trkpt>
      <trkpt lat="45.73628" lon="4.70621">
        <ele>287.09</ele>
        <time>2020-05-18T15:32:02Z</time>
      </trkpt>
      <trkpt lat="45.73625" lon="4.70619">
        <ele>287.09</ele>
        <time>2020-05-18T15:32:03Z</time>
      </trkpt>
      <trkpt lat="45.73612" lon="4.70618">
        <ele>287.09</ele>
        <time>2020-05-18T15:32:10Z</time>
      </trkpt>
      <trkpt lat="45.7361" lon="4.70619">
        <ele>287.09</ele>
        <time>2020-05-18T15:32:16Z</time>
      </trkpt>
      <trkpt lat="45.73609" lon="4.7062">
        <ele>286.13</ele>
        <time>2020-05-18T15:32:17Z</time>
      </trkpt>
      <trkpt lat="45.73608" lon="4.70621">
        <ele>286.13</ele>
        <time>2020-05-18T15:32:18Z</time>
      </trkpt>
      <trkpt lat="45.73607" lon="4.70623">
        <ele>285.17</ele>
        <time>2020-05-18T15:32:19Z</time>
      </trkpt>
      <trkpt lat="45.73605" lon="4.70624">
        <ele>285.17</ele>
        <time>2020-05-18T15:32:20Z</time>
      </trkpt>
      <trkpt lat="45.73603" lon="4.70625">
        <ele>284.69</ele>
        <time>2020-05-18T15:32:21Z</time>
      </trkpt>
      <trkpt lat="45.73601" lon="4.70626">
        <ele>284.69</ele>
        <time>2020-05-18T15:32:22Z</time>
      </trkpt>
      <trkpt lat="45.73599" lon="4.70628">
        <ele>283.73</ele>
        <time>2020-05-18T15:32:23Z</time>
      </trkpt>
      <trkpt lat="45.73597" lon="4.70629">
        <ele>283.73</ele>
        <time>2020-05-18T15:32:24Z</time>
      </trkpt>
      <trkpt lat="45.73595" lon="4.70631">
        <ele>283.25</ele>
        <time>2020-05-18T15:32:25Z</time>
      </trkpt>
      <trkpt lat="45.73581" lon="4.70638">
        <ele>281.32</ele>
        <time>2020-05-18T15:32:36Z</time>
      </trkpt>
      <trkpt lat="45.73581" lon="4.70638">
        <ele>277</ele>
        <time>2020-05-18T15:32:42Z</time>
      </trkpt>
      <trkpt lat="45.73581" lon="4.70638">
        <ele>283.73</ele>
        <time>2020-05-18T15:32:43Z</time>
      </trkpt>
      <trkpt lat="45.73581" lon="4.70638">
        <ele>280.84</ele>
        <time>2020-05-18T15:33:03Z</time>
      </trkpt>
      <trkpt lat="45.73578" lon="4.70637">
        <ele>280.36</ele>
        <time>2020-05-18T15:33:10Z</time>
      </trkpt>
      <trkpt lat="45.73576" lon="4.70637">
        <ele>280.36</ele>
        <time>2020-05-18T15:33:11Z</time>
      </trkpt>
      <trkpt lat="45.73555" lon="4.70636">
        <ele>277.96</ele>
        <time>2020-05-18T15:33:17Z</time>
      </trkpt>
      <trkpt lat="45.7355" lon="4.70636">
        <ele>277</ele>
        <time>2020-05-18T15:33:18Z</time>
      </trkpt>
      <trkpt lat="45.73545" lon="4.70638">
        <ele>277</ele>
        <time>2020-05-18T15:33:19Z</time>
      </trkpt>
      <trkpt lat="45.7354" lon="4.7064">
        <ele>276.04</ele>
        <time>2020-05-18T15:33:20Z</time>
      </trkpt>
      <trkpt lat="45.73535" lon="4.70643">
        <ele>275.56</ele>
        <time>2020-05-18T15:33:21Z</time>
      </trkpt>
      <trkpt lat="45.7353" lon="4.70646">
        <ele>274.59</ele>
        <time>2020-05-18T15:33:22Z</time>
      </trkpt>
      <trkpt lat="45.73524" lon="4.70648">
        <ele>273.63</ele>
        <time>2020-05-18T15:33:23Z</time>
      </trkpt>
      <trkpt lat="45.73518" lon="4.70649">
        <ele>273.15</ele>
        <time>2020-05-18T15:33:24Z</time>
      </trkpt>
      <trkpt lat="45.73512" lon="4.70651">
        <ele>272.19</ele>
        <time>2020-05-18T15:33:25Z</time>
      </trkpt>
      <trkpt lat="45.73507" lon="4.70652">
        <ele>272.19</ele>
        <time>2020-05-18T15:33:26Z</time>
      </trkpt>
      <trkpt lat="45.73502" lon="4.70652">
        <ele>271.23</ele>
        <time>2020-05-18T15:33:27Z</time>
      </trkpt>
      <trkpt lat="45.73496" lon="4.70651">
        <ele>269.79</ele>
        <time>2020-05-18T15:33:28Z</time>
      </trkpt>
      <trkpt lat="45.73491" lon="4.70648">
        <ele>269.79</ele>
        <time>2020-05-18T15:33:29Z</time>
      </trkpt>
      <trkpt lat="45.73486" lon="4.70645">
        <ele>269.31</ele>
        <time>2020-05-18T15:33:30Z</time>
      </trkpt>
      <trkpt lat="45.73482" lon="4.70643">
        <ele>268.83</ele>
        <time>2020-05-18T15:33:31Z</time>
      </trkpt>
      <trkpt lat="45.7348" lon="4.70641">
        <ele>268.83</ele>
        <time>2020-05-18T15:33:32Z</time>
      </trkpt>
      <trkpt lat="45.73477" lon="4.70641">
        <ele>267.86</ele>
        <time>2020-05-18T15:33:33Z</time>
      </trkpt>
      <trkpt lat="45.73474" lon="4.70642">
        <ele>267.38</ele>
        <time>2020-05-18T15:33:34Z</time>
      </trkpt>
      <trkpt lat="45.73472" lon="4.70646">
        <ele>266.42</ele>
        <time>2020-05-18T15:33:35Z</time>
      </trkpt>
      <trkpt lat="45.73471" lon="4.7065">
        <ele>266.9</ele>
        <time>2020-05-18T15:33:36Z</time>
      </trkpt>
      <trkpt lat="45.73472" lon="4.70655">
        <ele>265.94</ele>
        <time>2020-05-18T15:33:37Z</time>
      </trkpt>
      <trkpt lat="45.73474" lon="4.70659">
        <ele>265.94</ele>
        <time>2020-05-18T15:33:38Z</time>
      </trkpt>
      <trkpt lat="45.73476" lon="4.70663">
        <ele>265.46</ele>
        <time>2020-05-18T15:33:39Z</time>
      </trkpt>
      <trkpt lat="45.73482" lon="4.70669">
        <ele>264.5</ele>
        <time>2020-05-18T15:33:41Z</time>
      </trkpt>
      <trkpt lat="45.73502" lon="4.70678">
        <ele>260.65</ele>
        <time>2020-05-18T15:33:50Z</time>
      </trkpt>
      <trkpt lat="45.73508" lon="4.70685">
        <ele>259.21</ele>
        <time>2020-05-18T15:33:53Z</time>
      </trkpt>
      <trkpt lat="45.73516" lon="4.70705">
        <ele>256.33</ele>
        <time>2020-05-18T15:34:00Z</time>
      </trkpt>
      <trkpt lat="45.73521" lon="4.70709">
        <ele>255.85</ele>
        <time>2020-05-18T15:34:11Z</time>
      </trkpt>
      <trkpt lat="45.73521" lon="4.7071">
        <ele>249.6</ele>
        <time>2020-05-18T15:34:30Z</time>
      </trkpt>
      <trkpt lat="45.73521" lon="4.7071">
        <ele>258.73</ele>
        <time>2020-05-18T15:34:31Z</time>
      </trkpt>
      <trkpt lat="45.7352" lon="4.70708">
        <ele>256.33</ele>
        <time>2020-05-18T15:34:33Z</time>
      </trkpt>
      <trkpt lat="45.73519" lon="4.70707">
        <ele>256.33</ele>
        <time>2020-05-18T15:34:34Z</time>
      </trkpt>
      <trkpt lat="45.73518" lon="4.70706">
        <ele>256.33</ele>
        <time>2020-05-18T15:34:35Z</time>
      </trkpt>
      <trkpt lat="45.73518" lon="4.70705">
        <ele>256.33</ele>
        <time>2020-05-18T15:34:36Z</time>
      </trkpt>
      <trkpt lat="45.73517" lon="4.70704">
        <ele>256.33</ele>
        <time>2020-05-18T15:34:37Z</time>
      </trkpt>
      <trkpt lat="45.73515" lon="4.70699">
        <ele>257.77</ele>
        <time>2020-05-18T15:34:44Z</time>
      </trkpt>
      <trkpt lat="45.73511" lon="4.70693">
        <ele>259.21</ele>
        <time>2020-05-18T15:34:56Z</time>
      </trkpt>
      <trkpt lat="45.73512" lon="4.70694">
        <ele>259.21</ele>
        <time>2020-05-18T15:35:05Z</time>
      </trkpt>
      <trkpt lat="45.73513" lon="4.70696">
        <ele>259.21</ele>
        <time>2020-05-18T15:35:06Z</time>
      </trkpt>
      <trkpt lat="45.73513" lon="4.70698">
        <ele>259.21</ele>
        <time>2020-05-18T15:35:07Z</time>
      </trkpt>
      <trkpt lat="45.73514" lon="4.707">
        <ele>257.77</ele>
        <time>2020-05-18T15:35:08Z</time>
      </trkpt>
      <trkpt lat="45.73515" lon="4.70702">
        <ele>257.29</ele>
        <time>2020-05-18T15:35:09Z</time>
      </trkpt>
      <trkpt lat="45.73516" lon="4.70704">
        <ele>256.81</ele>
        <time>2020-05-18T15:35:10Z</time>
      </trkpt>
      <trkpt lat="45.73517" lon="4.70706">
        <ele>256.81</ele>
        <time>2020-05-18T15:35:11Z</time>
      </trkpt>
      <trkpt lat="45.73518" lon="4.70707">
        <ele>256.33</ele>
        <time>2020-05-18T15:35:12Z</time>
      </trkpt>
      <trkpt lat="45.73523" lon="4.7071">
        <ele>255.85</ele>
        <time>2020-05-18T15:35:25Z</time>
      </trkpt>
      <trkpt lat="45.73525" lon="4.70713">
        <ele>255.37</ele>
        <time>2020-05-18T15:35:27Z</time>
      </trkpt>
      <trkpt lat="45.73525" lon="4.70715">
        <ele>255.37</ele>
        <time>2020-05-18T15:35:28Z</time>
      </trkpt>
      <trkpt lat="45.73526" lon="4.7072">
        <ele>255.37</ele>
        <time>2020-05-18T15:35:37Z</time>
      </trkpt>
      <trkpt lat="45.73526" lon="4.7072">
        <ele>255.37</ele>
        <time>2020-05-18T15:35:39Z</time>
      </trkpt>
      <trkpt lat="45.73527" lon="4.70722">
        <ele>255.37</ele>
        <time>2020-05-18T15:35:40Z</time>
      </trkpt>
      <trkpt lat="45.73528" lon="4.70724">
        <ele>255.37</ele>
        <time>2020-05-18T15:35:41Z</time>
      </trkpt>
      <trkpt lat="45.7353" lon="4.70726">
        <ele>255.37</ele>
        <time>2020-05-18T15:35:42Z</time>
      </trkpt>
      <trkpt lat="45.73531" lon="4.70728">
        <ele>254.89</ele>
        <time>2020-05-18T15:35:43Z</time>
      </trkpt>
      <trkpt lat="45.73532" lon="4.7073">
        <ele>254.89</ele>
        <time>2020-05-18T15:35:44Z</time>
      </trkpt>
      <trkpt lat="45.73534" lon="4.70731">
        <ele>254.89</ele>
        <time>2020-05-18T15:35:45Z</time>
      </trkpt>
      <trkpt lat="45.73535" lon="4.70732">
        <ele>254.89</ele>
        <time>2020-05-18T15:35:46Z</time>
      </trkpt>
      <trkpt lat="45.73537" lon="4.70734">
        <ele>254.41</ele>
        <time>2020-05-18T15:35:47Z</time>
      </trkpt>
      <trkpt lat="45.73539" lon="4.70736">
        <ele>254.41</ele>
        <time>2020-05-18T15:35:48Z</time>
      </trkpt>
      <trkpt lat="45.73541" lon="4.70739">
        <ele>254.41</ele>
        <time>2020-05-18T15:35:49Z</time>
      </trkpt>
      <trkpt lat="45.73543" lon="4.70741">
        <ele>254.41</ele>
        <time>2020-05-18T15:35:50Z</time>
      </trkpt>
      <trkpt lat="45.73546" lon="4.70743">
        <ele>254.41</ele>
        <time>2020-05-18T15:35:51Z</time>
      </trkpt>
      <trkpt lat="45.73578" lon="4.70768">
        <ele>253.44</ele>
        <time>2020-05-18T15:36:03Z</time>
      </trkpt>
      <trkpt lat="45.73605" lon="4.70799">
        <ele>252.48</ele>
        <time>2020-05-18T15:36:14Z</time>
      </trkpt>
      <trkpt lat="45.7364" lon="4.70852">
        <ele>252.48</ele>
        <time>2020-05-18T15:36:28Z</time>
      </trkpt>
      <trkpt lat="45.7365" lon="4.70873">
        <ele>253.44</ele>
        <time>2020-05-18T15:36:33Z</time>
      </trkpt>
      <trkpt lat="45.73672" lon="4.70924">
        <ele>254.89</ele>
        <time>2020-05-18T15:36:43Z</time>
      </trkpt>
      <trkpt lat="45.73674" lon="4.70931">
        <ele>254.89</ele>
        <time>2020-05-18T15:36:44Z</time>
      </trkpt>
      <trkpt lat="45.73688" lon="4.71009">
        <ele>255.37</ele>
        <time>2020-05-18T15:36:58Z</time>
      </trkpt>
      <trkpt lat="45.73712" lon="4.71061">
        <ele>257.29</ele>
        <time>2020-05-18T15:37:12Z</time>
      </trkpt>
      <trkpt lat="45.73715" lon="4.71118">
        <ele>259.21</ele>
        <time>2020-05-18T15:37:28Z</time>
      </trkpt>
      <trkpt lat="45.73706" lon="4.7117">
        <ele>260.17</ele>
        <time>2020-05-18T15:37:43Z</time>
      </trkpt>
      <trkpt lat="45.73699" lon="4.71225">
        <ele>263.54</ele>
        <time>2020-05-18T15:37:58Z</time>
      </trkpt>
      <trkpt lat="45.737" lon="4.71296">
        <ele>265.46</ele>
        <time>2020-05-18T15:38:17Z</time>
      </trkpt>
      <trkpt lat="45.7371" lon="4.71357">
        <ele>264.98</ele>
        <time>2020-05-18T15:38:31Z</time>
      </trkpt>
      <trkpt lat="45.7372" lon="4.71395">
        <ele>261.62</ele>
        <time>2020-05-18T15:38:37Z</time>
      </trkpt>
      <trkpt lat="45.73723" lon="4.71403">
        <ele>261.62</ele>
        <time>2020-05-18T15:38:38Z</time>
      </trkpt>
      <trkpt lat="45.73741" lon="4.71444">
        <ele>259.21</ele>
        <time>2020-05-18T15:38:43Z</time>
      </trkpt>
      <trkpt lat="45.73745" lon="4.71451">
        <ele>259.21</ele>
        <time>2020-05-18T15:38:44Z</time>
      </trkpt>
      <trkpt lat="45.73749" lon="4.71457">
        <ele>258.25</ele>
        <time>2020-05-18T15:38:45Z</time>
      </trkpt>
      <trkpt lat="45.73753" lon="4.71462">
        <ele>258.25</ele>
        <time>2020-05-18T15:38:46Z</time>
      </trkpt>
      <trkpt lat="45.73756" lon="4.71468">
        <ele>256.81</ele>
        <time>2020-05-18T15:38:47Z</time>
      </trkpt>
      <trkpt lat="45.73756" lon="4.71475">
        <ele>256.33</ele>
        <time>2020-05-18T15:38:48Z</time>
      </trkpt>
      <trkpt lat="45.73754" lon="4.71481">
        <ele>255.85</ele>
        <time>2020-05-18T15:38:49Z</time>
      </trkpt>
      <trkpt lat="45.7375" lon="4.71486">
        <ele>255.85</ele>
        <time>2020-05-18T15:38:50Z</time>
      </trkpt>
      <trkpt lat="45.73746" lon="4.71492">
        <ele>255.37</ele>
        <time>2020-05-18T15:38:51Z</time>
      </trkpt>
      <trkpt lat="45.73743" lon="4.715">
        <ele>254.89</ele>
        <time>2020-05-18T15:38:52Z</time>
      </trkpt>
      <trkpt lat="45.73742" lon="4.71508">
        <ele>254.89</ele>
        <time>2020-05-18T15:38:53Z</time>
      </trkpt>
      <trkpt lat="45.73744" lon="4.71516">
        <ele>254.41</ele>
        <time>2020-05-18T15:38:54Z</time>
      </trkpt>
      <trkpt lat="45.73747" lon="4.71522">
        <ele>254.41</ele>
        <time>2020-05-18T15:38:55Z</time>
      </trkpt>
      <trkpt lat="45.7375" lon="4.71527">
        <ele>254.41</ele>
        <time>2020-05-18T15:38:56Z</time>
      </trkpt>
      <trkpt lat="45.73754" lon="4.71531">
        <ele>254.41</ele>
        <time>2020-05-18T15:38:57Z</time>
      </trkpt>
      <trkpt lat="45.73763" lon="4.71545">
        <ele>255.37</ele>
        <time>2020-05-18T15:39:01Z</time>
      </trkpt>
      <trkpt lat="45.73782" lon="4.71601">
        <ele>257.77</ele>
        <time>2020-05-18T15:39:17Z</time>
      </trkpt>
      <trkpt lat="45.73794" lon="4.71643">
        <ele>258.25</ele>
        <time>2020-05-18T15:39:29Z</time>
      </trkpt>
      <trkpt lat="45.73797" lon="4.71656">
        <ele>259.69</ele>
        <time>2020-05-18T15:39:41Z</time>
      </trkpt>
      <trkpt lat="45.73801" lon="4.71664">
        <ele>259.69</ele>
        <time>2020-05-18T15:39:53Z</time>
      </trkpt>
      <trkpt lat="45.73801" lon="4.71664">
        <ele>259.69</ele>
        <time>2020-05-18T15:40:10Z</time>
      </trkpt>
      <trkpt lat="45.73801" lon="4.71666">
        <ele>259.69</ele>
        <time>2020-05-18T15:40:16Z</time>
      </trkpt>
      <trkpt lat="45.73802" lon="4.71668">
        <ele>259.69</ele>
        <time>2020-05-18T15:40:17Z</time>
      </trkpt>
      <trkpt lat="45.73817" lon="4.71707">
        <ele>259.69</ele>
        <time>2020-05-18T15:40:28Z</time>
      </trkpt>
      <trkpt lat="45.73839" lon="4.71773">
        <ele>263.06</ele>
        <time>2020-05-18T15:40:44Z</time>
      </trkpt>
      <trkpt lat="45.73845" lon="4.71854">
        <ele>264.98</ele>
        <time>2020-05-18T15:41:02Z</time>
      </trkpt>
      <trkpt lat="45.73845" lon="4.71862">
        <ele>265.94</ele>
        <time>2020-05-18T15:41:04Z</time>
      </trkpt>
      <trkpt lat="45.73855" lon="4.71944">
        <ele>267.38</ele>
        <time>2020-05-18T15:41:22Z</time>
      </trkpt>
      <trkpt lat="45.73876" lon="4.72031">
        <ele>268.83</ele>
        <time>2020-05-18T15:41:41Z</time>
      </trkpt>
      <trkpt lat="45.73879" lon="4.72046">
        <ele>270.27</ele>
        <time>2020-05-18T15:41:44Z</time>
      </trkpt>
      <trkpt lat="45.73919" lon="4.72131">
        <ele>269.79</ele>
        <time>2020-05-18T15:42:01Z</time>
      </trkpt>
      <trkpt lat="45.7393" lon="4.72153">
        <ele>269.79</ele>
        <time>2020-05-18T15:42:05Z</time>
      </trkpt>
      <trkpt lat="45.73976" lon="4.72222">
        <ele>271.23</ele>
        <time>2020-05-18T15:42:20Z</time>
      </trkpt>
      <trkpt lat="45.74027" lon="4.72245">
        <ele>272.19</ele>
        <time>2020-05-18T15:42:34Z</time>
      </trkpt>
      <trkpt lat="45.74078" lon="4.72275">
        <ele>275.07</ele>
        <time>2020-05-18T15:42:50Z</time>
      </trkpt>
      <trkpt lat="45.74108" lon="4.72332">
        <ele>277.96</ele>
        <time>2020-05-18T15:43:07Z</time>
      </trkpt>
      <trkpt lat="45.74131" lon="4.72374">
        <ele>279.88</ele>
        <time>2020-05-18T15:43:22Z</time>
      </trkpt>
      <trkpt lat="45.74139" lon="4.7239">
        <ele>280.36</ele>
        <time>2020-05-18T15:43:34Z</time>
      </trkpt>
      <trkpt lat="45.74139" lon="4.72392">
        <ele>280.36</ele>
        <time>2020-05-18T15:43:35Z</time>
      </trkpt>
      <trkpt lat="45.74139" lon="4.72393">
        <ele>280.36</ele>
        <time>2020-05-18T15:43:36Z</time>
      </trkpt>
      <trkpt lat="45.7414" lon="4.72394">
        <ele>280.36</ele>
        <time>2020-05-18T15:43:48Z</time>
      </trkpt>
      <trkpt lat="45.74146" lon="4.72404">
        <ele>280.84</ele>
        <time>2020-05-18T15:44:00Z</time>
      </trkpt>
      <trkpt lat="45.7415" lon="4.72407">
        <ele>280.84</ele>
        <time>2020-05-18T15:44:02Z</time>
      </trkpt>
      <trkpt lat="45.74182" lon="4.72436">
        <ele>280.84</ele>
        <time>2020-05-18T15:44:16Z</time>
      </trkpt>
      <trkpt lat="45.74182" lon="4.72437">
        <ele>280.84</ele>
        <time>2020-05-18T15:44:31Z</time>
      </trkpt>
      <trkpt lat="45.74182" lon="4.72439">
        <ele>280.84</ele>
        <time>2020-05-18T15:44:43Z</time>
      </trkpt>
      <trkpt lat="45.74184" lon="4.7244">
        <ele>280.84</ele>
        <time>2020-05-18T15:44:44Z</time>
      </trkpt>
      <trkpt lat="45.74186" lon="4.72441">
        <ele>280.84</ele>
        <time>2020-05-18T15:44:45Z</time>
      </trkpt>
      <trkpt lat="45.7423" lon="4.72486">
        <ele>281.32</ele>
        <time>2020-05-18T15:44:59Z</time>
      </trkpt>
      <trkpt lat="45.74244" lon="4.72507">
        <ele>281.32</ele>
        <time>2020-05-18T15:45:04Z</time>
      </trkpt>
      <trkpt lat="45.74297" lon="4.72609">
        <ele>281.8</ele>
        <time>2020-05-18T15:45:24Z</time>
      </trkpt>
      <trkpt lat="45.74308" lon="4.7263">
        <ele>280.84</ele>
        <time>2020-05-18T15:45:28Z</time>
      </trkpt>
      <trkpt lat="45.74378" lon="4.72738">
        <ele>279.4</ele>
        <time>2020-05-18T15:45:48Z</time>
      </trkpt>
      <trkpt lat="45.7445" lon="4.7287">
        <ele>277.96</ele>
        <time>2020-05-18T15:46:11Z</time>
      </trkpt>
      <trkpt lat="45.74514" lon="4.72982">
        <ele>277</ele>
        <time>2020-05-18T15:46:32Z</time>
      </trkpt>
      <trkpt lat="45.74532" lon="4.73006">
        <ele>275.56</ele>
        <time>2020-05-18T15:46:37Z</time>
      </trkpt>
      <trkpt lat="45.74567" lon="4.73051">
        <ele>273.63</ele>
        <time>2020-05-18T15:46:50Z</time>
      </trkpt>
      <trkpt lat="45.74573" lon="4.73058">
        <ele>274.11</ele>
        <time>2020-05-18T15:47:02Z</time>
      </trkpt>
      <trkpt lat="45.74596" lon="4.73089">
        <ele>272.19</ele>
        <time>2020-05-18T15:47:08Z</time>
      </trkpt>
      <trkpt lat="45.74599" lon="4.73096">
        <ele>272.19</ele>
        <time>2020-05-18T15:47:09Z</time>
      </trkpt>
      <trkpt lat="45.74601" lon="4.73104">
        <ele>272.19</ele>
        <time>2020-05-18T15:47:10Z</time>
      </trkpt>
      <trkpt lat="45.74602" lon="4.73115">
        <ele>271.71</ele>
        <time>2020-05-18T15:47:11Z</time>
      </trkpt>
      <trkpt lat="45.74602" lon="4.7312">
        <ele>271.71</ele>
        <time>2020-05-18T15:47:12Z</time>
      </trkpt>
      <trkpt lat="45.74602" lon="4.73129">
        <ele>271.71</ele>
        <time>2020-05-18T15:47:13Z</time>
      </trkpt>
      <trkpt lat="45.746" lon="4.73206">
        <ele>269.31</ele>
        <time>2020-05-18T15:47:21Z</time>
      </trkpt>
      <trkpt lat="45.74592" lon="4.73271">
        <ele>269.31</ele>
        <time>2020-05-18T15:47:28Z</time>
      </trkpt>
      <trkpt lat="45.74584" lon="4.73305">
        <ele>269.31</ele>
        <time>2020-05-18T15:47:32Z</time>
      </trkpt>
      <trkpt lat="45.74581" lon="4.73313">
        <ele>269.31</ele>
        <time>2020-05-18T15:47:33Z</time>
      </trkpt>
      <trkpt lat="45.74531" lon="4.73416">
        <ele>270.27</ele>
        <time>2020-05-18T15:47:49Z</time>
      </trkpt>
      <trkpt lat="45.74484" lon="4.73494">
        <ele>271.71</ele>
        <time>2020-05-18T15:48:05Z</time>
      </trkpt>
      <trkpt lat="45.74452" lon="4.73572">
        <ele>272.19</ele>
        <time>2020-05-18T15:48:18Z</time>
      </trkpt>
      <trkpt lat="45.74439" lon="4.73625">
        <ele>270.75</ele>
        <time>2020-05-18T15:48:26Z</time>
      </trkpt>
      <trkpt lat="45.7443" lon="4.73715">
        <ele>270.27</ele>
        <time>2020-05-18T15:48:39Z</time>
      </trkpt>
      <trkpt lat="45.74432" lon="4.73843">
        <ele>267.86</ele>
        <time>2020-05-18T15:48:56Z</time>
      </trkpt>
      <trkpt lat="45.74431" lon="4.7386">
        <ele>267.38</ele>
        <time>2020-05-18T15:48:58Z</time>
      </trkpt>
      <trkpt lat="45.74425" lon="4.73927">
        <ele>265.94</ele>
        <time>2020-05-18T15:49:06Z</time>
      </trkpt>
      <trkpt lat="45.74426" lon="4.73935">
        <ele>265.94</ele>
        <time>2020-05-18T15:49:07Z</time>
      </trkpt>
      <trkpt lat="45.74427" lon="4.73942">
        <ele>265.94</ele>
        <time>2020-05-18T15:49:08Z</time>
      </trkpt>
      <trkpt lat="45.74432" lon="4.73969">
        <ele>265.94</ele>
        <time>2020-05-18T15:49:12Z</time>
      </trkpt>
      <trkpt lat="45.74433" lon="4.73976">
        <ele>265.94</ele>
        <time>2020-05-18T15:49:13Z</time>
      </trkpt>
      <trkpt lat="45.74434" lon="4.74019">
        <ele>265.94</ele>
        <time>2020-05-18T15:49:24Z</time>
      </trkpt>
      <trkpt lat="45.74436" lon="4.74052">
        <ele>265.94</ele>
        <time>2020-05-18T15:49:30Z</time>
      </trkpt>
      <trkpt lat="45.74438" lon="4.74058">
        <ele>265.94</ele>
        <time>2020-05-18T15:49:31Z</time>
      </trkpt>
      <trkpt lat="45.74439" lon="4.74064">
        <ele>265.94</ele>
        <time>2020-05-18T15:49:32Z</time>
      </trkpt>
      <trkpt lat="45.74441" lon="4.7407">
        <ele>265.94</ele>
        <time>2020-05-18T15:49:33Z</time>
      </trkpt>
      <trkpt lat="45.74442" lon="4.74077">
        <ele>265.94</ele>
        <time>2020-05-18T15:49:34Z</time>
      </trkpt>
      <trkpt lat="45.74466" lon="4.74182">
        <ele>264.98</ele>
        <time>2020-05-18T15:49:48Z</time>
      </trkpt>
      <trkpt lat="45.74514" lon="4.74276">
        <ele>262.1</ele>
        <time>2020-05-18T15:50:01Z</time>
      </trkpt>
      <trkpt lat="45.74551" lon="4.74344">
        <ele>259.69</ele>
        <time>2020-05-18T15:50:11Z</time>
      </trkpt>
      <trkpt lat="45.74558" lon="4.74359">
        <ele>259.69</ele>
        <time>2020-05-18T15:50:13Z</time>
      </trkpt>
      <trkpt lat="45.74584" lon="4.74464">
        <ele>261.62</ele>
        <time>2020-05-18T15:50:26Z</time>
      </trkpt>
      <trkpt lat="45.74586" lon="4.74533">
        <ele>260.17</ele>
        <time>2020-05-18T15:50:34Z</time>
      </trkpt>
      <trkpt lat="45.74586" lon="4.7459">
        <ele>255.37</ele>
        <time>2020-05-18T15:50:39Z</time>
      </trkpt>
      <trkpt lat="45.74586" lon="4.74648">
        <ele>252</ele>
        <time>2020-05-18T15:50:43Z</time>
      </trkpt>
      <trkpt lat="45.74583" lon="4.74758">
        <ele>252.96</ele>
        <time>2020-05-18T15:50:53Z</time>
      </trkpt>
      <trkpt lat="45.74566" lon="4.74908">
        <ele>252.48</ele>
        <time>2020-05-18T15:51:07Z</time>
      </trkpt>
      <trkpt lat="45.74564" lon="4.74917">
        <ele>252.48</ele>
        <time>2020-05-18T15:51:08Z</time>
      </trkpt>
      <trkpt lat="45.74538" lon="4.75011">
        <ele>254.41</ele>
        <time>2020-05-18T15:51:21Z</time>
      </trkpt>
      <trkpt lat="45.74534" lon="4.75025">
        <ele>254.41</ele>
        <time>2020-05-18T15:51:23Z</time>
      </trkpt>
      <trkpt lat="45.74527" lon="4.75045">
        <ele>254.41</ele>
        <time>2020-05-18T15:51:27Z</time>
      </trkpt>
      <trkpt lat="45.74525" lon="4.75045">
        <ele>254.41</ele>
        <time>2020-05-18T15:51:28Z</time>
      </trkpt>
      <trkpt lat="45.74523" lon="4.75044">
        <ele>254.41</ele>
        <time>2020-05-18T15:51:29Z</time>
      </trkpt>
      <trkpt lat="45.74521" lon="4.75042">
        <ele>254.41</ele>
        <time>2020-05-18T15:51:30Z</time>
      </trkpt>
      <trkpt lat="45.74519" lon="4.7504">
        <ele>254.41</ele>
        <time>2020-05-18T15:51:31Z</time>
      </trkpt>
      <trkpt lat="45.74517" lon="4.75036">
        <ele>252.96</ele>
        <time>2020-05-18T15:51:32Z</time>
      </trkpt>
      <trkpt lat="45.74515" lon="4.75032">
        <ele>252.48</ele>
        <time>2020-05-18T15:51:33Z</time>
      </trkpt>
      <trkpt lat="45.74512" lon="4.75027">
        <ele>251.04</ele>
        <time>2020-05-18T15:51:34Z</time>
      </trkpt>
      <trkpt lat="45.74508" lon="4.7502">
        <ele>249.6</ele>
        <time>2020-05-18T15:51:35Z</time>
      </trkpt>
      <trkpt lat="45.74504" lon="4.75013">
        <ele>248.16</ele>
        <time>2020-05-18T15:51:36Z</time>
      </trkpt>
      <trkpt lat="45.74499" lon="4.75008">
        <ele>247.2</ele>
        <time>2020-05-18T15:51:37Z</time>
      </trkpt>
      <trkpt lat="45.74488" lon="4.75">
        <ele>244.79</ele>
        <time>2020-05-18T15:51:39Z</time>
      </trkpt>
      <trkpt lat="45.74482" lon="4.74996">
        <ele>243.83</ele>
        <time>2020-05-18T15:51:40Z</time>
      </trkpt>
      <trkpt lat="45.74476" lon="4.74992">
        <ele>242.87</ele>
        <time>2020-05-18T15:51:41Z</time>
      </trkpt>
      <trkpt lat="45.74464" lon="4.74986">
        <ele>239.02</ele>
        <time>2020-05-18T15:51:43Z</time>
      </trkpt>
      <trkpt lat="45.74442" lon="4.7498">
        <ele>235.18</ele>
        <time>2020-05-18T15:51:46Z</time>
      </trkpt>
      <trkpt lat="45.74421" lon="4.74977">
        <ele>231.81</ele>
        <time>2020-05-18T15:51:49Z</time>
      </trkpt>
      <trkpt lat="45.7441" lon="4.74977">
        <ele>231.33</ele>
        <time>2020-05-18T15:51:51Z</time>
      </trkpt>
      <trkpt lat="45.74405" lon="4.74977">
        <ele>230.37</ele>
        <time>2020-05-18T15:51:52Z</time>
      </trkpt>
      <trkpt lat="45.74401" lon="4.74976">
        <ele>229.89</ele>
        <time>2020-05-18T15:51:53Z</time>
      </trkpt>
      <trkpt lat="45.74398" lon="4.74974">
        <ele>229.89</ele>
        <time>2020-05-18T15:51:54Z</time>
      </trkpt>
      <trkpt lat="45.74393" lon="4.7497">
        <ele>230.37</ele>
        <time>2020-05-18T15:52:03Z</time>
      </trkpt>
      <trkpt lat="45.74386" lon="4.74959">
        <ele>230.37</ele>
        <time>2020-05-18T15:52:23Z</time>
      </trkpt>
      <trkpt lat="45.74381" lon="4.74952">
        <ele>227.97</ele>
        <time>2020-05-18T15:52:35Z</time>
      </trkpt>
      <trkpt lat="45.74378" lon="4.74947">
        <ele>227.01</ele>
        <time>2020-05-18T15:53:02Z</time>
      </trkpt>
      <trkpt lat="45.74377" lon="4.74943">
        <ele>226.05</ele>
        <time>2020-05-18T15:53:04Z</time>
      </trkpt>
      <trkpt lat="45.74377" lon="4.74941">
        <ele>226.05</ele>
        <time>2020-05-18T15:53:05Z</time>
      </trkpt>
      <trkpt lat="45.74376" lon="4.74939">
        <ele>225.09</ele>
        <time>2020-05-18T15:53:06Z</time>
      </trkpt>
      <trkpt lat="45.74375" lon="4.74924">
        <ele>222.2</ele>
        <time>2020-05-18T15:53:10Z</time>
      </trkpt>
      <trkpt lat="45.74374" lon="4.74922">
        <ele>222.2</ele>
        <time>2020-05-18T15:53:11Z</time>
      </trkpt>
      <trkpt lat="45.74372" lon="4.74921">
        <ele>221.72</ele>
        <time>2020-05-18T15:53:26Z</time>
      </trkpt>
      <trkpt lat="45.74368" lon="4.74921">
        <ele>221.72</ele>
        <time>2020-05-18T15:53:28Z</time>
      </trkpt>
      <trkpt lat="45.74366" lon="4.7492">
        <ele>221.72</ele>
        <time>2020-05-18T15:53:30Z</time>
      </trkpt>
      <trkpt lat="45.74364" lon="4.74918">
        <ele>221.72</ele>
        <time>2020-05-18T15:53:31Z</time>
      </trkpt>
      <trkpt lat="45.74363" lon="4.74916">
        <ele>221.72</ele>
        <time>2020-05-18T15:53:32Z</time>
      </trkpt>
      <trkpt lat="45.74361" lon="4.74915">
        <ele>221.72</ele>
        <time>2020-05-18T15:53:33Z</time>
      </trkpt>
      <trkpt lat="45.7436" lon="4.74914">
        <ele>221.72</ele>
        <time>2020-05-18T15:53:34Z</time>
      </trkpt>
      <trkpt lat="45.74358" lon="4.74914">
        <ele>221.72</ele>
        <time>2020-05-18T15:53:35Z</time>
      </trkpt>
      <trkpt lat="45.74355" lon="4.74915">
        <ele>222.2</ele>
        <time>2020-05-18T15:53:36Z</time>
      </trkpt>
      <trkpt lat="45.74328" lon="4.74913">
        <ele>221.24</ele>
        <time>2020-05-18T15:53:47Z</time>
      </trkpt>
      <trkpt lat="45.74322" lon="4.7491">
        <ele>221.72</ele>
        <time>2020-05-18T15:54:01Z</time>
      </trkpt>
      <trkpt lat="45.7432" lon="4.74906">
        <ele>221.72</ele>
        <time>2020-05-18T15:54:37Z</time>
      </trkpt>
      <trkpt lat="45.74319" lon="4.74905">
        <ele>221.72</ele>
        <time>2020-05-18T15:54:39Z</time>
      </trkpt>
      <trkpt lat="45.74317" lon="4.74905">
        <ele>221.72</ele>
        <time>2020-05-18T15:54:40Z</time>
      </trkpt>
      <trkpt lat="45.7429" lon="4.74919">
        <ele>220.76</ele>
        <time>2020-05-18T15:54:52Z</time>
      </trkpt>
      <trkpt lat="45.74285" lon="4.74922">
        <ele>222.2</ele>
        <time>2020-05-18T15:54:55Z</time>
      </trkpt>
      <trkpt lat="45.74257" lon="4.74946">
        <ele>220.76</ele>
        <time>2020-05-18T15:55:08Z</time>
      </trkpt>
      <trkpt lat="45.74255" lon="4.74944">
        <ele>218.36</ele>
        <time>2020-05-18T15:55:11Z</time>
      </trkpt>
      <trkpt lat="45.74253" lon="4.74941">
        <ele>218.84</ele>
        <time>2020-05-18T15:55:29Z</time>
      </trkpt>
      <trkpt lat="45.74251" lon="4.74938">
        <ele>218.84</ele>
        <time>2020-05-18T15:55:38Z</time>
      </trkpt>
      <trkpt lat="45.74252" lon="4.74937">
        <ele>218.84</ele>
        <time>2020-05-18T15:55:39Z</time>
      </trkpt>
      <trkpt lat="45.74253" lon="4.74935">
        <ele>217.88</ele>
        <time>2020-05-18T15:55:40Z</time>
      </trkpt>
      <trkpt lat="45.74255" lon="4.74933">
        <ele>217.88</ele>
        <time>2020-05-18T15:55:41Z</time>
      </trkpt>
      <trkpt lat="45.74257" lon="4.7493">
        <ele>217.4</ele>
        <time>2020-05-18T15:55:42Z</time>
      </trkpt>
      <trkpt lat="45.74259" lon="4.74926">
        <ele>216.91</ele>
        <time>2020-05-18T15:55:43Z</time>
      </trkpt>
      <trkpt lat="45.74261" lon="4.74923">
        <ele>216.91</ele>
        <time>2020-05-18T15:55:44Z</time>
      </trkpt>
      <trkpt lat="45.74263" lon="4.74921">
        <ele>216.43</ele>
        <time>2020-05-18T15:55:45Z</time>
      </trkpt>
      <trkpt lat="45.74266" lon="4.74918">
        <ele>215.47</ele>
        <time>2020-05-18T15:55:46Z</time>
      </trkpt>
      <trkpt lat="45.74268" lon="4.74914">
        <ele>214.99</ele>
        <time>2020-05-18T15:55:47Z</time>
      </trkpt>
      <trkpt lat="45.74262" lon="4.74911">
        <ele>213.55</ele>
        <time>2020-05-18T15:55:50Z</time>
      </trkpt>
      <trkpt lat="45.74259" lon="4.74913">
        <ele>213.55</ele>
        <time>2020-05-18T15:55:51Z</time>
      </trkpt>
      <trkpt lat="45.74246" lon="4.74922">
        <ele>213.55</ele>
        <time>2020-05-18T15:55:55Z</time>
      </trkpt>
      <trkpt lat="45.74223" lon="4.74931">
        <ele>211.63</ele>
        <time>2020-05-18T15:56:01Z</time>
      </trkpt>
      <trkpt lat="45.74199" lon="4.74943">
        <ele>210.67</ele>
        <time>2020-05-18T15:56:09Z</time>
      </trkpt>
      <trkpt lat="45.74178" lon="4.74965">
        <ele>210.19</ele>
        <time>2020-05-18T15:56:18Z</time>
      </trkpt>
      <trkpt lat="45.74174" lon="4.74969">
        <ele>210.19</ele>
        <time>2020-05-18T15:56:19Z</time>
      </trkpt>
      <trkpt lat="45.74172" lon="4.74972">
        <ele>211.63</ele>
        <time>2020-05-18T15:56:20Z</time>
      </trkpt>
      <trkpt lat="45.74171" lon="4.74975">
        <ele>212.11</ele>
        <time>2020-05-18T15:56:21Z</time>
      </trkpt>
      <trkpt lat="45.7417" lon="4.74978">
        <ele>212.11</ele>
        <time>2020-05-18T15:56:22Z</time>
      </trkpt>
      <trkpt lat="45.74164" lon="4.74994">
        <ele>212.59</ele>
        <time>2020-05-18T15:56:34Z</time>
      </trkpt>
      <trkpt lat="45.74161" lon="4.74995">
        <ele>212.59</ele>
        <time>2020-05-18T15:56:43Z</time>
      </trkpt>
      <trkpt lat="45.74158" lon="4.75016">
        <ele>211.15</ele>
        <time>2020-05-18T15:56:49Z</time>
      </trkpt>
      <trkpt lat="45.74154" lon="4.75043">
        <ele>211.15</ele>
        <time>2020-05-18T15:56:54Z</time>
      </trkpt>
      <trkpt lat="45.74149" lon="4.75075">
        <ele>211.15</ele>
        <time>2020-05-18T15:56:59Z</time>
      </trkpt>
      <trkpt lat="45.74146" lon="4.75088">
        <ele>211.15</ele>
        <time>2020-05-18T15:57:01Z</time>
      </trkpt>
      <trkpt lat="45.74141" lon="4.7511">
        <ele>210.67</ele>
        <time>2020-05-18T15:57:04Z</time>
      </trkpt>
      <trkpt lat="45.74133" lon="4.75134">
        <ele>210.67</ele>
        <time>2020-05-18T15:57:08Z</time>
      </trkpt>
      <trkpt lat="45.74131" lon="4.75166">
        <ele>209.22</ele>
        <time>2020-05-18T15:57:12Z</time>
      </trkpt>
      <trkpt lat="45.74134" lon="4.75183">
        <ele>209.7</ele>
        <time>2020-05-18T15:57:14Z</time>
      </trkpt>
      <trkpt lat="45.7414" lon="4.75202">
        <ele>209.7</ele>
        <time>2020-05-18T15:57:18Z</time>
      </trkpt>
      <trkpt lat="45.74149" lon="4.7524">
        <ele>209.7</ele>
        <time>2020-05-18T15:57:29Z</time>
      </trkpt>
      <trkpt lat="45.74156" lon="4.75253">
        <ele>209.7</ele>
        <time>2020-05-18T15:57:32Z</time>
      </trkpt>
      <trkpt lat="45.74159" lon="4.75289">
        <ele>208.74</ele>
        <time>2020-05-18T15:57:37Z</time>
      </trkpt>
      <trkpt lat="45.74177" lon="4.75368">
        <ele>207.3</ele>
        <time>2020-05-18T15:57:46Z</time>
      </trkpt>
      <trkpt lat="45.74179" lon="4.75376">
        <ele>207.3</ele>
        <time>2020-05-18T15:57:47Z</time>
      </trkpt>
      <trkpt lat="45.74193" lon="4.75394">
        <ele>208.74</ele>
        <time>2020-05-18T15:57:52Z</time>
      </trkpt>
      <trkpt lat="45.74194" lon="4.754">
        <ele>209.22</ele>
        <time>2020-05-18T15:57:54Z</time>
      </trkpt>
      <trkpt lat="45.74193" lon="4.75404">
        <ele>209.22</ele>
        <time>2020-05-18T15:57:55Z</time>
      </trkpt>
      <trkpt lat="45.74192" lon="4.75407">
        <ele>209.22</ele>
        <time>2020-05-18T15:57:56Z</time>
      </trkpt>
      <trkpt lat="45.74183" lon="4.7544">
        <ele>209.7</ele>
        <time>2020-05-18T15:58:08Z</time>
      </trkpt>
      <trkpt lat="45.74184" lon="4.75443">
        <ele>210.19</ele>
        <time>2020-05-18T15:58:19Z</time>
      </trkpt>
      <trkpt lat="45.74184" lon="4.75447">
        <ele>210.19</ele>
        <time>2020-05-18T15:58:25Z</time>
      </trkpt>
      <trkpt lat="45.74184" lon="4.75448">
        <ele>210.19</ele>
        <time>2020-05-18T15:58:26Z</time>
      </trkpt>
      <trkpt lat="45.74185" lon="4.7545">
        <ele>210.19</ele>
        <time>2020-05-18T15:58:27Z</time>
      </trkpt>
      <trkpt lat="45.74186" lon="4.75452">
        <ele>210.19</ele>
        <time>2020-05-18T15:58:28Z</time>
      </trkpt>
      <trkpt lat="45.74187" lon="4.75455">
        <ele>210.19</ele>
        <time>2020-05-18T15:58:29Z</time>
      </trkpt>
      <trkpt lat="45.74188" lon="4.75457">
        <ele>210.19</ele>
        <time>2020-05-18T15:58:30Z</time>
      </trkpt>
      <trkpt lat="45.74204" lon="4.75494">
        <ele>207.78</ele>
        <time>2020-05-18T15:58:41Z</time>
      </trkpt>
      <trkpt lat="45.74227" lon="4.75521">
        <ele>207.3</ele>
        <time>2020-05-18T15:58:50Z</time>
      </trkpt>
      <trkpt lat="45.7423" lon="4.75521">
        <ele>207.3</ele>
        <time>2020-05-18T15:58:51Z</time>
      </trkpt>
      <trkpt lat="45.74233" lon="4.75521">
        <ele>207.3</ele>
        <time>2020-05-18T15:58:52Z</time>
      </trkpt>
      <trkpt lat="45.74236" lon="4.75521">
        <ele>207.3</ele>
        <time>2020-05-18T15:58:53Z</time>
      </trkpt>
      <trkpt lat="45.7424" lon="4.75521">
        <ele>207.3</ele>
        <time>2020-05-18T15:58:54Z</time>
      </trkpt>
      <trkpt lat="45.74244" lon="4.75521">
        <ele>207.3</ele>
        <time>2020-05-18T15:58:55Z</time>
      </trkpt>
      <trkpt lat="45.74248" lon="4.75521">
        <ele>207.3</ele>
        <time>2020-05-18T15:58:56Z</time>
      </trkpt>
      <trkpt lat="45.74293" lon="4.75524">
        <ele>206.34</ele>
        <time>2020-05-18T15:59:08Z</time>
      </trkpt>
      <trkpt lat="45.74297" lon="4.75526">
        <ele>206.34</ele>
        <time>2020-05-18T15:59:09Z</time>
      </trkpt>
      <trkpt lat="45.74302" lon="4.7553">
        <ele>206.34</ele>
        <time>2020-05-18T15:59:10Z</time>
      </trkpt>
      <trkpt lat="45.74307" lon="4.75536">
        <ele>206.34</ele>
        <time>2020-05-18T15:59:11Z</time>
      </trkpt>
      <trkpt lat="45.74314" lon="4.75543">
        <ele>205.86</ele>
        <time>2020-05-18T15:59:12Z</time>
      </trkpt>
      <trkpt lat="45.74319" lon="4.7555">
        <ele>205.86</ele>
        <time>2020-05-18T15:59:13Z</time>
      </trkpt>
      <trkpt lat="45.74324" lon="4.75559">
        <ele>205.86</ele>
        <time>2020-05-18T15:59:14Z</time>
      </trkpt>
      <trkpt lat="45.74327" lon="4.75568">
        <ele>204.9</ele>
        <time>2020-05-18T15:59:15Z</time>
      </trkpt>
      <trkpt lat="45.74328" lon="4.75576">
        <ele>204.9</ele>
        <time>2020-05-18T15:59:16Z</time>
      </trkpt>
      <trkpt lat="45.74329" lon="4.75585">
        <ele>204.9</ele>
        <time>2020-05-18T15:59:17Z</time>
      </trkpt>
      <trkpt lat="45.74331" lon="4.75593">
        <ele>204.9</ele>
        <time>2020-05-18T15:59:18Z</time>
      </trkpt>
      <trkpt lat="45.7433" lon="4.756">
        <ele>204.9</ele>
        <time>2020-05-18T15:59:19Z</time>
      </trkpt>
      <trkpt lat="45.74329" lon="4.75607">
        <ele>204.9</ele>
        <time>2020-05-18T15:59:20Z</time>
      </trkpt>
      <trkpt lat="45.74328" lon="4.75634">
        <ele>205.38</ele>
        <time>2020-05-18T15:59:27Z</time>
      </trkpt>
      <trkpt lat="45.74328" lon="4.75638">
        <ele>205.38</ele>
        <time>2020-05-18T15:59:28Z</time>
      </trkpt>
      <trkpt lat="45.74331" lon="4.75679">
        <ele>204.9</ele>
        <time>2020-05-18T15:59:36Z</time>
      </trkpt>
      <trkpt lat="45.74343" lon="4.75741">
        <ele>203.94</ele>
        <time>2020-05-18T15:59:46Z</time>
      </trkpt>
      <trkpt lat="45.74346" lon="4.75755">
        <ele>203.46</ele>
        <time>2020-05-18T15:59:48Z</time>
      </trkpt>
      <trkpt lat="45.7435" lon="4.75763">
        <ele>202.98</ele>
        <time>2020-05-18T15:59:49Z</time>
      </trkpt>
      <trkpt lat="45.74353" lon="4.75773">
        <ele>202.98</ele>
        <time>2020-05-18T15:59:50Z</time>
      </trkpt>
      <trkpt lat="45.74357" lon="4.75782">
        <ele>202.49</ele>
        <time>2020-05-18T15:59:51Z</time>
      </trkpt>
      <trkpt lat="45.74362" lon="4.75791">
        <ele>202.49</ele>
        <time>2020-05-18T15:59:52Z</time>
      </trkpt>
      <trkpt lat="45.74375" lon="4.75827">
        <ele>202.01</ele>
        <time>2020-05-18T15:59:56Z</time>
      </trkpt>
      <trkpt lat="45.74376" lon="4.75836">
        <ele>202.01</ele>
        <time>2020-05-18T15:59:57Z</time>
      </trkpt>
      <trkpt lat="45.74376" lon="4.75846">
        <ele>202.01</ele>
        <time>2020-05-18T15:59:58Z</time>
      </trkpt>
      <trkpt lat="45.74376" lon="4.75864">
        <ele>202.01</ele>
        <time>2020-05-18T16:00:00Z</time>
      </trkpt>
      <trkpt lat="45.74375" lon="4.75873">
        <ele>202.01</ele>
        <time>2020-05-18T16:00:01Z</time>
      </trkpt>
      <trkpt lat="45.74376" lon="4.75881">
        <ele>202.01</ele>
        <time>2020-05-18T16:00:02Z</time>
      </trkpt>
      <trkpt lat="45.74377" lon="4.75889">
        <ele>202.01</ele>
        <time>2020-05-18T16:00:03Z</time>
      </trkpt>
      <trkpt lat="45.74376" lon="4.75897">
        <ele>201.53</ele>
        <time>2020-05-18T16:00:04Z</time>
      </trkpt>
      <trkpt lat="45.74376" lon="4.75905">
        <ele>201.53</ele>
        <time>2020-05-18T16:00:05Z</time>
      </trkpt>
      <trkpt lat="45.74375" lon="4.75913">
        <ele>201.53</ele>
        <time>2020-05-18T16:00:06Z</time>
      </trkpt>
      <trkpt lat="45.74373" lon="4.75928">
        <ele>201.53</ele>
        <time>2020-05-18T16:00:08Z</time>
      </trkpt>
      <trkpt lat="45.74369" lon="4.75949">
        <ele>201.53</ele>
        <time>2020-05-18T16:00:11Z</time>
      </trkpt>
      <trkpt lat="45.74367" lon="4.75955">
        <ele>201.05</ele>
        <time>2020-05-18T16:00:12Z</time>
      </trkpt>
      <trkpt lat="45.74364" lon="4.75961">
        <ele>201.05</ele>
        <time>2020-05-18T16:00:13Z</time>
      </trkpt>
      <trkpt lat="45.74363" lon="4.75967">
        <ele>201.05</ele>
        <time>2020-05-18T16:00:14Z</time>
      </trkpt>
      <trkpt lat="45.74361" lon="4.75972">
        <ele>201.05</ele>
        <time>2020-05-18T16:00:15Z</time>
      </trkpt>
      <trkpt lat="45.74356" lon="4.75988">
        <ele>201.05</ele>
        <time>2020-05-18T16:00:19Z</time>
      </trkpt>
      <trkpt lat="45.74355" lon="4.75992">
        <ele>201.05</ele>
        <time>2020-05-18T16:00:20Z</time>
      </trkpt>
      <trkpt lat="45.74355" lon="4.75996">
        <ele>201.05</ele>
        <time>2020-05-18T16:00:21Z</time>
      </trkpt>
      <trkpt lat="45.74358" lon="4.76047">
        <ele>201.05</ele>
        <time>2020-05-18T16:00:31Z</time>
      </trkpt>
      <trkpt lat="45.74359" lon="4.76099">
        <ele>201.05</ele>
        <time>2020-05-18T16:00:41Z</time>
      </trkpt>
      <trkpt lat="45.74371" lon="4.76161">
        <ele>201.05</ele>
        <time>2020-05-18T16:00:52Z</time>
      </trkpt>
      <trkpt lat="45.74384" lon="4.76222">
        <ele>200.57</ele>
        <time>2020-05-18T16:01:02Z</time>
      </trkpt>
      <trkpt lat="45.74384" lon="4.7623">
        <ele>200.57</ele>
        <time>2020-05-18T16:01:03Z</time>
      </trkpt>
      <trkpt lat="45.74382" lon="4.76236">
        <ele>200.09</ele>
        <time>2020-05-18T16:01:04Z</time>
      </trkpt>
      <trkpt lat="45.74379" lon="4.76241">
        <ele>200.09</ele>
        <time>2020-05-18T16:01:05Z</time>
      </trkpt>
      <trkpt lat="45.74376" lon="4.76247">
        <ele>200.09</ele>
        <time>2020-05-18T16:01:06Z</time>
      </trkpt>
      <trkpt lat="45.74357" lon="4.76272">
        <ele>199.61</ele>
        <time>2020-05-18T16:01:11Z</time>
      </trkpt>
      <trkpt lat="45.74353" lon="4.76277">
        <ele>199.13</ele>
        <time>2020-05-18T16:01:12Z</time>
      </trkpt>
      <trkpt lat="45.7435" lon="4.76282">
        <ele>199.13</ele>
        <time>2020-05-18T16:01:13Z</time>
      </trkpt>
      <trkpt lat="45.74346" lon="4.76287">
        <ele>199.13</ele>
        <time>2020-05-18T16:01:14Z</time>
      </trkpt>
      <trkpt lat="45.74343" lon="4.76292">
        <ele>199.13</ele>
        <time>2020-05-18T16:01:15Z</time>
      </trkpt>
      <trkpt lat="45.74339" lon="4.76296">
        <ele>199.13</ele>
        <time>2020-05-18T16:01:16Z</time>
      </trkpt>
      <trkpt lat="45.74335" lon="4.76301">
        <ele>199.13</ele>
        <time>2020-05-18T16:01:17Z</time>
      </trkpt>
      <trkpt lat="45.74332" lon="4.76305">
        <ele>199.13</ele>
        <time>2020-05-18T16:01:18Z</time>
      </trkpt>
      <trkpt lat="45.74303" lon="4.76331">
        <ele>199.13</ele>
        <time>2020-05-18T16:01:26Z</time>
      </trkpt>
      <trkpt lat="45.74299" lon="4.76334">
        <ele>199.13</ele>
        <time>2020-05-18T16:01:27Z</time>
      </trkpt>
      <trkpt lat="45.74295" lon="4.76338">
        <ele>199.13</ele>
        <time>2020-05-18T16:01:28Z</time>
      </trkpt>
      <trkpt lat="45.7429" lon="4.76341">
        <ele>199.13</ele>
        <time>2020-05-18T16:01:29Z</time>
      </trkpt>
      <trkpt lat="45.74285" lon="4.76345">
        <ele>199.13</ele>
        <time>2020-05-18T16:01:30Z</time>
      </trkpt>
      <trkpt lat="45.7428" lon="4.7635">
        <ele>199.13</ele>
        <time>2020-05-18T16:01:31Z</time>
      </trkpt>
      <trkpt lat="45.74266" lon="4.76364">
        <ele>198.65</ele>
        <time>2020-05-18T16:01:34Z</time>
      </trkpt>
      <trkpt lat="45.74264" lon="4.7637">
        <ele>198.65</ele>
        <time>2020-05-18T16:01:35Z</time>
      </trkpt>
      <trkpt lat="45.74262" lon="4.76375">
        <ele>198.65</ele>
        <time>2020-05-18T16:01:36Z</time>
      </trkpt>
      <trkpt lat="45.7426" lon="4.76376">
        <ele>198.65</ele>
        <time>2020-05-18T16:01:37Z</time>
      </trkpt>
      <trkpt lat="45.74257" lon="4.76376">
        <ele>198.65</ele>
        <time>2020-05-18T16:01:38Z</time>
      </trkpt>
      <trkpt lat="45.74253" lon="4.76375">
        <ele>198.65</ele>
        <time>2020-05-18T16:01:39Z</time>
      </trkpt>
      <trkpt lat="45.74249" lon="4.76376">
        <ele>198.65</ele>
        <time>2020-05-18T16:01:40Z</time>
      </trkpt>
      <trkpt lat="45.74246" lon="4.76378">
        <ele>198.65</ele>
        <time>2020-05-18T16:01:41Z</time>
      </trkpt>
      <trkpt lat="45.74242" lon="4.76381">
        <ele>198.65</ele>
        <time>2020-05-18T16:01:42Z</time>
      </trkpt>
      <trkpt lat="45.74241" lon="4.76386">
        <ele>198.65</ele>
        <time>2020-05-18T16:01:43Z</time>
      </trkpt>
      <trkpt lat="45.7424" lon="4.76391">
        <ele>198.65</ele>
        <time>2020-05-18T16:01:44Z</time>
      </trkpt>
      <trkpt lat="45.74239" lon="4.76396">
        <ele>198.17</ele>
        <time>2020-05-18T16:01:45Z</time>
      </trkpt>
      <trkpt lat="45.74237" lon="4.76399">
        <ele>198.17</ele>
        <time>2020-05-18T16:01:46Z</time>
      </trkpt>
      <trkpt lat="45.74235" lon="4.76403">
        <ele>196.73</ele>
        <time>2020-05-18T16:01:47Z</time>
      </trkpt>
      <trkpt lat="45.74232" lon="4.76407">
        <ele>196.25</ele>
        <time>2020-05-18T16:01:48Z</time>
      </trkpt>
      <trkpt lat="45.74213" lon="4.76428">
        <ele>197.69</ele>
        <time>2020-05-18T16:01:55Z</time>
      </trkpt>
      <trkpt lat="45.74206" lon="4.76462">
        <ele>197.69</ele>
        <time>2020-05-18T16:02:05Z</time>
      </trkpt>
      <trkpt lat="45.74207" lon="4.76463">
        <ele>197.69</ele>
        <time>2020-05-18T16:02:06Z</time>
      </trkpt>
      <trkpt lat="45.74209" lon="4.76471">
        <ele>198.17</ele>
        <time>2020-05-18T16:02:10Z</time>
      </trkpt>
      <trkpt lat="45.74209" lon="4.76474">
        <ele>198.17</ele>
        <time>2020-05-18T16:02:11Z</time>
      </trkpt>
      <trkpt lat="45.74208" lon="4.76477">
        <ele>198.17</ele>
        <time>2020-05-18T16:02:12Z</time>
      </trkpt>
      <trkpt lat="45.74208" lon="4.76481">
        <ele>198.17</ele>
        <time>2020-05-18T16:02:13Z</time>
      </trkpt>
      <trkpt lat="45.74208" lon="4.76484">
        <ele>198.17</ele>
        <time>2020-05-18T16:02:14Z</time>
      </trkpt>
      <trkpt lat="45.74208" lon="4.76487">
        <ele>198.17</ele>
        <time>2020-05-18T16:02:15Z</time>
      </trkpt>
      <trkpt lat="45.7421" lon="4.76557">
        <ele>198.17</ele>
        <time>2020-05-18T16:02:30Z</time>
      </trkpt>
      <trkpt lat="45.74208" lon="4.76622">
        <ele>198.17</ele>
        <time>2020-05-18T16:02:44Z</time>
      </trkpt>
      <trkpt lat="45.74207" lon="4.76662">
        <ele>198.17</ele>
        <time>2020-05-18T16:02:53Z</time>
      </trkpt>
      <trkpt lat="45.74193" lon="4.76703">
        <ele>200.09</ele>
        <time>2020-05-18T16:03:01Z</time>
      </trkpt>
      <trkpt lat="45.7419" lon="4.76713">
        <ele>198.65</ele>
        <time>2020-05-18T16:03:03Z</time>
      </trkpt>
      <trkpt lat="45.74169" lon="4.76772">
        <ele>198.65</ele>
        <time>2020-05-18T16:03:15Z</time>
      </trkpt>
      <trkpt lat="45.74156" lon="4.7681">
        <ele>198.17</ele>
        <time>2020-05-18T16:03:21Z</time>
      </trkpt>
      <trkpt lat="45.74157" lon="4.76815">
        <ele>198.17</ele>
        <time>2020-05-18T16:03:22Z</time>
      </trkpt>
      <trkpt lat="45.7416" lon="4.76817">
        <ele>198.17</ele>
        <time>2020-05-18T16:03:23Z</time>
      </trkpt>
      <trkpt lat="45.74164" lon="4.76816">
        <ele>198.17</ele>
        <time>2020-05-18T16:03:24Z</time>
      </trkpt>
      <trkpt lat="45.74168" lon="4.76814">
        <ele>198.17</ele>
        <time>2020-05-18T16:03:25Z</time>
      </trkpt>
      <trkpt lat="45.74171" lon="4.76813">
        <ele>198.17</ele>
        <time>2020-05-18T16:03:26Z</time>
      </trkpt>
      <trkpt lat="45.74188" lon="4.76808">
        <ele>197.69</ele>
        <time>2020-05-18T16:03:30Z</time>
      </trkpt>
      <trkpt lat="45.74192" lon="4.76807">
        <ele>197.21</ele>
        <time>2020-05-18T16:03:31Z</time>
      </trkpt>
      <trkpt lat="45.74217" lon="4.76806">
        <ele>198.65</ele>
        <time>2020-05-18T16:03:37Z</time>
      </trkpt>
      <trkpt lat="45.74279" lon="4.76806">
        <ele>198.65</ele>
        <time>2020-05-18T16:03:51Z</time>
      </trkpt>
      <trkpt lat="45.74334" lon="4.76807">
        <ele>199.13</ele>
        <time>2020-05-18T16:04:03Z</time>
      </trkpt>
      <trkpt lat="45.74344" lon="4.76806">
        <ele>199.13</ele>
        <time>2020-05-18T16:04:05Z</time>
      </trkpt>
      <trkpt lat="45.74415" lon="4.7678">
        <ele>200.09</ele>
        <time>2020-05-18T16:04:21Z</time>
      </trkpt>
      <trkpt lat="45.74419" lon="4.76779">
        <ele>200.09</ele>
        <time>2020-05-18T16:04:22Z</time>
      </trkpt>
      <trkpt lat="45.74438" lon="4.76777">
        <ele>200.09</ele>
        <time>2020-05-18T16:04:26Z</time>
      </trkpt>
      <trkpt lat="45.74447" lon="4.76779">
        <ele>200.09</ele>
        <time>2020-05-18T16:04:28Z</time>
      </trkpt>
      <trkpt lat="45.74495" lon="4.76795">
        <ele>201.05</ele>
        <time>2020-05-18T16:04:39Z</time>
      </trkpt>
      <trkpt lat="45.74547" lon="4.76793">
        <ele>202.98</ele>
        <time>2020-05-18T16:04:53Z</time>
      </trkpt>
      <trkpt lat="45.74578" lon="4.76787">
        <ele>203.46</ele>
        <time>2020-05-18T16:05:03Z</time>
      </trkpt>
      <trkpt lat="45.74582" lon="4.76792">
        <ele>203.46</ele>
        <time>2020-05-18T16:05:13Z</time>
      </trkpt>
      <trkpt lat="45.74583" lon="4.7679">
        <ele>203.94</ele>
        <time>2020-05-18T16:05:41Z</time>
      </trkpt>
      <trkpt lat="45.74582" lon="4.76793">
        <ele>203.94</ele>
        <time>2020-05-18T16:06:13Z</time>
      </trkpt>
      <trkpt lat="45.74582" lon="4.76794">
        <ele>203.94</ele>
        <time>2020-05-18T16:06:43Z</time>
      </trkpt>
      <trkpt lat="45.7458" lon="4.76795">
        <ele>202.98</ele>
        <time>2020-05-18T16:06:51Z</time>
      </trkpt>
      <trkpt lat="45.74581" lon="4.76792">
        <ele>202.98</ele>
        <time>2020-05-18T16:07:28Z</time>
      </trkpt>
      <trkpt lat="45.74583" lon="4.7679">
        <ele>203.94</ele>
        <time>2020-05-18T16:07:59Z</time>
      </trkpt>
      <trkpt lat="45.74583" lon="4.76789">
        <ele>203.94</ele>
        <time>2020-05-18T16:08:27Z</time>
      </trkpt>
      <trkpt lat="45.74583" lon="4.7679">
        <ele>203.94</ele>
        <time>2020-05-18T16:08:59Z</time>
      </trkpt>
      <trkpt lat="45.7458" lon="4.76789">
        <ele>203.46</ele>
        <time>2020-05-18T16:09:30Z</time>
      </trkpt>
      <trkpt lat="45.74579" lon="4.76787">
        <ele>203.94</ele>
        <time>2020-05-18T16:10:05Z</time>
      </trkpt>
      <trkpt lat="45.74582" lon="4.76792">
        <ele>204.9</ele>
        <time>2020-05-18T16:10:40Z</time>
      </trkpt>
      <trkpt lat="45.74578" lon="4.76794">
        <ele>205.38</ele>
        <time>2020-05-18T16:11:14Z</time>
      </trkpt>
      <trkpt lat="45.74575" lon="4.76788">
        <ele>205.38</ele>
        <time>2020-05-18T16:11:48Z</time>
      </trkpt>
      <trkpt lat="45.7458" lon="4.76783">
        <ele>205.38</ele>
        <time>2020-05-18T16:12:16Z</time>
      </trkpt>
    </trkseg>
  </trk>
</gpx>